[[{"header":{"parameterUnit":"m.s-1","parameterCategory":1,"la1":30.6,"la2":28.766,"lo1":-90.7593,"lo2":-88.6598,"dy":0.0162,"dx":0.0183,"nx":116,"ny":114,"refTime":"2024-03-05T06:00:00:Z","depth":0,"parameterNumber":2,"parameterNumberName":"U-component_of_WINDS"},"data":[0.0,0.0,0.0,0.0,0.0,0.0,0.0,0.0,0.0,0.0,0.0,0.0,0.0,0.0,0.0,0.0,0.0,0.0,0.0,0.0,0.0,0.0,0.0,0.0,0.0,0.0,0.0,0.0,0.0,0.0,0.0,0.0,0.0,0.0,0.0,0.0,0.0,0.0,0.0,0.0,0.0,0.0,0.0,0.0,0.0,0.0,0.0,0.0,0.0,0.0,0.0,0.0,0.0,0.0,0.0,0.0,0.0,0.0,0.0,0.0,0.0,0.0,0.0,0.0,0.0,0.0,0.0,0.0,0.0,0.0,0.0,0.0,0.0,0.0,0.0,0.0,0.0,0.0,0.0,0.0,0.0,0.0,0.0,0.0,0.0,0.0,0.0,0.0,0.0,0.0,0.0,0.0,0.0,0.0,0.0,0.0,0.0,0.0,0.0,0.0,0.0,0.0,0.0,0.0,0.0,0.0,0.0,0.0,0.0,0.0,0.0,0.0,0.0,0.0,0.0,0.0,0.0,0.0,0.0,0.0,0.0,0.0,0.0,0.0,0.0,0.0,0.0,0.0,0.0,0.0,0.0,0.0,0.0,0.0,0.0,0.0,0.0,0.0,0.0,0.0,0.0,0.0,0.0,0.0,0.0,0.0,0.0,0.0,0.0,0.0,0.0,0.0,0.0,0.0,0.0,0.0,0.0,0.0,0.0,0.0,0.0,0.0,0.0,0.0,0.0,0.0,0.0,0.0,0.0,0.0,0.0,0.0,0.0,0.0,0.0,0.0,0.0,0.0,0.0,0.0,0.0,0.0,0.0,0.0,0.0,0.0,0.0,0.0,0.0,0.0,0.0,0.0,0.0,0.0,0.0,0.0,0.0,0.0,0.0,0.0,0.0,0.0,0.0,0.0,0.0,0.0,0.0,0.0,0.0,0.0,0.0,0.0,0.0,0.0,0.0,0.0,0.0,0.0,0.0,0.0,0.0,0.0,0.0,0.0,0.0,0.0,0.0,0.0,0.0,0.0,0.0,0.0,0.0,0.0,0.0,0.0,0.0,0.0,0.0,0.0,0.0,0.0,0.0,0.0,0.0,0.0,0.0,0.0,0.0,0.0,0.0,0.0,0.0,0.0,0.0,0.0,0.0,0.0,0.0,0.0,0.0,0.0,0.0,0.0,0.0,0.0,0.0,0.0,0.0,0.0,0.0,0.0,0.0,0.0,0.0,0.0,0.0,0.0,0.0,0.0,0.0,0.0,0.0,0.0,0.0,0.0,0.0,0.0,0.0,0.0,0.0,0.0,0.0,0.0,0.0,0.0,0.0,0.0,0.0,0.0,0.0,0.0,0.0,0.0,0.0,0.0,0.0,0.0,0.0,0.0,0.0,0.0,0.0,0.0,0.0,0.0,0.0,0.0,0.0,0.0,0.0,0.0,0.0,0.0,0.0,0.0,0.0,0.0,0.0,0.0,0.0,0.0,0.0,0.0,0.0,0.0,0.0,0.0,0.0,0.0,0.0,0.0,0.0,0.0,0.0,0.0,0.0,0.0,0.0,0.0,0.0,0.0,0.0,0.0,0.0,0.0,0.0,0.0,0.0,0.0,0.0,0.0,0.0,0.0,0.0,0.0,0.0,0.0,0.0,0.0,0.0,0.0,0.0,0.0,0.0,0.0,0.0,0.0,0.0,0.0,0.0,0.0,0.0,0.0,0.0,0.0,0.0,0.0,0.0,0.0,0.0,0.0,0.0,0.0,0.0,0.0,0.0,0.0,0.0,0.0,0.0,0.0,0.0,0.0,0.0,0.0,0.0,0.0,0.0,0.0,0.0,0.0,0.0,0.0,0.0,0.0,0.0,0.0,0.0,0.0,0.0,0.0,0.0,0.0,0.0,0.0,0.0,0.0,0.0,0.0,0.0,0.0,0.0,0.0,0.0,0.0,0.0,0.0,0.0,0.0,0.0,0.0,0.0,0.0,0.0,0.0,0.0,0.0,0.0,0.0,0.0,0.0,0.0,0.0,0.0,0.0,0.0,0.0,0.0,0.0,0.0,0.0,0.0,0.0,0.0,0.0,0.0,0.0,0.0,0.0,0.0,0.0,0.0,0.0,0.0,0.0,0.0,0.0,0.0,0.0,0.0,0.0,0.0,0.0,0.0,0.0,0.0,0.0,0.0,0.0,0.0,0.0,0.0,0.0,0.0,0.0,0.0,0.0,0.0,0.0,0.0,0.0,0.0,0.0,0.0,0.0,0.0,0.0,0.0,0.0,0.0,0.0,0.0,0.0,0.0,0.0,0.0,0.0,0.0,0.0,0.0,0.0,0.0,0.0,0.0,0.0,0.0,0.0,0.0,0.0,0.0,0.0,0.0,0.0,0.0,0.0,0.0,0.0,0.0,0.0,0.0,0.0,0.0,0.0,0.0,0.0,0.0,0.0,0.0,0.0,0.0,0.0,0.0,0.0,0.0,0.0,0.0,0.0,0.0,0.0,0.0,0.0,0.0,0.0,0.0,0.0,0.0,0.0,0.0,0.0,0.0,0.0,0.0,0.0,0.0,0.0,0.0,0.0,0.0,0.0,0.0,0.0,0.0,0.0,0.0,0.0,0.0,0.0,0.0,0.0,0.0,0.0,0.0,0.0,0.0,0.0,0.0,0.0,0.0,0.0,0.0,0.0,0.0,0.0,0.0,0.0,0.0,0.0,0.0,0.0,0.0,0.0,0.0,0.0,0.0,0.0,0.0,0.0,0.0,0.0,0.0,0.0,0.0,0.0,0.0,0.0,0.0,0.0,0.0,0.0,0.0,0.0,0.0,0.0,0.0,0.0,0.0,0.0,0.0,0.0,0.0,0.0,0.0,0.0,0.0,0.0,0.0,0.0,0.0,0.0,0.0,0.0,0.0,0.0,0.0,0.0,0.0,0.0,0.0,0.0,0.0,0.0,0.0,0.0,0.0,0.0,0.0,0.0,0.0,0.0,0.0,0.0,0.0,0.0,0.0,0.0,0.0,0.0,0.0,0.0,0.0,0.0,0.0,0.0,0.0,0.0,0.0,0.0,0.0,0.0,0.0,0.0,0.0,0.0,0.0,0.0,0.0,0.0,0.0,0.0,0.0,0.0,0.0,0.0,0.0,0.0,0.0,0.0,0.0,0.0,0.0,0.0,0.0,0.0,0.0,0.0,0.0,0.0,0.0,0.0,0.0,0.0,0.0,0.0,0.0,0.0,0.0,0.0,0.0,0.0,0.0,0.0,0.0,0.0,0.0,0.0,0.0,0.0,0.0,0.0,0.0,0.0,0.0,0.0,0.0,0.0,0.0,0.0,0.0,0.0,0.0,0.0,0.0,0.0,0.0,0.0,0.0,0.0,0.0,0.0,0.0,0.0,0.0,0.0,0.0,0.0,0.0,0.0,0.0,0.0,0.0,0.0,0.0,0.0,0.0,0.0,0.0,0.0,0.0,0.0,0.0,0.0,0.0,0.0,0.0,0.0,0.0,0.0,0.0,0.0,0.0,0.0,0.0,0.0,0.0,0.0,0.0,0.0,0.0,0.0,0.0,0.0,0.0,0.0,0.0,0.0,0.0,0.0,0.0,0.0,0.0,0.0,0.0,0.0,0.0,0.0,0.0,0.0,0.0,0.0,0.0,0.0,0.0,0.0,0.0,0.0,0.0,0.0,0.0,0.0,0.0,0.0,0.0,0.0,0.0,0.0,0.0,0.0,0.0,0.0,0.0,0.0,0.0,0.0,0.0,0.0,0.0,0.0,0.0,0.0,0.0,0.0,0.0,0.0,0.0,0.0,0.0,0.0,0.0,0.0,0.0,0.0,0.0,0.0,0.0,0.0,0.0,0.0,0.0,0.0,0.0,0.0,0.0,0.0,0.0,0.0,0.0,0.0,0.0,0.0,0.0,0.0,0.0,0.0,0.0,0.0,0.0,0.0,0.0,0.0,0.0,0.0,0.0,0.0,0.0,0.0,0.0,0.0,0.0,0.0,0.0,0.0,0.0,0.0,0.0,0.0,0.0,0.0,0.0,0.0,0.0,0.0,0.0,0.0,0.0,0.0,0.0,0.0,0.0,0.0,0.0,0.0,0.0,0.0,0.0,0.0,0.0,0.0,0.0,0.0,0.0,0.0,0.0,0.0,0.0,0.0,0.0,0.0,0.0,0.0,0.0,0.0,0.0,0.0,0.0,0.0,0.0,0.0,0.0,0.0,0.0,0.0,0.0,0.0,0.0,0.0,0.0,0.0,0.0,0.0,0.0,0.0,0.0,0.0,0.0,0.0,0.0,0.0,0.0,0.0,0.0,0.0,0.0,0.0,0.0,0.0,0.0,0.0,0.0,0.0,0.0,0.0,0.0,0.0,0.0,0.0,0.0,0.0,0.0,0.0,0.0,0.0,0.0,0.0,0.0,0.0,0.0,0.0,0.0,0.0,0.0,0.0,0.0,0.0,0.0,0.0,0.0,0.0,0.0,0.0,0.0,0.0,0.0,0.0,0.0,0.0,0.0,0.0,0.0,0.0,0.0,0.0,0.0,0.0,0.0,0.0,0.0,0.0,0.0,0.0,0.0,0.0,0.0,0.0,0.0,0.0,0.0,0.0,0.0,0.0,0.0,0.0,0.0,0.0,0.0,0.0,0.0,0.0,0.0,0.0,0.0,0.0,0.0,0.0,0.0,0.0,0.0,0.0,0.0,0.0,0.0,0.0,0.0,0.0,0.0,0.0,0.0,0.0,0.0,0.0,0.0,0.0,0.0,0.0,0.0,0.0,0.0,0.0,0.0,0.0,0.0,0.0,0.0,0.0,0.0,0.0,0.0,0.0,0.0,0.0,0.0,0.0,0.0,0.0,0.0,0.0,0.0,0.0,0.0,0.0,0.0,0.0,0.0,0.0,0.0,0.0,0.0,0.0,0.0,0.0,0.0,0.0,0.0,0.0,0.0,0.0,0.0,0.0,0.0,0.0,0.0,0.0,0.0,0.0,0.0,0.0,0.0,0.0,0.0,0.0,0.0,0.0,0.0,0.0,0.0,0.0,0.0,0.0,0.0,0.0,0.0,0.0,0.0,0.0,0.0,0.0,0.0,0.0,0.0,0.0,0.0,0.0,0.0,0.0,0.0,0.0,0.0,0.0,0.0,0.0,0.0,0.0,0.0,0.0,0.0,0.0,0.0,0.0,0.0,0.0,0.0,0.0,0.0,0.0,0.0,0.0,0.0,0.0,0.0,0.0,0.0,0.0,0.0,0.0,0.0,0.0,0.0,0.0,0.0,0.0,0.0,0.0,0.0,0.0,0.0,0.0,0.0,0.0,0.0,0.0,0.0,0.0,0.0,0.0,0.0,0.0,0.0,0.0,0.0,0.0,0.0,0.0,0.0,0.0,0.0,0.0,0.0,0.0,0.0,0.0,0.0,0.0,0.0,0.0,0.0,0.0,0.0,0.0,0.0,0.0,0.0,0.0,0.0,0.0,0.0,0.0,0.0,0.0,0.0,0.0,0.0,0.0,0.0,0.0,0.0,0.0,0.0,0.0,0.0,0.0,0.0,0.0,0.0,0.0,0.0,0.0,0.0,0.0,0.0,0.0,0.0,0.0,0.0,0.0,0.0,0.0,0.0,0.0,0.0,0.0,0.0,0.0,0.0,0.0,0.0,0.0,0.0,0.0,0.0,0.0,0.0,0.0,0.0,0.0,0.0,0.0,0.0,0.0,0.0,0.0,0.0,0.0,0.0,0.0,0.0,0.0,0.0,0.0,0.0,0.0,0.0,0.0,0.0,0.0,0.0,0.0,0.0,0.0,0.0,0.0,0.0,0.0,0.0,0.0,0.0,0.0,0.0,0.0,0.0,0.0,0.0,0.0,0.0,0.0,0.0,0.0,0.0,0.0,0.0,0.0,0.0,0.0,0.0,0.0,0.0,0.0,0.0,0.0,0.0,0.0,0.0,0.0,0.0,0.0,0.0,0.0,0.0,0.0,0.0,0.0,0.0,0.0,0.0,0.0,0.0,0.0,0.0,0.0,0.0,0.0,0.0,0.0,0.0,0.0,0.0,0.0,0.0,0.0,0.0,0.0,0.0,0.0,0.0,0.0,0.0,0.0,0.0,0.0,0.0,0.0,-7.3677,-7.394,0.0,0.0,0.0,0.0,0.0,0.0,0.0,0.0,0.0,0.0,0.0,0.0,0.0,0.0,0.0,0.0,0.0,0.0,0.0,0.0,0.0,0.0,0.0,0.0,0.0,0.0,0.0,0.0,0.0,0.0,0.0,0.0,0.0,0.0,-6.6798,-6.6795,-6.6795,-6.6795,-6.6795,-6.6795,-6.6795,-6.6795,-6.6795,-6.6795,0.0,0.0,0.0,0.0,0.0,0.0,0.0,0.0,0.0,0.0,0.0,0.0,0.0,0.0,0.0,0.0,0.0,0.0,0.0,0.0,0.0,0.0,0.0,0.0,0.0,0.0,0.0,0.0,0.0,0.0,0.0,0.0,0.0,0.0,0.0,0.0,0.0,0.0,0.0,0.0,0.0,0.0,0.0,0.0,0.0,0.0,0.0,0.0,0.0,0.0,0.0,0.0,0.0,0.0,0.0,0.0,0.0,0.0,0.0,0.0,0.0,0.0,0.0,0.0,0.0,0.0,0.0,0.0,0.0,0.0,-7.2997,-7.3327,0.0,0.0,0.0,0.0,0.0,0.0,0.0,0.0,0.0,0.0,0.0,0.0,0.0,0.0,0.0,0.0,0.0,0.0,0.0,0.0,0.0,0.0,0.0,-6.2549,-6.2975,-6.3835,-6.458,-6.51,0.0,0.0,0.0,0.0,0.0,-6.6713,-6.6798,-6.6795,-6.6795,-6.6795,-6.6795,-6.6795,-6.6795,-6.6795,-6.6795,-6.6795,-6.6795,0.0,0.0,0.0,0.0,0.0,0.0,0.0,0.0,0.0,0.0,0.0,0.0,0.0,0.0,0.0,0.0,0.0,0.0,0.0,0.0,0.0,0.0,0.0,0.0,0.0,0.0,0.0,0.0,0.0,0.0,0.0,0.0,0.0,0.0,0.0,0.0,0.0,0.0,0.0,0.0,0.0,0.0,0.0,0.0,0.0,0.0,0.0,0.0,0.0,0.0,0.0,0.0,0.0,0.0,0.0,0.0,0.0,0.0,0.0,0.0,0.0,0.0,0.0,-6.8357,-6.9091,-6.9898,-7.0535,-7.1468,-7.2613,-7.2299,-7.2724,-7.3504,-7.2906,0.0,0.0,0.0,0.0,0.0,0.0,0.0,0.0,0.0,0.0,0.0,0.0,0.0,0.0,0.0,0.0,0.0,0.0,0.0,0.0,0.0,-6.3091,-6.3874,-6.4764,-6.4995,-6.5398,-6.6191,-6.6384,-6.6555,-6.6673,-6.6717,-6.6713,-6.6798,-6.6795,-6.6795,-6.6795,-6.6795,-6.6795,-6.6795,-6.6795,-6.6795,-6.6795,-6.6795,-6.6795,-6.6795,0.0,0.0,0.0,0.0,0.0,0.0,0.0,0.0,0.0,0.0,0.0,0.0,0.0,0.0,0.0,0.0,0.0,0.0,0.0,0.0,0.0,0.0,0.0,0.0,0.0,0.0,0.0,0.0,0.0,0.0,0.0,0.0,0.0,0.0,0.0,0.0,0.0,0.0,0.0,0.0,0.0,-6.9928,-6.9103,0.0,0.0,0.0,0.0,0.0,0.0,0.0,0.0,0.0,0.0,0.0,0.0,0.0,-6.7687,-6.7687,-6.7687,-6.7687,-6.7687,-6.7689,-6.8119,-6.8925,-6.9551,-7.0289,-7.1114,-7.1642,0.0,-7.2614,-7.213,0.0,0.0,0.0,0.0,0.0,0.0,0.0,0.0,0.0,0.0,0.0,0.0,0.0,0.0,0.0,0.0,0.0,0.0,0.0,0.0,0.0,-6.4213,-6.4764,-6.5605,-6.5751,-6.5962,-6.6376,-6.6437,-6.6504,-6.6673,-6.6717,-6.6713,-6.6798,-6.6795,-6.6795,-6.6795,-6.6795,-6.6795,-6.6795,-6.6795,-6.6795,-6.6795,-6.6795,-6.6795,-6.6795,-6.6795,0.0,0.0,0.0,0.0,0.0,0.0,0.0,0.0,0.0,0.0,0.0,0.0,0.0,0.0,0.0,0.0,0.0,0.0,0.0,0.0,0.0,0.0,0.0,0.0,0.0,0.0,0.0,0.0,0.0,0.0,0.0,0.0,0.0,0.0,0.0,0.0,0.0,0.0,0.0,-6.9866,-6.9133,-6.7577,-6.6866,-6.5935,0.0,0.0,0.0,0.0,0.0,0.0,0.0,0.0,0.0,-6.7687,-6.7633,-6.7606,-6.7687,-6.7633,-6.7579,-6.7579,-6.7524,-6.7881,-6.8564,-6.9194,-6.9907,-7.0708,-7.1355,-7.1775,-7.1945,-7.1713,-7.1744,-7.1891,0.0,0.0,0.0,0.0,-7.1707,-7.1639,0.0,0.0,0.0,0.0,0.0,0.0,0.0,0.0,0.0,0.0,0.0,0.0,-6.4919,-6.518,-6.5528,-6.6147,-6.6274,-6.6331,-6.6415,-6.6381,-6.6471,-6.6688,-6.667,-6.6711,-6.6815,-6.6802,-6.6795,-6.6795,-6.6795,-6.6795,-6.6795,-6.6795,-6.6795,-6.6795,-6.6795,-6.6795,-6.6795,-6.6795,-6.6795,-6.6795,0.0,0.0,0.0,0.0,0.0,0.0,0.0,0.0,0.0,0.0,0.0,0.0,0.0,0.0,0.0,0.0,0.0,0.0,0.0,0.0,0.0,0.0,0.0,0.0,0.0,0.0,0.0,0.0,0.0,0.0,0.0,0.0,0.0,0.0,0.0,0.0,0.0,-6.9527,-6.8496,-6.6555,-6.5795,-6.4743,0.0,0.0,0.0,0.0,0.0,0.0,-6.69,-6.6983,-6.7139,-6.7542,-6.747,-6.747,-6.7579,-6.747,-6.7414,-6.7414,-6.7387,-6.7595,-6.8065,-6.8945,-6.9685,-7.0302,-7.1158,-7.1494,-7.1494,-7.1494,-7.1494,-7.1494,-7.1494,-7.1494,-7.1494,-7.1494,-7.1494,-7.1639,0.0,0.0,0.0,0.0,0.0,0.0,0.0,0.0,0.0,0.0,0.0,-6.4948,-6.4986,-6.5682,-6.6147,-6.6185,-6.6274,-6.6331,-6.6415,-6.6381,-6.6461,-6.6595,-6.6684,-6.674,-6.6797,-6.6818,-6.6795,-6.6795,-6.6795,-6.6795,-6.6795,-6.6795,-6.6795,-6.6795,-6.6795,-6.6795,-6.6795,-6.6795,-6.6795,-6.6795,-6.6795,0.0,0.0,0.0,0.0,0.0,0.0,0.0,0.0,0.0,0.0,0.0,0.0,0.0,0.0,0.0,0.0,0.0,0.0,0.0,0.0,0.0,0.0,0.0,0.0,0.0,0.0,0.0,0.0,0.0,0.0,0.0,0.0,0.0,0.0,0.0,0.0,0.0,0.0,-6.7408,-6.616,0.0,0.0,0.0,0.0,-6.289,-6.2789,-6.3445,-6.5045,-6.4994,-6.567,-6.7202,-6.7238,-6.7238,-6.7238,-6.7238,-6.721,-6.721,-6.7069,-6.7048,-6.7128,-6.8542,-6.9243,-6.9352,-7.0842,-7.1494,-7.1494,-7.1494,-7.1494,-7.1494,-7.1494,-7.1494,-7.1494,-7.1494,-7.1494,-7.1639,0.0,0.0,0.0,0.0,0.0,0.0,0.0,0.0,-6.6727,-6.5876,-6.576,-6.576,-6.576,-6.6031,-6.6185,-6.6185,-6.6205,-6.6293,-6.6376,-6.6394,-6.647,-6.6585,-6.6645,-6.6749,-6.6781,-6.6805,-6.6795,-6.6795,-6.6795,-6.6795,-6.6795,-6.6795,-6.6795,-6.6795,-6.6795,-6.6795,-6.6795,-6.6795,-6.6795,-6.6795,-6.6795,-6.6795,0.0,0.0,0.0,0.0,0.0,0.0,0.0,0.0,0.0,0.0,0.0,0.0,0.0,0.0,0.0,0.0,0.0,0.0,0.0,0.0,0.0,0.0,0.0,0.0,0.0,0.0,0.0,0.0,0.0,0.0,0.0,0.0,0.0,0.0,0.0,0.0,0.0,-6.6973,-6.5512,0.0,-6.3595,-6.3014,-6.2899,-6.3387,-6.332,-6.3716,-6.4811,-6.5305,-6.5825,-6.6408,-6.6871,-6.7097,-6.721,-6.7097,-6.7069,-6.7069,-6.7011,-6.6961,-6.691,-6.7939,-6.8706,-6.9279,-7.0335,-7.106,-7.1494,-7.1494,-7.1494,-7.1494,-7.1494,-7.1494,-7.1494,-7.1494,-7.1494,-7.1639,0.0,0.0,0.0,0.0,0.0,0.0,0.0,0.0,-6.8158,-6.7539,-6.7268,-6.6959,-6.6688,-6.665,-6.6533,-6.6224,-6.6185,-6.6274,-6.6376,-6.6385,-6.6431,-6.6567,-6.667,-6.6713,-6.6798,-6.6795,-6.6795,-6.6795,-6.6795,-6.6795,-6.6795,-6.6795,-6.6795,-6.6795,-6.6795,-6.6795,-6.6795,-6.6795,-6.6795,-6.6795,-6.6795,-6.6795,-6.6795,0.0,0.0,0.0,0.0,0.0,0.0,0.0,0.0,0.0,0.0,0.0,0.0,0.0,0.0,0.0,0.0,0.0,0.0,0.0,0.0,0.0,0.0,0.0,0.0,0.0,0.0,0.0,0.0,0.0,0.0,0.0,0.0,0.0,0.0,-6.8782,-6.7647,-6.6916,-6.5229,-6.3913,-6.349,-6.2941,-6.2797,-6.3294,-6.3199,-6.3474,-6.4275,-6.5058,-6.5577,-6.5868,-6.6554,-6.699,-6.704,-6.699,-6.6932,-6.6932,-6.6932,-6.6874,-6.6822,-6.7655,-6.8452,-6.9243,-7.0077,-7.0806,-7.1494,-7.1494,-7.1494,-7.1494,-7.1494,-7.1494,-7.1494,-7.1494,-7.1494,-7.1639,0.0,0.0,0.0,0.0,0.0,0.0,0.0,-7.0556,-6.9976,-6.9976,-6.9241,-6.8429,-6.7539,-6.7462,-6.7114,-6.6263,-6.6185,-6.6274,-6.6376,-6.6385,-6.6428,-6.6516,-6.6646,-6.6714,-6.6798,-6.6795,-6.6795,-6.6795,-6.6795,-6.6795,-6.6795,-6.6795,-6.6795,-6.6795,-6.6795,-6.6795,-6.6795,-6.6795,-6.6795,-6.6795,-6.6795,-6.6795,-6.6795,0.0,0.0,0.0,0.0,0.0,0.0,0.0,0.0,0.0,0.0,0.0,0.0,0.0,0.0,0.0,0.0,0.0,0.0,0.0,0.0,0.0,0.0,0.0,0.0,0.0,0.0,0.0,0.0,0.0,0.0,0.0,0.0,0.0,-7.0419,-6.8967,-6.7747,-6.7349,-6.5426,-6.3871,-6.3377,-6.2892,-6.2526,-6.2397,-6.2265,-6.2549,-6.3285,-6.4009,-6.4722,-6.5518,-6.6351,-6.6786,-6.6786,-6.6786,-6.6786,-6.6786,-6.6786,-6.6786,-6.6822,-6.7619,-6.8416,-6.9243,-7.004,-7.0806,-7.1494,-7.1494,-7.1494,-7.1494,-7.1494,-7.1494,-7.1494,-7.1494,-7.1494,-7.1748,0.0,0.0,0.0,0.0,0.0,0.0,-7.1291,-7.0556,-6.9783,-6.9203,-6.839,-6.7539,-6.665,-6.6572,-6.6456,-6.6224,-6.6225,-6.6312,-6.6376,-6.6411,-6.6482,-6.6654,-6.6737,-6.6796,-6.6798,-6.6795,-6.6795,-6.6795,-6.6795,-6.6795,-6.6795,-6.6795,-6.6795,-6.6795,-6.6795,-6.6795,-6.6795,-6.6795,-6.6795,-6.6795,-6.6795,-6.6795,-6.6795,0.0,0.0,0.0,0.0,0.0,0.0,0.0,0.0,0.0,0.0,0.0,0.0,0.0,0.0,0.0,0.0,0.0,0.0,0.0,0.0,0.0,0.0,0.0,0.0,0.0,0.0,0.0,0.0,0.0,0.0,0.0,-7.0419,-7.0419,-7.0419,-6.8967,-6.7865,-6.7747,-6.5502,-6.3876,-6.3729,-6.2977,-6.2397,-6.2275,-6.2212,-6.2241,-6.2386,-6.312,-6.3889,-6.4685,-6.5518,-6.6207,-6.6786,-6.6786,-6.6786,-6.6786,-6.6786,-6.6786,-6.6822,-6.704,-6.7873,-6.9207,-6.9461,-7.0263,-7.1494,-7.1494,-7.1494,-7.1494,-7.1494,-7.1494,-7.1494,-7.1494,-7.1494,-7.1748,0.0,0.0,0.0,0.0,0.0,0.0,-7.1291,-7.0866,-7.0247,-6.9396,-6.8854,-6.8081,-6.6882,-6.6727,-6.6611,-6.6224,-6.6254,-6.6303,-6.6376,-6.6462,-6.6558,-6.6675,-6.6753,-6.6793,-6.6798,-6.6795,-6.6795,-6.6795,-6.6795,-6.6795,-6.6795,-6.6795,-6.6795,-6.6795,-6.6795,-6.6795,-6.6795,-6.6795,-6.6795,-6.6795,-6.6795,-6.6795,-6.6795,-6.6795,-6.6795,-6.6795,-6.6795,-6.7029,-6.7576,-6.8942,0.0,0.0,0.0,0.0,0.0,0.0,0.0,0.0,0.0,0.0,0.0,0.0,0.0,0.0,0.0,0.0,0.0,0.0,0.0,0.0,0.0,0.0,0.0,0.0,-7.0419,-7.0419,-7.0419,-6.8967,-6.7897,-6.7897,-6.576,-6.4254,-6.4215,-6.3461,-6.2855,-6.2515,-6.2438,-6.2281,-6.2005,-6.2766,-6.3563,-6.4359,-6.5192,-6.5989,-6.6786,-6.6786,-6.6786,-6.6786,-6.6786,-6.6786,-6.6786,-6.6786,-6.7692,-6.9207,-6.9207,-7.0046,-7.1494,-7.1494,-7.1494,-7.1494,0.0,0.0,0.0,0.0,-7.1494,-7.1675,0.0,0.0,0.0,0.0,0.0,0.0,-7.1137,-7.1059,-7.0711,-6.9821,-6.9705,-6.9125,-6.7539,-6.7346,-6.7036,-6.6263,-6.6195,-6.6274,-6.6376,-6.6523,-6.6633,-6.6673,-6.6752,-6.6793,-6.6798,-6.6795,-6.6795,-6.6795,-6.6795,-6.6795,-6.6795,-6.6795,-6.6795,-6.6795,-6.6795,-6.6795,-6.6795,-6.6795,-6.6795,-6.6795,-6.6795,-6.6795,-6.6795,-6.6795,-6.6795,-6.6795,-6.6795,-6.7342,-6.8239,-6.9098,0.0,0.0,0.0,0.0,0.0,0.0,0.0,0.0,0.0,0.0,0.0,0.0,0.0,0.0,0.0,0.0,0.0,0.0,0.0,0.0,0.0,0.0,0.0,0.0,-7.0419,-7.0419,-7.0419,-6.8967,-6.7897,-6.7897,-6.6062,-6.4721,-6.4593,-6.4074,-6.3498,-6.2916,-6.272,-6.2453,-6.2033,-6.2693,0.0,0.0,0.0,-6.5881,-6.6786,-6.6786,-6.6786,-6.6786,-6.6786,-6.6786,-6.6786,-6.6786,-6.7619,-6.9098,-6.9171,-7.0009,-7.1386,-7.1458,-7.1494,-7.1494,-7.1494,-7.1494,-7.1494,-7.1494,-7.1494,-7.1639,0.0,0.0,0.0,0.0,0.0,0.0,-7.0247,-6.9705,-6.897,-6.8119,-6.7965,-6.7578,-6.6572,-6.6456,-6.6379,-6.6224,-6.6264,-6.6322,-6.6376,-6.6475,-6.6551,-6.6619,-6.6667,-6.6757,-6.6798,-6.6795,-6.6795,-6.6795,-6.6795,-6.6795,-6.6795,-6.6795,-6.6795,-6.6795,-6.6795,-6.6795,-6.6795,-6.6795,-6.6795,-6.6795,-6.6795,-6.6795,-6.6795,-6.6795,-6.6795,-6.6795,-6.6795,-6.7342,-6.8239,-6.9098,-6.9949,-7.0785,-7.1492,-7.1626,0.0,0.0,0.0,0.0,0.0,0.0,0.0,0.0,0.0,0.0,0.0,0.0,0.0,0.0,0.0,0.0,0.0,0.0,0.0,-7.0419,-7.0419,-7.0419,-7.0419,-6.8967,-6.7897,-6.7897,-6.5973,-6.4593,-6.4445,-6.3723,-6.3107,-6.2769,-6.2453,-6.2265,-6.2195,-6.2205,-6.2966,-6.4528,-6.4597,-6.5337,-6.6786,-6.6786,-6.6786,-6.6786,-6.6786,0.0,-6.6786,-6.6786,-6.7329,-6.8271,-6.8923,-6.975,-7.0661,-7.1241,-7.1494,-7.1494,-7.1494,-7.1494,-7.1494,-7.1494,-7.1494,-7.1639,0.0,0.0,0.0,0.0,0.0,0.0,-6.9396,-6.9048,-6.8506,-6.7617,-6.7501,-6.7152,-6.6301,-6.6185,-6.6185,-6.6185,-6.6274,-6.6322,-6.634,-6.6453,-6.653,-6.6599,-6.6662,-6.6718,-6.6805,-6.68,-6.6795,-6.6795,-6.6795,-6.6795,-6.6795,-6.6795,-6.6795,-6.6795,-6.6795,-6.6795,-6.6795,-6.6795,-6.6795,-6.6795,-6.6795,-6.6795,-6.6795,-6.6795,-6.6795,-6.6873,-6.7303,-6.8005,-6.8864,-6.9762,-7.0621,-7.1396,-7.1753,-7.1846,-7.1741,0.0,0.0,0.0,0.0,0.0,0.0,0.0,0.0,0.0,0.0,0.0,0.0,0.0,0.0,-7.0419,-7.0419,0.0,-7.0419,-7.0419,-7.0419,-7.0419,-7.0419,-6.9349,-6.8394,-6.7935,-6.6146,-6.4934,-6.4845,-6.4407,-6.3909,-6.328,-6.3234,-6.294,-6.2238,-6.2318,-6.302,-6.4436,-6.4424,-6.5156,-6.6786,-6.6786,-6.6786,-6.6786,-6.6786,-6.6786,-6.6786,-6.6786,-6.7257,-6.8054,-6.885,-6.9678,-7.0444,-7.1205,-7.1494,-7.1494,-7.1494,-7.1494,-7.1494,-7.1494,-7.1494,-7.1567,0.0,0.0,0.0,0.0,0.0,0.0,0.0,-6.839,-6.8042,-6.7346,-6.7268,-6.6998,-6.6263,-6.6185,-6.6185,-6.6185,-6.6264,-6.6293,-6.6293,-6.6392,-6.6471,-6.6551,-6.6592,-6.6675,-6.6787,-6.6779,-6.6809,-6.68,-6.6798,-6.6795,-6.6795,-6.6795,-6.6795,-6.6795,-6.6795,-6.6795,-6.6795,-6.6795,-6.6795,-6.6795,-6.6795,-6.6912,-6.7068,-6.7068,-6.7068,-6.7185,-6.8044,-6.8903,-6.9762,-7.0465,-7.1285,-7.1987,-7.1987,-7.1987,-7.1976,-7.1731,-7.1661,0.0,0.0,0.0,0.0,0.0,0.0,0.0,0.0,-7.0419,-7.0419,-7.0419,-7.0419,-7.0419,-7.0419,-7.0419,-7.0419,-7.0419,-7.0419,-7.0419,-7.0419,-6.9731,-6.889,-6.8012,-6.6497,-6.5496,-6.5328,-6.5177,-6.4759,-6.3992,-6.4094,-6.3637,-6.2438,-6.2606,-6.3262,-6.438,-6.4452,-6.5185,-6.6786,-6.6786,-6.6786,-6.6786,-6.6786,-6.6786,-6.6786,-6.6786,-6.7148,-6.7836,-6.8778,-6.975,-7.0661,-7.1241,-7.1494,-7.1494,-7.1494,-7.1494,-7.1494,-7.1494,-7.1494,-7.1494,0.0,0.0,0.0,0.0,0.0,0.0,0.0,0.0,-6.6456,-6.6379,-6.634,-6.6301,-6.6224,-6.6185,-6.6185,-6.6185,-6.6195,-6.6195,-6.6195,-6.6225,-6.6308,-6.6432,-6.6419,-6.6507,-6.6712,-6.6717,-6.6756,-6.6811,-6.68,-6.6795,-6.6795,-6.6795,-6.6795,-6.6795,-6.6795,-6.6795,-6.6795,-6.6795,-6.6795,-6.6795,-6.6795,-6.7264,-6.7966,-6.7966,-6.7966,-6.8083,-6.8942,-6.9801,-7.0582,-7.066,-7.1285,-7.1987,-7.1987,-7.1987,-7.1987,-7.1979,-7.1976,-7.1913,-7.1634,-7.1172,-7.0796,-7.0771,-7.0569,-7.0419,0.0,-7.0419,-7.0419,-7.0419,-7.0419,-7.0419,-7.0419,-7.0419,-7.0419,-7.0419,-7.0419,-7.0419,-7.0419,-6.9731,-6.889,-6.8012,-6.7095,-6.6208,-6.5366,-6.4917,-6.4575,-6.4351,-6.3934,-6.3483,-6.3012,-6.2916,-6.3427,-6.452,-6.4592,-6.527,-6.6786,-6.6786,-6.6786,-6.6786,-6.6786,-6.6786,-6.6786,-6.6786,-6.6858,-6.704,-6.8525,-7.0009,-7.1386,-7.1458,-7.1494,-7.1494,-7.1494,-7.1494,-7.1494,-7.1494,-7.1494,-7.1494,0.0,0.0,0.0,0.0,0.0,0.0,0.0,0.0,0.0,-6.6185,-6.6185,-6.6185,-6.6185,-6.6185,-6.6185,-6.6185,-6.6185,-6.6185,-6.6185,-6.6185,-6.6253,-6.6407,-6.6397,-6.6468,-6.6577,-6.666,-6.6717,-6.6756,-6.6781,-6.6802,-6.6795,-6.6795,-6.6795,-6.6795,-6.6795,-6.6795,-6.6795,-6.6795,-6.6795,-6.6834,-6.7342,-6.7771,-6.82,-6.9215,-6.9606,-6.9645,-7.0035,-7.0387,0.0,-7.1285,-7.1714,-7.1987,-7.1987,-7.1987,-7.1987,-7.1987,-7.1987,-7.1916,-7.1481,-7.1194,-7.0973,-7.0671,-7.047,-7.0419,-7.0419,-7.0419,-7.0419,-7.0419,-7.0419,-7.0419,-7.0419,-7.0419,-7.0419,-7.0419,-7.0419,-7.0419,-7.0419,-7.0113,-6.9578,-6.8738,-6.7897,-6.6834,-6.5442,-6.5073,-6.4813,-6.4502,-6.4502,-6.4233,-6.3565,-6.368,-6.4316,-6.5484,-6.5132,-6.5703,-6.7296,-6.6983,-6.6786,-6.6786,-6.6786,-6.6786,-6.6786,-6.6786,-6.7293,-6.8235,-6.8917,-7.0046,-7.1494,-7.1494,-7.1494,-7.1494,-7.1494,-7.1494,-7.1494,-7.1494,-7.1494,-7.1494,0.0,0.0,0.0,0.0,0.0,0.0,0.0,0.0,0.0,0.0,-6.6185,-6.6185,-6.6185,-6.6185,-6.6185,-6.6185,-6.6185,-6.6185,-6.6185,-6.6185,-6.6254,-6.6351,-6.6353,-6.6366,-6.6457,-6.6574,-6.6659,-6.6713,-6.6792,-6.6813,-6.6846,-6.6846,-6.6805,-6.68,-6.68,-6.68,-6.6834,-6.7068,-6.7146,-6.7224,-6.8122,-6.8591,-6.8942,-7.023,-7.0855,-7.105,-7.105,-7.105,-7.1167,-7.1792,-7.1987,-7.1987,-7.1987,-7.1987,-7.1987,-7.1987,-7.1984,-7.1874,-7.1435,-7.1287,-7.1113,-7.0671,-7.0493,-7.0435,-7.0419,-7.0419,-7.0419,-7.0419,-7.0419,-7.0419,-7.0419,-7.0419,-7.0419,-7.0419,-7.0419,-7.0419,-7.0419,-7.0419,-7.0113,-6.9311,-6.8623,-6.7576,-6.5855,-6.5426,-6.509,-6.4777,-6.5023,-6.4848,-6.4074,-6.4293,-6.4988,-6.6097,-6.5618,-6.6109,-6.7715,-6.7174,-6.6903,-6.6845,-6.6845,-6.6815,-6.6786,-6.6786,-6.7692,-6.9207,-6.9207,-7.0046,-7.1494,-7.1494,-7.1494,-7.1494,-7.1494,-7.1494,-7.1494,-7.1494,-7.1494,-7.1494,0.0,0.0,0.0,0.0,0.0,0.0,0.0,0.0,0.0,0.0,0.0,0.0,0.0,-6.6185,-6.6185,-6.6185,-6.6185,-6.6185,-6.6185,-6.6185,-6.6185,-6.6195,-6.6195,-6.6253,-6.6392,-6.6452,-6.656,-6.6698,-6.6835,-6.6902,-6.6902,-6.6902,-6.6859,-6.6811,-6.6811,-6.6807,-6.6873,-6.7693,-6.8044,-6.8122,-6.902,-6.9879,-7.0621,-7.0699,-7.1206,-7.1948,-7.1948,-7.1948,-7.1948,-7.1987,-7.1987,-7.1987,-7.1987,-7.1987,-7.1987,-7.1987,-7.194,-7.1874,-7.1716,-7.1505,-7.1241,-7.105,-7.0791,-7.0554,-7.0435,-7.0419,-7.0419,-7.0419,-7.0419,-7.0419,-7.0419,-7.0419,-7.0419,-7.0419,-7.0419,-7.0419,-7.0419,-7.0419,-7.0113,-6.9311,-6.9158,-6.8508,-6.6827,-6.591,-6.5398,-6.536,-6.5321,-6.509,-6.4593,-6.4593,-6.5027,-6.5963,-6.5774,-6.6359,-6.7789,-6.7396,-6.7126,-6.6983,-6.6983,-6.6932,-6.6786,-6.6786,-6.7692,-6.9207,-6.9207,-7.0046,-7.1494,-7.1494,-7.1494,-7.1494,-7.1494,-7.1494,-7.1494,-7.1494,-7.1494,-7.1494,0.0,0.0,0.0,0.0,0.0,0.0,0.0,0.0,0.0,0.0,0.0,0.0,0.0,0.0,0.0,0.0,-6.6185,-6.6185,-6.6185,-6.6185,-6.6185,-6.6185,-6.6185,-6.6215,-6.6292,-6.6361,-6.6444,-6.6507,-6.6606,-6.6698,-6.6757,-6.6757,-6.6796,-6.69,-6.7401,-6.767,-6.7705,-6.8596,-6.8942,-6.902,-6.9918,-7.0426,-7.0777,-7.1324,-7.1753,-7.1987,0.0,-7.1987,-7.1987,-7.1987,-7.1987,-7.1987,-7.1987,-7.1987,-7.187,-7.1324,-7.1516,-7.1806,-7.1004,-7.1038,-7.1252,-7.1035,-7.0805,-7.0608,-7.0538,-7.0451,-7.0419,-7.0419,-7.0419,-7.0419,-7.0419,-7.0419,-7.0419,-7.0419,-7.0419,-7.0419,-7.0419,-7.0419,-7.0304,-7.0037,-6.9502,-6.8967,-6.8394,-6.7009,-6.5909,-6.5375,-6.5305,-6.5242,-6.5073,-6.5672,-6.6383,-6.7217,-6.7367,-6.7738,-6.8474,-6.7948,-6.7442,-6.7019,-6.6903,-6.6845,-6.6786,-6.6903,-6.7744,-6.9207,-6.9298,-7.0174,-7.1494,-7.1494,-7.1494,-7.1494,-7.1494,-7.1494,-7.1494,-7.1494,-7.1494,-7.1494,0.0,0.0,0.0,0.0,0.0,0.0,0.0,0.0,0.0,0.0,0.0,0.0,0.0,0.0,0.0,0.0,0.0,-6.6185,-6.6185,-6.6185,-6.6185,-6.6185,-6.6185,-6.6185,-6.6185,-6.6342,-6.64,-6.639,-6.6797,-6.7005,-6.7102,-6.7473,-6.7687,-6.7773,-6.8313,-6.8579,-6.8613,-6.9501,-6.9848,-6.9926,-7.0819,-7.1167,-7.1245,-7.1792,-7.1987,0.0,-7.1987,-7.1987,-7.1987,-7.1987,-7.1987,-7.1987,-7.1987,-7.1792,-7.148,-7.1245,-7.1324,-7.1426,-7.0926,-7.1102,-7.1387,-7.1092,-7.0902,-7.0758,-7.0662,-7.0554,-7.0451,-7.0451,-7.0435,-7.0419,-7.0419,-7.0419,-7.0419,-7.0419,-7.0419,-7.0419,-7.0419,-7.0419,-7.0419,-7.0419,-6.996,-6.9502,-6.9234,-6.8155,-6.7016,-6.5871,-6.5795,-6.5795,-6.5795,-6.6376,-6.7194,-6.8269,-6.8352,-6.85,-6.884,-6.8497,-6.8023,-6.7387,-6.7286,-6.7126,-6.6961,-6.7011,-6.7891,-6.9268,-6.9358,-7.0205,-7.1494,-7.1494,-7.1494,-7.1494,-7.1494,-7.1494,-7.1494,-7.1494,-7.1494,-7.1494,0.0,0.0,0.0,0.0,0.0,0.0,0.0,0.0,0.0,0.0,0.0,0.0,0.0,0.0,0.0,0.0,0.0,0.0,-6.634,-6.634,-6.634,-6.634,-6.634,-6.634,-6.634,-6.645,-6.6532,-6.6532,-6.7411,-6.786,-6.787,-6.8819,-6.9294,-6.931,-6.9414,-6.9449,-6.9521,-7.0411,-7.0757,-7.0835,-7.168,-7.1987,-7.1987,-7.1987,-7.1987,-7.1987,-7.1987,-7.1987,-7.1987,-7.1987,-7.1987,-7.1987,-7.1987,-7.1441,-7.0933,-7.1714,-7.1363,-7.0919,-7.1502,-7.1666,-7.1595,-7.1201,-7.1097,-7.1041,-7.0772,-7.0647,-7.0623,-7.0623,-7.0467,-7.0419,-7.0419,-7.0419,-7.0419,-7.0419,-7.0419,-7.0419,-7.0419,-7.0419,-7.0419,-7.0419,0.0,0.0,0.0,0.0,-6.8585,-6.6942,-6.6789,-6.6751,-6.6751,-6.6789,-6.7506,-6.8951,-6.8729,-6.8733,-6.8922,-6.9047,-6.8743,-6.8087,-6.7936,-6.7673,-6.721,-6.7247,-6.8036,-6.9388,-6.9454,-7.0235,-7.1494,-7.1494,-7.1494,-7.1494,-7.1494,-7.1494,-7.1494,-7.1494,-7.1494,-7.1494,0.0,0.0,0.0,0.0,0.0,0.0,0.0,0.0,0.0,0.0,0.0,0.0,0.0,0.0,0.0,0.0,0.0,0.0,-6.8158,-6.8158,-6.8158,-6.8158,-6.8158,-6.8158,-6.8158,-6.8171,-6.82,-6.82,-6.8442,-6.858,-6.862,-6.8896,-6.9094,-6.9335,-6.9942,-7.0273,-7.0417,-7.1307,-7.169,-7.168,-7.1912,-7.1987,-7.1987,-7.1987,-7.1987,-7.1987,-7.1987,-7.1987,-7.1987,-7.1987,-7.1987,-7.1987,-7.1987,-7.1831,-7.1597,-7.1167,-7.1324,-7.1555,-7.1068,-7.133,-7.1659,-7.1456,-7.125,-7.1053,-7.0829,-7.0693,-7.0623,-7.0623,-7.0467,-7.0419,-7.0419,-7.0419,-7.0419,-7.0419,-7.0419,-7.0419,-7.0419,-7.0419,0.0,-7.0419,0.0,-7.0342,-7.0113,-7.0113,0.0,-6.8623,-6.7973,-6.7591,-6.7591,-6.8203,-6.8722,-6.9126,-6.9671,-6.9789,-6.9584,-6.9117,-6.8614,-6.8087,-6.7936,-6.7673,-6.721,-6.798,-6.8706,-6.9454,-7.0155,-7.0835,-7.1494,-7.1494,-7.1494,-7.1494,-7.1494,-7.1494,-7.1494,-7.1494,-7.1494,-7.1494,0.0,0.0,0.0,0.0,0.0,0.0,0.0,0.0,0.0,0.0,0.0,0.0,0.0,0.0,0.0,0.0,0.0,0.0,0.0,-6.8816,-6.8816,-6.8816,-6.8816,-6.8816,-6.8816,-6.8816,-6.8816,-6.8816,-6.9164,-6.9342,-6.938,-6.9808,-7.0134,-7.0279,-7.0837,-7.1117,-7.121,-7.1788,-7.201,0.0,0.0,-7.1987,-7.1987,-7.1987,-7.1987,-7.1987,-7.1987,-7.1987,-7.1987,0.0,0.0,-7.1987,-7.1987,-7.1753,-7.1402,-7.1285,-7.1363,-7.1402,-7.1285,-7.153,-7.1785,-7.1628,-7.1448,-7.1218,-7.1016,-7.0815,-7.0647,-7.0647,-7.0499,-7.0419,-7.0419,-7.0419,-7.0419,0.0,0.0,0.0,-7.0419,-7.0419,-7.0419,0.0,-7.0419,0.0,-7.0419,-7.0419,-7.0228,-6.9769,-6.8967,-6.847,-6.847,-6.8929,-6.9349,-6.9731,-7.0151,-7.0281,-7.0073,-6.9508,-6.8994,-6.8535,-6.8464,-6.8086,-6.7442,-6.8367,-6.9088,-6.9661,-7.0551,-7.1228,-7.1713,-7.1713,-7.1713,-7.1682,-7.1656,-7.1625,-7.1625,-7.1526,-7.1494,-7.1494,0.0,0.0,0.0,0.0,0.0,0.0,0.0,0.0,0.0,0.0,-6.9048,0.0,0.0,0.0,0.0,0.0,0.0,0.0,0.0,0.0,-6.9125,-6.9125,-6.9125,-6.9125,-6.9125,-6.9125,-6.9125,-6.9125,-6.9821,-7.017,-7.018,-7.1057,-7.1495,-7.1497,-7.1697,-7.1774,-7.1789,-7.1914,-7.1986,-7.1984,-7.2002,-7.199,-7.1987,0.0,-7.1987,-7.1987,-7.1987,-7.1987,-7.1987,0.0,-7.1987,-7.1987,-7.1987,-7.148,-7.1011,-7.1792,-7.1441,-7.105,-7.1792,-7.1987,-7.1933,-7.177,-7.1601,-7.1439,-7.1268,-7.0953,-7.0723,-7.0723,-7.0547,-7.0457,-7.0572,-7.0495,-7.0457,-7.0572,0.0,-7.0419,-7.0419,-7.0419,-7.0419,-7.0419,-7.0419,-7.0419,-7.0419,-7.0419,-7.0419,-7.0419,-6.9769,-6.9349,-6.9349,-6.9349,-6.9693,-7.0381,-7.0419,-7.0419,-7.0419,-7.0055,-6.9623,-6.9091,-6.9091,-6.8633,-6.7724,-6.8641,-6.9366,-6.9921,-7.0872,-7.1553,-7.1988,-7.1988,-7.1988,-7.1994,-7.1872,-7.1816,-7.1786,-7.1625,-7.1526,-7.1494,0.0,0.0,0.0,0.0,0.0,0.0,0.0,0.0,0.0,0.0,-7.0247,-6.9783,0.0,0.0,0.0,0.0,0.0,0.0,0.0,0.0,0.0,-7.0866,-7.0866,-7.0866,-7.0866,-7.0866,-7.0866,-7.0866,-7.1021,-7.1059,-7.1059,-7.1257,-7.1407,-7.1489,-7.1544,-7.1608,-7.1729,-7.1805,-7.183,-7.1836,-7.1978,-7.1997,-7.1987,-7.1987,0.0,0.0,-7.1987,-7.1987,-7.1987,-7.1987,-7.1987,-7.1987,-7.1987,-7.1909,-7.1792,-7.1948,-7.187,-7.1792,-7.1948,-7.1987,-7.1933,-7.177,-7.1601,-7.1439,-7.1268,-7.0953,0.0,-7.0723,-7.0547,-7.061,-7.1336,-7.0877,-7.0648,-7.1374,-7.0877,-7.0419,-7.0419,-7.0419,-7.0419,0.0,-7.0419,-7.0419,-7.0419,-7.0419,0.0,0.0,-7.0266,-7.019,-7.019,-7.019,-7.0266,-7.0419,-7.0419,-7.0419,-7.0419,-7.0315,-6.9909,-6.9091,-6.9091,-6.8633,-6.7724,-6.9229,-6.9879,-6.9958,-7.1458,-7.2064,-7.2024,-7.1988,-7.1988,-7.1988,-7.1957,-7.1903,-7.1816,-7.1786,-7.1656,-7.1494,0.0,0.0,0.0,0.0,0.0,0.0,0.0,-7.1291,-7.1291,-7.1291,-7.0943,-7.0672,-7.0672,-7.1059,-7.1291,0.0,0.0,0.0,0.0,0.0,0.0,0.0,-7.1291,-7.1291,-7.1291,-7.1291,-7.1291,-7.1291,0.0,-7.1291,-7.1291,-7.1291,-7.1317,-7.1417,-7.1478,-7.1536,-7.1595,-7.1732,-7.1817,-7.1827,-7.1949,-7.2008,-7.1997,0.0,0.0,0.0,0.0,0.0,-7.1987,-7.1987,-7.1987,-7.1987,-7.1987,-7.1987,-7.1987,-7.1987,-7.1987,-7.1987,-7.1987,-7.1987,-7.1982,-7.1866,-7.1744,-7.1566,-7.1395,0.0,0.0,0.0,-7.1197,-7.1336,-7.2215,-7.2024,0.0,-7.1718,-7.1336,-7.0916,-7.0457,-7.0419,-7.0419,-7.0419,-7.0419,-7.0419,-7.0419,-7.0419,-7.0419,-7.0419,-7.0419,-7.0419,-7.0419,-7.0419,-7.0419,-7.0419,-7.0419,-7.0419,-7.0419,-7.0419,-7.0109,-6.9446,-6.9446,-6.8959,-6.8132,-6.9732,-7.0283,-7.0071,-7.1684,-7.2351,-7.2263,-7.2263,-7.2263,-7.2226,-7.2048,-7.1957,-7.1903,-7.1718,-7.1593,-7.1494,0.0,0.0,0.0,0.0,0.0,0.0,0.0,-7.1291,-7.1291,-7.1291,-7.1291,-7.1291,-7.1291,-7.1291,-7.1291,0.0,0.0,0.0,0.0,0.0,0.0,0.0,0.0,0.0,0.0,0.0,0.0,-7.1291,-7.1291,0.0,0.0,0.0,0.0,0.0,-7.146,-7.1505,-7.1559,-7.1714,-7.1809,0.0,0.0,-7.2014,0.0,0.0,0.0,0.0,0.0,0.0,-7.1987,0.0,-7.1987,-7.1987,-7.1987,-7.1987,-7.1987,-7.1987,-7.1987,-7.1987,-7.1987,-7.1987,-7.1987,-7.1987,-7.1854,-7.1677,-7.1566,-7.1416,0.0,-7.1852,-7.1988,-7.2248,-7.3093,-7.3132,-7.2826,0.0,-7.1909,-7.145,-7.0763,-7.0533,-7.0419,0.0,-7.0419,0.0,-7.0419,-7.0419,0.0,-7.0419,-7.0419,-7.0419,-7.0419,-7.0419,-7.0419,-7.0419,-7.0419,-7.0419,-7.0419,-7.0419,-7.0196,-6.9816,-6.9816,-6.9416,-6.8729,-7.0152,-7.065,-7.044,-7.1872,-7.2496,-7.2496,-7.2496,-7.2496,-7.2467,-7.2197,-7.2078,-7.2018,-7.1744,-7.162,-7.1589,0.0,0.0,0.0,0.0,0.0,0.0,0.0,-7.1291,-7.1291,-7.1291,-7.1291,-7.1291,-7.1291,-7.1291,-7.1291,0.0,0.0,0.0,0.0,0.0,0.0,0.0,0.0,0.0,0.0,0.0,0.0,-7.1291,-7.1291,0.0,0.0,0.0,0.0,0.0,0.0,-7.1566,-7.1694,-7.1764,0.0,0.0,0.0,0.0,0.0,0.0,0.0,0.0,0.0,-7.1987,0.0,0.0,0.0,-7.1987,-7.1987,-7.1987,-7.1987,-7.1987,0.0,0.0,-7.1987,-7.1987,-7.1987,-7.1987,-7.1854,-7.17,-7.1689,0.0,-7.217,-7.2161,-7.2606,-7.3194,-7.3951,-7.3476,-7.3208,-7.3858,-7.2673,-7.168,-7.1565,-7.0916,-7.0419,-7.0419,0.0,0.0,-7.0419,-7.0419,-7.0419,-7.0419,-7.0419,-7.0419,-7.0419,-7.0419,-7.0419,-7.0419,-7.0419,-7.0419,-7.0419,-7.0419,-7.0196,-6.9816,-6.9816,-6.9696,-6.9521,-7.0412,-7.0919,-7.1248,-7.2129,-7.2496,-7.2496,-7.2496,-7.2496,-7.2496,-7.2467,-7.238,-7.2299,-7.224,-7.2114,-7.1957,0.0,0.0,0.0,0.0,0.0,0.0,-7.1291,-7.1291,-7.1291,-7.1291,-7.1291,-7.1291,-7.1291,-7.1291,-7.1291,-7.1291,0.0,0.0,0.0,0.0,0.0,0.0,0.0,0.0,0.0,0.0,-7.1291,-7.1291,-7.1291,0.0,0.0,0.0,0.0,0.0,0.0,-7.1556,-7.1711,-7.1774,0.0,0.0,0.0,0.0,0.0,0.0,0.0,0.0,0.0,0.0,-7.1987,0.0,0.0,0.0,-7.1987,-7.1987,0.0,0.0,-7.1987,-7.1987,-7.1987,-7.1987,-7.1987,-7.1987,-7.193,-7.1854,-7.1716,0.0,-7.2594,-7.2966,-7.351,-7.4107,-7.4898,-7.4733,-7.4431,-7.424,-7.3628,-7.2864,-7.1833,-7.1412,-7.0992,-7.0457,-7.0419,0.0,0.0,0.0,-7.0419,-7.0419,-7.0419,-7.0419,-7.0419,-7.0419,-7.0419,-7.0419,-7.0419,-7.0419,-7.0419,-7.0419,-7.0298,-7.0161,-7.0161,-7.0252,-7.046,-7.0975,-7.1405,-7.1743,-7.2271,-7.2496,-7.2496,-7.2496,-7.2496,-7.2496,-7.238,-7.2358,-7.2299,-7.2174,-7.2048,-7.1988,0.0,0.0,0.0,0.0,0.0,-7.1291,-7.1291,-7.1291,-7.1291,-7.1291,-7.1291,-7.1291,-7.1291,-7.1291,-7.1291,-7.1291,-7.1291,0.0,0.0,0.0,0.0,0.0,0.0,0.0,0.0,0.0,-7.1291,-7.1291,-7.1291,-7.1291,0.0,0.0,-7.1426,-7.1573,0.0,0.0,0.0,0.0,0.0,0.0,0.0,0.0,0.0,0.0,0.0,0.0,0.0,0.0,0.0,0.0,0.0,0.0,0.0,-7.1987,-7.1987,0.0,-7.1987,-7.1987,-7.1987,-7.1987,-7.1987,-7.1987,-7.1987,-7.2015,0.0,0.0,-7.32,-7.3878,-7.4469,-7.5015,-7.5485,-7.5549,-7.5306,-7.4698,-7.4393,-7.3781,-7.2597,-7.2024,0.0,0.0,0.0,-7.0419,-7.0419,-7.0419,-7.0419,-7.0419,-7.0419,-7.0419,-7.0419,-7.0419,-7.0419,-7.0419,-7.0419,-7.0419,-7.0419,-7.0419,-7.0419,-7.0419,-7.0648,-7.0926,-7.1151,-7.1642,-7.196,-7.2156,-7.2372,-7.2496,-7.2496,-7.2496,-7.2496,-7.2467,-7.2416,-7.2387,-7.2321,-7.2204,-7.2137,-7.2137,0.0,0.0,0.0,0.0,0.0,0.0,-7.1291,-7.1291,-7.1291,-7.1291,-7.1291,-7.1291,-7.1291,-7.1291,-7.1291,-7.1291,-7.1291,0.0,0.0,0.0,0.0,0.0,0.0,0.0,0.0,0.0,-7.1291,-7.1291,-7.1291,-7.1291,-7.1291,-7.1394,-7.1512,-7.1697,0.0,0.0,0.0,0.0,0.0,0.0,0.0,0.0,0.0,0.0,0.0,0.0,0.0,0.0,0.0,0.0,0.0,0.0,0.0,-7.1987,-7.1987,-7.1987,-7.1987,-7.1987,-7.1987,-7.1987,-7.1987,-7.1987,-7.1987,-7.2221,0.0,0.0,-7.4205,-7.4935,-7.5517,-7.5833,-7.5633,-7.5599,-7.5566,-7.548,-7.4775,-7.4201,-7.4201,-7.275,0.0,0.0,0.0,-7.0419,-7.0419,-7.0419,-7.0419,-7.0419,-7.0419,-7.0419,-7.0419,-7.0419,-7.0419,-7.0419,-7.0419,-7.0419,-7.0419,-7.0419,-7.0419,-7.0419,-7.1259,-7.1617,-7.1524,-7.2312,-7.2621,-7.2496,-7.2496,-7.2496,-7.2496,-7.2496,-7.2496,-7.2496,-7.2496,-7.2496,-7.2496,-7.2496,-7.2496,-7.2496,0.0,0.0,0.0,0.0,0.0,0.0,0.0,-7.3071,-7.3071,-7.3071,-7.3071,-7.3071,-7.3071,-7.2568,-7.2181,-7.2181,-7.164,0.0,0.0,0.0,0.0,0.0,0.0,0.0,0.0,-7.1291,-7.1291,-7.1291,-7.1407,-7.1407,-7.1302,-7.152,-7.1647,-7.1707,-7.1738,-7.1869,0.0,0.0,0.0,0.0,0.0,0.0,-7.1987,0.0,0.0,0.0,0.0,0.0,0.0,0.0,0.0,0.0,0.0,0.0,0.0,-7.1987,-7.1987,-7.1987,-7.1987,-7.1987,-7.1987,-7.1987,-7.2456,-7.2963,-7.3236,-7.4241,-7.5104,-7.5211,-7.5658,-7.5961,-7.5708,-7.5633,-7.5566,-7.5518,-7.5271,-7.4889,0.0,0.0,0.0,-7.1756,-7.0916,-7.0419,0.0,-7.0419,-7.0419,-7.0419,-7.0419,-7.0419,-7.0419,-7.0419,-7.0419,-7.0419,-7.0419,-7.0419,-7.0419,-7.0419,-7.0419,-7.0419,-7.1259,-7.1802,-7.1999,-7.2469,-7.2819,-7.3044,-7.2667,-7.2496,-7.2496,-7.2496,-7.2496,-7.2496,-7.2496,-7.2496,-7.2496,-7.2496,-7.2496,-7.2496,0.0,0.0,0.0,0.0,0.0,0.0,0.0,-7.3883,-7.3883,-7.3883,-7.3883,-7.3883,-7.3883,-7.3419,-7.3109,-7.3109,-7.2607,0.0,0.0,0.0,0.0,0.0,0.0,0.0,-7.1291,-7.1291,-7.1334,-7.1378,-7.1469,-7.146,-7.1388,-7.1589,-7.1702,-7.1681,-7.177,-7.1914,0.0,0.0,0.0,0.0,0.0,0.0,-7.1987,0.0,0.0,0.0,0.0,0.0,0.0,0.0,0.0,0.0,0.0,0.0,0.0,0.0,-7.2221,-7.2417,-7.2104,-7.1987,-7.2065,-7.2417,-7.2885,-7.3471,-7.4095,0.0,-7.5651,-7.5828,-7.6041,-7.6109,-7.589,-7.5718,-7.5616,-7.5532,-7.5535,-7.531,0.0,0.0,0.0,-7.1833,0.0,0.0,-7.0419,-7.0419,-7.0419,-7.0419,-7.0419,-7.0419,-7.0419,-7.0419,-7.0419,-7.0419,-7.0419,-7.0419,-7.0419,-7.0419,-7.0572,-7.0916,-7.1756,-7.2278,-7.2411,-7.2958,-7.3118,-7.298,-7.2853,-7.2798,0.0,-7.2798,-7.2798,-7.277,-7.2582,-7.2496,-7.2496,-7.2496,-7.2496,-7.2496,0.0,0.0,0.0,0.0,0.0,0.0,0.0,-7.4077,-7.4077,-7.4077,-7.4077,-7.4077,-7.4077,-7.4038,-7.3999,-7.3999,0.0,0.0,0.0,0.0,0.0,0.0,0.0,0.0,-7.1369,-7.1369,-7.1435,-7.1503,-7.1489,-7.1497,-7.1489,-7.1643,-7.1671,-7.1632,-7.1823,-7.195,0.0,0.0,0.0,0.0,-7.1987,-7.1987,0.0,0.0,0.0,0.0,0.0,0.0,0.0,0.0,0.0,0.0,0.0,0.0,0.0,0.0,0.0,0.0,0.0,-7.2182,-7.2378,-7.3197,-7.3432,-7.39,-7.5462,-7.576,0.0,-7.6649,-7.6523,-7.6281,-7.612,-7.589,-7.566,-7.5616,-7.5532,-7.5518,0.0,-7.4736,0.0,0.0,-7.0992,-7.0495,-7.0419,-7.0419,-7.0419,-7.0419,-7.0419,-7.0419,-7.0419,-7.0419,-7.0419,-7.0419,-7.0419,-7.0419,-7.0419,-7.0457,-7.0916,-7.1735,-7.2635,-7.2966,-7.2793,-7.3642,-7.3529,-7.263,-7.3141,-7.335,-7.335,-7.335,-7.335,-7.3246,-7.2742,-7.2524,-7.2496,-7.2496,-7.2496,-7.2496,0.0,0.0,0.0,0.0,0.0,0.0,0.0,0.0,0.0,0.0,-7.5817,-7.5817,-7.5817,-7.5237,-7.4811,0.0,0.0,0.0,0.0,0.0,0.0,0.0,0.0,0.0,-7.2297,-7.2297,-7.1982,-7.1337,-7.1551,-7.1615,-7.1497,-7.1792,-7.1871,-7.1747,-7.1912,-7.1971,0.0,0.0,0.0,0.0,-7.1987,-7.1987,0.0,0.0,0.0,0.0,-7.1987,-7.1987,0.0,0.0,0.0,0.0,0.0,0.0,0.0,0.0,-7.3588,-7.4173,-7.3978,0.0,-7.3978,-7.4173,-7.472,-7.5305,0.0,-7.6308,-7.6747,0.0,0.0,0.0,-7.6157,-7.589,-7.566,-7.5616,-7.5532,-7.5518,-7.5518,-7.4736,0.0,-7.1909,-7.1527,-7.1145,-7.0457,-7.0419,-7.0419,-7.0419,-7.0419,-7.0419,-7.0419,-7.0419,-7.0419,-7.0419,-7.0419,-7.0419,-7.0419,-7.1068,-7.1489,-7.1735,-7.3208,-7.3724,-7.3347,-7.4161,-7.4199,-7.3652,-7.3774,-7.3845,-7.3845,-7.3845,-7.3603,-7.3298,-7.3167,-7.2853,-7.2496,-7.2496,-7.2496,-7.2496,0.0,0.0,0.0,0.0,0.0,0.0,0.0,0.0,0.0,0.0,0.0,-7.6397,-7.6397,-7.5972,0.0,0.0,0.0,0.0,0.0,0.0,0.0,0.0,0.0,-7.369,-7.3226,-7.3187,-7.2971,-7.2521,-7.2744,-7.259,-7.2153,-7.2453,-7.2302,-7.1795,-7.1941,-7.1995,-7.1987,-7.1987,-7.1987,-7.1987,-7.1987,0.0,0.0,0.0,0.0,0.0,-7.1987,-7.1987,0.0,-7.1987,-7.226,-7.2612,0.0,0.0,0.0,0.0,-7.4447,-7.511,-7.511,-7.4798,-7.4603,-7.4993,-7.5462,-7.5894,-7.632,-7.675,0.0,0.0,0.0,0.0,0.0,-7.6029,-7.5779,-7.5731,-7.5616,0.0,0.0,0.0,-7.3947,-7.2941,-7.2176,-7.1489,-7.103,-7.0648,-7.0419,-7.0419,-7.0419,-7.0419,-7.0419,-7.0419,-7.0419,-7.0419,-7.0801,-7.0992,-7.0992,-7.145,-7.21,-7.2864,-7.3781,-7.4141,-7.4061,-7.4516,-7.4438,-7.4033,-7.4221,-7.4309,-7.4287,-7.4101,-7.3845,-7.3591,-7.3114,-7.2742,-7.2496,-7.2496,-7.2496,-7.2496,0.0,0.0,0.0,0.0,0.0,0.0,0.0,0.0,0.0,0.0,0.0,0.0,0.0,0.0,0.0,0.0,0.0,0.0,0.0,0.0,0.0,0.0,-7.427,-7.4231,-7.4077,-7.4088,-7.4069,-7.4002,-7.4119,-7.3856,-7.3115,-7.3398,-7.2959,-7.2031,-7.201,-7.1987,-7.1987,-7.1987,-7.1987,-7.1987,-7.1987,0.0,0.0,0.0,0.0,0.0,0.0,0.0,0.0,-7.2143,-7.269,-7.3315,-7.3432,0.0,0.0,0.0,0.0,0.0,-7.6008,-7.5462,-7.5071,-7.5813,-7.6008,-7.6203,-7.6945,0.0,0.0,0.0,0.0,0.0,0.0,-7.6222,-7.5902,-7.5895,-7.5753,0.0,-7.5518,-7.4958,-7.4478,-7.424,-7.2941,-7.2024,-7.1909,-7.1221,-7.0801,-7.0801,-7.0801,-7.0801,-7.0801,-7.0801,-7.0801,-7.0801,-7.1527,-7.1947,-7.2062,-7.2062,-7.2788,-7.4201,-7.4316,-7.4559,-7.4805,-7.4805,-7.4602,-7.4259,-7.4644,-7.4766,-7.4685,-7.4265,-7.4033,-7.3821,-7.2953,-7.2582,-7.2496,-7.2496,-7.2496,-7.2496,0.0,0.0,0.0,0.0,0.0,0.0,0.0,0.0,0.0,0.0,0.0,0.0,0.0,0.0,0.0,0.0,0.0,0.0,0.0,0.0,0.0,-7.6011,-7.6011,-7.5662,-7.4928,-7.4973,-7.4668,-7.4013,-7.4191,-7.4203,-7.4105,-7.4296,-7.3918,-7.3054,-7.2305,-7.1987,-7.1987,-7.1987,-7.1987,-7.1987,-7.1987,0.0,0.0,0.0,0.0,0.0,0.0,0.0,0.0,-7.2846,-7.3197,-7.3432,-7.4095,0.0,0.0,0.0,0.0,0.0,-7.6906,-7.6789,-7.6711,-7.6867,-7.6906,-7.6945,-7.7062,-7.7101,0.0,0.0,0.0,0.0,0.0,-7.6322,-7.6043,-7.594,-7.5753,-7.5566,-7.5518,-7.5403,-7.5059,-7.4278,-7.3972,-7.3552,-7.2864,-7.2673,-7.2597,-7.2597,-7.2597,-7.2597,-7.2597,-7.2597,-7.2597,-7.2597,-7.2711,-7.3132,-7.3819,-7.3819,-7.3972,-7.4201,-7.4966,-7.533,-7.5392,-7.5392,-7.5356,-7.5263,-7.5356,-7.5114,-7.4705,-7.4644,-7.4109,-7.3364,-7.3246,-7.2908,-7.2496,-7.2496,-7.2496,-7.2496,0.0,0.0,0.0,0.0,0.0,0.0,0.0,0.0,0.0,0.0,0.0,0.0,0.0,0.0,0.0,0.0,0.0,0.0,0.0,0.0,-7.6397,-7.6397,-7.6432,-7.625,-7.5863,-7.5885,-7.5749,-7.5465,-7.5574,-7.5449,-7.5056,-7.472,-7.4335,-7.39,-7.308,-7.269,-7.2651,-7.2182,-7.1987,-7.1987,0.0,0.0,0.0,0.0,0.0,0.0,0.0,0.0,0.0,0.0,-7.4251,-7.472,-7.5071,0.0,0.0,0.0,0.0,0.0,-7.7101,-7.7101,-7.7101,-7.7101,-7.7101,-7.7101,-7.7101,-7.7101,-7.7101,-7.7101,0.0,0.0,0.0,0.0,-7.6122,-7.5856,-7.5715,-7.5633,-7.5497,-7.5514,-7.54,-7.4927,-7.4507,-7.4049,-7.3667,-7.3246,-7.2979,-7.2979,-7.2979,-7.2979,-7.2979,-7.2979,-7.2979,-7.2979,-7.3437,-7.3819,-7.4201,-7.466,-7.4889,-7.4889,-7.531,-7.5518,-7.5518,-7.5518,-7.5518,-7.5518,-7.5518,-7.5208,-7.4685,-7.4417,-7.394,-7.3272,-7.299,-7.2714,-7.2496,-7.2496,-7.2496,-7.2496,0.0,0.0,0.0,0.0,0.0,0.0,0.0,0.0,0.0,0.0,0.0,0.0,0.0,0.0,0.0,0.0,0.0,0.0,0.0,-7.6397,-7.6409,-7.6421,-7.6466,-7.6488,-7.6488,-7.651,-7.6614,-7.6713,-7.679,-7.6534,-7.6015,-7.5173,-7.4798,-7.4759,-7.3939,-7.3471,-7.3275,-7.2573,-7.2182,-7.1987,0.0,0.0,0.0,0.0,0.0,0.0,0.0,0.0,0.0,0.0,0.0,0.0,0.0,0.0,0.0,-7.7101,-7.7101,-7.7101,-7.7101,-7.7101,-7.7101,-7.7101,-7.7101,-7.7101,-7.7101,-7.7101,-7.7101,-7.7101,-7.6977,0.0,0.0,-7.6428,-7.6135,-7.5772,-7.5676,-7.5649,-7.5535,-7.5532,-7.5549,-7.5518,-7.4889,-7.4507,-7.4507,-7.3934,-7.359,-7.359,-7.359,-7.359,-7.359,-7.359,-7.359,-7.359,-7.4163,-7.4507,-7.4507,-7.5157,-7.5518,-7.5518,-7.5518,-7.5518,-7.5518,-7.5518,-7.5518,-7.5518,-7.5518,-7.5208,-7.4685,-7.4177,-7.3725,-7.3246,-7.2686,-7.2496,-7.2496,-7.2496,-7.2496,-7.2496,0.0,0.0,0.0,0.0,0.0,0.0,0.0,0.0,0.0,0.0,0.0,0.0,0.0,0.0,0.0,0.0,0.0,0.0,0.0,-7.6397,-7.6421,-7.6477,-7.6477,-7.6488,-7.6488,-7.6632,-7.6704,-7.6794,-7.6856,-7.6947,-7.6993,-7.6128,-7.5699,-7.566,-7.4798,-7.4017,-7.3312,-7.3236,-7.2729,-7.1987,-7.1987,0.0,0.0,0.0,0.0,0.0,0.0,0.0,0.0,0.0,0.0,0.0,0.0,0.0,-7.7101,-7.7101,-7.7101,-7.7101,-7.7101,-7.7101,-7.7101,-7.7101,-7.7101,-7.7101,-7.7101,-7.7101,-7.7101,-7.7101,-7.7098,-7.7032,-7.681,-7.6419,-7.6044,-7.5772,-7.5666,-7.5583,-7.5518,-7.5518,-7.5518,-7.5518,-7.5442,-7.5386,-7.5386,-7.5365,-7.5327,-7.5327,-7.5327,-7.5327,-7.5327,-7.5327,-7.5327,-7.5327,-7.5386,-7.5386,-7.5386,-7.5462,-7.5518,-7.5518,-7.5518,-7.5518,-7.5518,-7.5518,-7.5518,-7.5518,-7.5518,-7.5208,-7.4685,-7.4177,-7.3725,-7.3246,-7.2686,-7.2496,-7.2496,-7.2496,-7.2496,-7.2496,0.0,0.0,0.0,0.0,0.0,0.0,0.0,0.0,0.0,0.0,0.0,0.0,0.0,0.0,0.0,0.0,0.0,0.0,0.0,-7.6432,-7.6466,-7.6488,-7.6591,-7.6652,-7.6699,-7.6699,-7.6739,-7.6852,-7.6987,-7.7058,-7.7101,-7.675,-7.6594,-7.6555,-7.5696,-7.5149,-7.4837,-7.429,-7.3861,-7.3549,-7.3549,-7.3549,0.0,0.0,0.0,0.0,0.0,0.0,0.0,0.0,-7.6594,-7.6672,-7.6984,-7.7101,-7.7101,-7.7101,-7.7101,-7.7101,-7.7101,-7.7101,-7.7101,-7.7101,-7.7101,-7.7101,-7.7101,-7.7101,-7.7101,-7.7101,-7.7101,-7.7024,-7.6721,-7.63,-7.5923,-7.5724,-7.5649,-7.5566,-7.5518,-7.5518,-7.5518,-7.5518,-7.5518,-7.5518,-7.5518,-7.5518,-7.5518,-7.5518,-7.5518,-7.5518,-7.5518,-7.5518,-7.5518,-7.5518,-7.5518,-7.5518,-7.5518,-7.5518,-7.5518,-7.5518,-7.5518,-7.5518,-7.5518,-7.5518,-7.5518,-7.5518,-7.5518,-7.5208,-7.4685,-7.4177,-7.3725,-7.3246,-7.2686,-7.2496,-7.2496,-7.2496,-7.2496,-7.2496,0.0,0.0,0.0,0.0,0.0,0.0,0.0,0.0,0.0,0.0,0.0,0.0,0.0,0.0,0.0,0.0,0.0,0.0,-7.6432,-7.6466,-7.6499,-7.6581,-7.6652,-7.6713,-7.6807,-7.6747,-7.6813,-7.6931,-7.7022,-7.7101,-7.7101,-7.7101,-7.7101,-7.7062,-7.6477,-7.6047,-7.5777,-7.5149,-7.4759,-7.4486,-7.4486,-7.4486,0.0,0.0,0.0,0.0,0.0,0.0,0.0,0.0,-7.7101,-7.7101,-7.7101,-7.7101,-7.7101,-7.7101,-7.7101,-7.7101,-7.7101,-7.7101,-7.7101,-7.7101,-7.7101,-7.7101,-7.7101,-7.7101,-7.7101,-7.7101,-7.7101,-7.7016,-7.6638,-7.6289,-7.5985,-7.581,-7.5699,-7.5616,-7.5532,-7.5514,-7.5497,-7.5518,-7.5518,-7.5518,-7.5518,-7.5518,-7.5518,-7.5518,-7.5518,-7.5518,-7.5518,-7.5518,-7.5518,-7.5518,-7.5518,-7.5518,-7.5518,-7.5518,-7.5518,-7.5518,-7.5518,-7.5518,-7.5518,-7.5518,-7.5518,-7.5518,-7.5518,-7.5281,-7.4922,-7.4433,-7.3869,-7.3246,-7.2686,-7.2496,-7.2496,-7.2496,-7.2496,-7.2496,0.0,0.0,0.0,0.0,0.0,0.0,0.0,0.0,0.0,0.0,0.0,0.0,0.0,0.0,0.0,0.0,0.0,0.0,-7.6477,-7.6488,-7.6581,-7.6691,-7.6701,-7.673,-7.6799,-7.6804,-7.6868,-7.6992,-7.7087,-7.7101,-7.7101,-7.7101,-7.7101,-7.7101,-7.7101,-7.6633,-7.5816,-7.5816,-7.5305,-7.4525,-7.4525,-7.4525,-7.4603,0.0,0.0,0.0,0.0,0.0,0.0,0.0,-7.7101,-7.7101,-7.7101,-7.7101,-7.7101,-7.7101,-7.7101,-7.7101,-7.7101,-7.7101,-7.7101,-7.7101,-7.7101,-7.7101,-7.7101,-7.7101,-7.7101,-7.7101,-7.7101,-7.6977,-7.6646,-7.6496,-7.6278,-7.5962,-7.5794,-7.566,-7.5616,-7.5599,-7.5566,-7.5518,-7.5518,-7.5518,-7.5518,-7.5518,-7.5518,-7.5518,-7.5518,-7.5518,-7.5518,-7.5518,-7.5518,-7.5518,-7.5518,-7.5518,-7.5518,-7.5518,-7.5518,-7.5518,-7.5518,-7.5518,-7.5518,-7.5518,-7.5518,-7.5518,-7.5518,-7.5518,-7.5445,-7.4922,-7.4132,-7.3246,-7.2714,-7.2496,-7.2496,-7.2496,-7.2496,-7.2496,0.0,0.0,0.0,0.0,0.0,0.0,0.0,0.0,0.0,0.0,0.0,0.0,0.0,0.0,0.0,0.0,0.0,0.0,-7.6488,-7.6602,-7.6662,-7.6691,-7.669,-7.6715,-7.6799,-7.6897,-7.6945,-7.6992,-7.7087,-7.7101,-7.7101,-7.7101,-7.7101,-7.7101,-7.7101,-7.6945,-7.6711,-7.6711,-7.6555,-7.632,-7.632,-7.632,-7.636,0.0,0.0,0.0,0.0,0.0,0.0,0.0,0.0,0.0,-7.7101,-7.7101,-7.7101,-7.7101,-7.7101,-7.7101,-7.7101,-7.7101,-7.7101,-7.7101,-7.7101,-7.7101,-7.7101,-7.7101,0.0,-7.7101,-7.6926,-7.6767,-7.6741,-7.6379,-7.6083,-7.6056,-7.5938,-7.5763,-7.5616,-7.5599,-7.5566,-7.5518,-7.5518,-7.5518,-7.5518,-7.5518,-7.5518,-7.5518,-7.5518,-7.5518,-7.5518,-7.5518,-7.5518,-7.5518,-7.5518,-7.5518,-7.5518,-7.5518,-7.5518,-7.5518,-7.5518,-7.5518,-7.5518,-7.5518,-7.5518,-7.5518,-7.5518,-7.5518,-7.5445,-7.4922,-7.4331,-7.3774,-7.3628,-7.3554,-7.3504,-7.3193,-7.3061,-7.3091,0.0,0.0,0.0,0.0,0.0,0.0,0.0,0.0,0.0,0.0,-7.6397,-7.6397,0.0,0.0,0.0,0.0,0.0,0.0,0.0,-7.6662,-7.6701,-7.6681,-7.6708,-7.6762,-7.6829,-7.6938,-7.6991,-7.7023,-7.7078,-7.7101,-7.7101,-7.7101,-7.7101,-7.7101,-7.7101,-7.7101,-7.7101,-7.7101,-7.7101,-7.7101,-7.7101,-7.7101,-7.7101,0.0,0.0,0.0,0.0,0.0,0.0,0.0,0.0,0.0,-7.7101,-7.7101,-7.7101,-7.7101,-7.7101,-7.7101,-7.7101,-7.7101,-7.7101,-7.7101,-7.7101,-7.7101,-7.7101,-7.7101,-7.7092,-7.6985,-7.6877,-7.678,-7.6646,-7.6397,-7.6211,-7.6083,-7.5981,-7.5895,-7.5753,-7.5666,-7.5616,-7.5532,-7.5535,-7.5518,-7.5518,-7.5518,-7.5518,-7.5518,-7.5518,-7.5518,-7.5518,-7.5518,-7.5518,-7.5518,-7.5518,-7.5518,-7.5518,-7.5518,-7.5518,-7.5518,-7.5518,-7.5518,-7.5518,-7.5518,-7.5518,-7.5518,-7.5518,-7.5518,-7.5445,-7.4922,-7.4523,-7.4243,-7.4064,-7.3893,-7.3714,-7.3762,-7.3649,-7.3554,0.0,0.0,-7.779,-7.7713,0.0,0.0,0.0,0.0,0.0,0.0,-7.6397,-7.6409,0.0,0.0,0.0,0.0,0.0,0.0,0.0,-7.6701,-7.6681,-7.6678,-7.6687,-7.676,-7.6894,-7.6944,-7.7028,-7.711,-7.7104,-7.7101,-7.7101,-7.7101,-7.7101,-7.7101,-7.7101,-7.7101,-7.7101,-7.7101,-7.7101,-7.7101,-7.7101,-7.7101,-7.7101,-7.7101,0.0,0.0,0.0,0.0,0.0,0.0,0.0,0.0,-7.7101,-7.7101,-7.7101,-7.7101,-7.7101,-7.7101,-7.7101,-7.7101,-7.7101,-7.7101,-7.7101,-7.7101,-7.7101,-7.7101,-7.7043,-7.6882,-7.6969,-7.6902,-7.6428,-7.6487,-7.6467,-7.6104,-7.5991,-7.5985,-7.5895,-7.5779,-7.566,-7.5599,-7.5553,-7.5518,-7.5518,-7.5518,-7.5518,-7.5518,-7.5518,-7.5518,-7.5518,-7.5518,-7.5518,-7.5518,-7.5518,-7.5518,-7.5518,-7.5518,-7.5518,-7.5518,-7.5518,-7.5518,-7.5518,-7.5518,-7.5518,-7.5518,-7.5518,-7.5518,-7.5445,-7.4961,-7.4766,-7.4725,-7.4325,-7.3883,-7.3639,-7.4331,-7.4265,-7.4015,0.0,0.0,-7.8486,-7.7829,0.0,0.0,0.0,0.0,0.0,0.0,0.0,0.0,0.0,0.0,0.0,0.0,0.0,0.0,0.0,-7.669,-7.6708,-7.6678,-7.6687,-7.6747,-7.6838,-7.6894,-7.6943,-7.7029,-7.7083,-7.7101,-7.7101,-7.7101,-7.7101,-7.7101,-7.7101,-7.7101,-7.7101,-7.7101,-7.7101,-7.7101,-7.7101,-7.7101,-7.7101,-7.7101,-7.7101,0.0,0.0,0.0,0.0,0.0,0.0,0.0,-7.7101,-7.7101,-7.7101,-7.7101,-7.7101,-7.7101,-7.7101,-7.7101,-7.7101,-7.7101,-7.7101,-7.7101,-7.7101,-7.7101,-7.7098,-7.7043,-7.6921,-7.6816,-7.6696,-7.6525,-7.6327,-7.626,-7.6093,-7.5932,-7.5779,-7.5708,-7.5682,-7.5553,-7.5518,-7.5518,-7.5518,-7.5518,-7.5518,-7.5518,-7.5518,-7.5518,-7.5518,-7.5518,-7.5518,-7.5518,-7.5518,-7.5518,-7.5518,-7.5518,-7.5518,-7.5518,-7.5518,-7.5518,-7.5518,-7.5518,-7.5518,-7.5518,-7.5518,-7.5518,-7.5501,-7.5392,-7.5318,-7.53,-7.5226,-7.5261,-7.5328,-7.5126,-7.5119,-7.5329,0.0,0.0,0.0,0.0,0.0,0.0,0.0,0.0,0.0,0.0,0.0,0.0,0.0,0.0,0.0,0.0,-7.6682,0.0,0.0,0.0,-7.6687,-7.6687,-7.6687,-7.6762,-7.6839,-7.6887,-7.694,-7.706,-7.7076,-7.7101,-7.7101,-7.7101,-7.7101,-7.7101,-7.7101,-7.7101,-7.7101,-7.7101,-7.7101,-7.7101,-7.7101,-7.7101,-7.7101,-7.7101,-7.7101,-7.7101,-7.7101,0.0,0.0,0.0,0.0,0.0,0.0,0.0,-7.7101,-7.7101,-7.7101,-7.7101,-7.7101,0.0,0.0,-7.7101,0.0,-7.7101,-7.7101,-7.7101,-7.7101,-7.7101,-7.7032,-7.6877,-7.6629,-7.6497,-7.6383,-7.6173,-7.6076,-7.5932,-7.581,-7.5763,-7.5644,-7.5549,-7.5535,-7.5518,-7.5518,-7.5518,-7.5518,-7.5518,-7.5518,-7.5518,-7.5518,-7.5518,-7.5518,-7.5518,-7.5518,-7.5518,-7.5518,-7.5518,-7.5518,-7.5518,-7.5518,-7.5518,-7.5518,-7.5518,-7.5518,-7.5518,-7.5518,-7.5518,-7.5518,-7.5518,-7.5518,-7.5521,-7.5627,-7.5618,-7.56,-7.5894,-7.5952,-7.5953,0.0,0.0,0.0,0.0,0.0,0.0,0.0,0.0,0.0,0.0,0.0,0.0,0.0,0.0,-7.6652,0.0,0.0,0.0,0.0,0.0,0.0,-7.6687,-7.6687,-7.6752,-7.6883,-7.69,-7.6945,-7.7076,-7.7107,-7.7101,-7.7101,-7.7101,-7.7101,-7.7101,-7.7101,-7.7101,-7.7101,-7.7101,-7.7101,-7.7101,-7.7101,-7.7101,-7.7101,-7.7101,-7.7101,-7.7101,-7.7101,-7.7101,-7.7101,-7.7101,0.0,0.0,0.0,0.0,-7.7101,-7.7101,-7.7101,-7.7101,-7.7101,0.0,-7.7101,-7.7101,-7.7101,0.0,-7.7101,-7.7101,-7.7098,-7.7046,-7.7043,-7.6892,-7.6418,-7.6467,-7.6436,-7.6062,-7.6015,-7.5985,-7.5895,-7.5794,-7.5715,-7.5616,-7.5532,-7.5535,-7.5518,-7.5518,-7.5518,-7.5518,-7.5518,-7.5518,-7.5518,-7.5518,-7.5518,-7.5518,-7.5518,-7.5518,-7.5518,-7.5518,-7.5518,-7.5518,-7.5518,-7.5518,-7.5518,-7.5518,-7.5518,-7.5518,-7.5518,-7.5518,-7.5518,-7.5518,-7.5594,-7.5733,-7.5832,-7.5787,-7.5716,-7.658,-7.6659,-7.6423,0.0,0.0,0.0,0.0,0.0,0.0,0.0,0.0,0.0,0.0,-7.6602,-7.6622,0.0,0.0,0.0,-7.6708,-7.6717,0.0,0.0,0.0,0.0,-7.6687,-7.6687,-7.6739,-7.6822,-7.6872,-7.6935,-7.6991,-7.7085,-7.7101,-7.7101,-7.7101,-7.7101,-7.7101,-7.7101,-7.7101,-7.7101,-7.7101,-7.7101,-7.7101,-7.7101,-7.7101,-7.7101,-7.7101,-7.7101,-7.7101,-7.7101,-7.7101,-7.7101,-7.7101,-7.7101,0.0,0.0,0.0,-7.7101,-7.7101,-7.7101,-7.7101,0.0,0.0,-7.7101,0.0,-7.7101,-7.7101,0.0,0.0,-7.7046,0.0,-7.6827,-7.678,-7.6579,-7.6447,-7.6285,-7.6034,-7.6015,-7.5985,-7.5895,-7.5879,-7.5817,-7.5616,-7.5583,-7.5549,-7.5518,-7.5518,-7.5518,-7.5518,-7.5518,-7.5518,-7.5518,-7.5518,-7.5518,-7.5518,-7.5518,-7.5518,-7.5518,-7.5518,-7.5518,-7.5518,-7.5518,-7.5518,-7.5518,-7.5518,-7.5518,-7.5518,-7.5518,-7.5518,-7.5518,-7.5518,-7.5921,-7.6497,-7.606,-7.6504,-7.7329,-7.7016,-7.7,-7.7163,0.0,0.0,0.0,0.0,0.0,0.0,0.0,0.0,0.0,0.0,0.0,-7.6682,0.0,0.0,0.0,-7.6678,0.0,0.0,0.0,0.0,0.0,-7.6687,-7.6687,-7.6731,-7.6852,-7.6843,-7.6917,-7.7055,-7.706,-7.7052,-7.7101,-7.7101,-7.7101,-7.7101,-7.7101,-7.7101,-7.7101,-7.7101,-7.7101,-7.7101,-7.7101,-7.7101,-7.7101,-7.7101,-7.7101,-7.7101,-7.7101,-7.7101,-7.7101,-7.7101,-7.7101,-7.7101,-7.7101,0.0,0.0,0.0,-7.7101,-7.7101,-7.7101,-7.7101,-7.7101,0.0,-7.7101,-7.7101,-7.7101,-7.7101,-7.7043,-7.6827,-7.6741,-7.6638,-7.6438,-7.6361,-7.6236,-7.602,-7.6015,-7.5985,-7.5895,-7.5895,-7.5833,-7.5616,-7.5599,-7.5566,-7.5518,-7.5518,-7.5518,-7.5518,-7.5518,-7.5518,-7.5518,-7.5518,-7.5518,-7.5518,-7.5518,-7.5518,-7.5518,-7.5518,-7.5518,-7.5518,-7.5518,-7.5518,-7.5518,-7.5518,-7.5518,-7.5518,-7.5518,-7.5518,-7.5556,-7.5997,-7.6215,-7.6292,-7.6743,-7.7027,-7.7244,-7.7151,-7.7186,-7.7273,0.0,0.0,0.0,0.0,0.0,0.0,0.0,0.0,0.0,0.0,0.0,0.0,0.0,0.0,0.0,0.0,-7.6687,0.0,0.0,0.0,0.0,0.0,-7.6687,-7.6745,-7.6876,-7.6848,-7.6897,-7.7083,-7.7028,-7.7026,-7.7101,-7.7101,-7.7101,-7.7101,-7.7101,-7.7101,-7.7101,-7.7101,-7.7101,-7.7101,-7.7101,-7.7101,-7.7101,-7.7101,-7.7101,-7.7101,-7.7101,-7.7101,-7.7101,-7.7101,-7.7101,-7.7101,-7.7101,-7.7101,0.0,0.0,0.0,-7.7101,0.0,0.0,-7.7101,-7.7101,-7.7101,-7.7095,0.0,0.0,-7.6965,0.0,-7.6596,-7.6477,-7.6273,-7.6224,-7.616,-7.602,-7.6015,-7.6,-7.5925,-7.5925,-7.5864,-7.5649,-7.5633,-7.5583,-7.5518,-7.5518,-7.5518,-7.5518,-7.5518,-7.5518,-7.5518,-7.5518,-7.5518,-7.5518,-7.5518,-7.5518,-7.5518,-7.5518,-7.5518,-7.5518,-7.5518,-7.5518,-7.5518,-7.5518,-7.5518,-7.5518,-7.5518,-7.5633,-7.5844,-7.6456,-7.6637,-7.663,-7.7406,-7.7527,-7.72,-7.7259,-7.7273,-7.7273,0.0,0.0,0.0,0.0,0.0,0.0,0.0,0.0,0.0,0.0,0.0,0.0,-7.6687,-7.6687,-7.6687,-7.6687,-7.6687,-7.6687,-7.6687,-7.6687,0.0,0.0,0.0,0.0,-7.681,-7.6804,-7.6868,-7.6992,-7.6992,-7.7026,-7.7101,-7.7101,-7.7101,-7.7101,-7.7101,-7.7101,-7.7101,-7.7101,-7.7101,-7.7101,-7.7101,-7.7101,-7.7101,-7.7101,-7.7101,-7.7101,-7.7101,-7.7101,-7.7101,-7.7101,-7.7101,-7.7101,-7.7101,-7.7101,-7.7101,0.0,0.0,0.0,0.0,-7.7101,0.0,-7.7101,0.0,0.0,0.0,0.0,-7.6741,-7.6376,-7.6316,-7.626,-7.6062,-7.6005,-7.5991,-7.6015,-7.6015,-7.6015,-7.6015,-7.6015,-7.5917,-7.5708,-7.5692,-7.5628,-7.5535,-7.5518,-7.5518,-7.5518,-7.5518,-7.5518,-7.5518,-7.5518,-7.5518,-7.5518,-7.5518,-7.5518,-7.5518,-7.5518,-7.5518,-7.5518,-7.5518,-7.5518,-7.5518,-7.5518,-7.5518,-7.5518,-7.5518,-7.5921,-7.6647,-7.6685,-7.736,-7.8317,-7.7857,-7.7826,-7.797,-7.748,-7.7273,-7.7273,0.0,0.0,0.0,0.0,0.0,0.0,0.0,0.0,0.0,0.0,0.0,0.0,0.0,-7.6687,-7.6687,-7.6687,-7.6687,-7.6687,-7.6687,-7.6687,0.0,0.0,0.0,0.0,-7.6864,-7.6804,-7.6894,-7.705,-7.7029,-7.7026,-7.7101,-7.7101,-7.7101,-7.7101,-7.7101,-7.7101,-7.7101,-7.7101,-7.7101,-7.7101,-7.7101,-7.7101,-7.7101,-7.7101,-7.7101,-7.7101,-7.7101,-7.7101,-7.7101,-7.7101,-7.7101,-7.7101,-7.7101,-7.7101,-7.7101,-7.7101,-7.7101,0.0,0.0,0.0,0.0,-7.7101,-7.7101,-7.7043,-7.6833,-7.6804,-7.6689,-7.6383,-7.6281,-7.6248,-7.6034,-7.6015,-7.6015,-7.6015,-7.6015,-7.6015,-7.6015,-7.6015,-7.5917,-7.5708,-7.5692,-7.5666,-7.5535,-7.5518,-7.5518,-7.5518,-7.5518,-7.5518,-7.5518,-7.5518,-7.5518,-7.5518,-7.5518,-7.573,-7.6265,-7.6265,-7.6532,-7.7105,-7.7105,-7.7105,-7.7105,-7.7105,-7.7105,-7.7105,-7.7105,-7.6953,-7.68,-7.7908,-7.823,-7.8041,-7.8363,-7.8102,-7.757,-7.7365,-7.7273,-7.7273,0.0,0.0,0.0,0.0,0.0,0.0,0.0,0.0,-7.7697,-7.6803,0.0,0.0,0.0,0.0,-7.6687,-7.6687,-7.6687,-7.6687,-7.6687,-7.6687,-7.6713,-7.6731,0.0,0.0,-7.7335,-7.7285,-7.7344,-7.7519,-7.7185,-7.7026,-7.7101,-7.7101,-7.7101,-7.7101,-7.7101,-7.7101,-7.7101,-7.7101,-7.7101,-7.7101,-7.7101,-7.7101,-7.7101,-7.7101,-7.7101,-7.7101,-7.7101,-7.7101,-7.7101,-7.7101,-7.7101,-7.7101,-7.7101,-7.7101,-7.7101,-7.7101,-7.7296,0.0,-7.7531,0.0,0.0,0.0,0.0,-7.7036,-7.678,0.0,-7.6646,-7.6258,-7.6186,-7.6173,-7.602,-7.6015,-7.6015,-7.6015,-7.6015,-7.6015,-7.6015,-7.6015,-7.5917,-7.5708,-7.5692,-7.5666,-7.5535,-7.5518,-7.5518,-7.5518,-7.5518,-7.5518,-7.5518,-7.5518,-7.5633,-7.5883,-7.5883,-7.6303,-7.7144,-7.7144,-7.7449,-7.8022,-7.8022,-7.8022,-7.8022,-7.8022,-7.8022,-7.8022,-7.8328,-7.8099,-7.764,-7.8825,-7.8832,-7.8153,-7.8703,-7.8255,-7.7273,-7.7273,-7.7273,-7.7273,0.0,0.0,-8.1775,-8.1775,0.0,0.0,0.0,0.0,-7.7658,-7.6803,0.0,0.0,0.0,0.0,0.0,-7.6687,-7.6687,-7.6687,-7.6687,-7.6696,-7.6731,-7.6838,0.0,0.0,-7.8239,-7.8239,-7.8262,-7.8281,-7.7461,-7.7064,-7.7101,-7.7101,-7.7101,-7.7101,-7.7101,-7.7101,-7.7101,-7.7101,-7.7101,-7.7101,-7.7101,-7.7101,-7.7101,-7.7101,-7.7101,-7.7101,-7.7101,-7.7101,-7.7101,-7.7101,-7.7101,-7.7101,-7.7101,-7.7101,-7.7101,-7.7101,-7.7726,0.0,0.0,0.0,0.0,0.0,0.0,0.0,-7.6684,0.0,-7.6497,-7.6066,-7.6015,-7.6015,-7.6015,-7.6015,-7.6015,-7.6015,-7.6015,-7.6015,-7.6015,-7.6015,-7.5917,-7.5708,-7.5692,-7.5666,-7.5535,-7.5518,-7.5518,-7.5518,-7.5518,-7.5518,-7.5518,-7.5501,-7.5883,-7.6685,-7.6723,-7.7144,-7.8022,-7.8061,-7.8061,-7.8061,-7.8061,-7.8061,-7.8061,-7.8061,-7.8061,-7.8137,-7.8978,-7.934,-7.934,-7.934,-7.9174,-7.8891,-7.8891,-7.8255,-7.7273,-7.7273,-7.7273,-7.7273,0.0,0.0,-8.1679,-8.1058,-8.0213,-7.9367,-7.8474,-7.7619,-7.6959,0.0,0.0,0.0,-7.6687,-7.6687,-7.6687,-7.6687,-7.6723,-7.6738,-7.6696,-7.6786,-7.7092,-7.7712,-7.8018,-7.8515,-7.9216,-7.9216,-7.8945,-7.8374,-7.8139,-7.7703,-7.7101,-7.7101,-7.7101,-7.7101,-7.7101,-7.7101,-7.7101,-7.7101,-7.7101,-7.7101,-7.7101,-7.7101,-7.7101,-7.7101,-7.7101,-7.7101,-7.7101,-7.7101,-7.7101,-7.7101,-7.7101,-7.7098,-7.7085,-7.7082,-7.7082,-7.7082,-7.7717,-7.838,-7.8233,0.0,0.0,0.0,0.0,0.0,-7.6604,-7.6383,-7.6293,-7.6062,-7.6015,-7.6015,-7.6015,-7.6015,-7.6015,-7.6015,-7.6015,-7.6015,-7.6015,-7.597,-7.5895,-7.5708,-7.5682,-7.5599,-7.5518,-7.5518,-7.5518,0.0,-7.5518,-7.5518,-7.5518,-7.6036,-7.6456,-7.6685,-7.7296,-7.8061,-7.8939,-7.8939,-7.9207,-7.9818,-7.9818,-7.9818,-7.9818,-7.9818,-7.9818,-7.9818,-8.0047,-8.0162,-8.0162,-8.0162,-7.9668,-7.8891,-7.8891,-7.8255,-7.7273,-7.7273,-7.7273,-7.7273,-8.1854,-8.1563,-8.1193,-8.0688,-7.9584,-7.8622,-7.8116,-7.7299,-7.6754,0.0,0.0,0.0,-7.6761,-7.6768,-7.6768,-7.6768,-7.6838,-7.6848,-7.6774,-7.6856,-7.7293,-7.8143,-7.8567,-7.9216,-8.0147,-8.0186,-7.9786,-7.8936,-7.8585,-7.796,-7.7101,-7.7101,-7.7101,-7.7101,-7.7101,-7.7101,-7.7101,-7.7101,-7.7101,-7.7101,-7.7101,-7.7101,-7.7101,-7.7101,-7.7101,-7.7101,-7.7101,-7.7101,-7.7101,-7.7092,-7.7089,-7.7089,-7.7117,-7.7117,-7.7085,-7.7114,-7.7653,-7.8339,-7.8672,-7.9115,0.0,-7.908,0.0,0.0,-7.6958,-7.6478,-7.6172,-7.5991,-7.597,-7.597,-7.6015,-7.6015,-7.6,-7.597,-7.597,-7.597,-7.597,-7.5895,-7.5779,-7.5682,-7.5633,-7.5566,-7.5518,-7.5518,-7.5518,-7.5518,-7.5518,-7.5653,-7.5959,-7.6456,-7.7029,-7.7755,-7.829,-7.8939,-7.978,-7.978,-8.0047,-8.0506,-8.0506,-8.0506,-8.0506,-8.0506,-8.0506,-8.0506,-8.0506,-8.0506,-8.0506,-8.0506,-7.9858,-7.8891,-7.8891,-7.8255,-7.7273,-7.7273,-7.7273,-7.7273,0.0,-8.1005,-8.0431,-8.0353,-7.9116,-7.8069,-7.7991,-7.7328,-7.6822,0.0,-7.6822,-7.6824,-7.69,-7.6906,-7.6906,-7.6906,-7.6912,-7.6912,-7.6906,-7.6917,-7.733,-7.8242,-7.914,-8.0031,-8.0969,-8.1083,-8.0732,-7.9834,-7.8975,-7.8116,-7.7257,-7.714,-7.7101,-7.7101,-7.7101,-7.7101,-7.7101,-7.7101,-7.7101,-7.7101,-7.7101,-7.7101,-7.7101,-7.7101,-7.7101,-7.7098,-7.7098,-7.7098,-7.7092,-7.7075,-7.7071,-7.7071,-7.7071,-7.7082,-7.7092,-7.7063,-7.756,0.0,-7.9188,0.0,0.0,-8.0085,-7.9001,0.0,-7.7279,-7.6636,-7.6031,-7.5917,-7.5895,-7.5925,-7.6,-7.6015,-7.5985,-7.591,-7.5895,-7.5879,-7.5879,-7.5763,-7.5644,-7.5599,-7.5583,-7.5549,-7.5518,-7.5518,-7.5518,-7.5518,-7.5594,-7.5997,-7.68,-7.6953,-7.7678,-7.9263,-7.9378,-7.978,-8.0506,-8.0506,-8.0506,-8.0506,-8.0506,-8.0506,-8.0506,-8.0506,-8.0506,-8.0506,-8.0506,-8.0506,-8.0506,-8.0506,-7.9858,-7.8891,-7.8891,-7.8255,-7.7273,-7.7273,-7.7273,-7.7273,-7.9877,-7.9801,-7.9505,-7.8807,-7.8394,-7.7937,-7.7235,-7.7004,-7.6887,-7.6887,-7.6887,-7.689,-7.6903,-7.6906,-7.6906,-7.6906,-7.6941,-7.6944,-7.6909,-7.6992,-7.7413,-7.8242,-7.9205,-8.008,-8.0966,-8.1708,-8.163,-8.0732,-7.9873,-7.9014,-7.8116,-7.7414,-7.7101,-7.7101,-7.7101,-7.7101,-7.7101,-7.7101,-7.7101,-7.7101,-7.7101,-7.7101,-7.7101,-7.7101,-7.7092,-7.7117,-7.7117,-7.7071,-7.7016,-7.7012,-7.7012,-7.7012,-7.7012,-7.7016,-7.7004,-7.6825,-7.7364,-7.7968,-7.7793,-7.8325,-7.8762,-7.7921,-7.7562,0.0,-7.624,-7.5979,-7.5932,-7.5895,-7.594,-7.6,-7.6015,-7.6015,-7.6015,-7.6,-7.5841,-7.5763,-7.5763,-7.5682,-7.5616,-7.5599,-7.5532,-7.5497,-7.5518,-7.5518,-7.5518,-7.5518,-7.6112,-7.6838,-7.7717,-7.8404,-7.8958,-7.9302,-7.9933,-8.0353,-8.0506,-8.0506,-8.0506,-8.0506,-8.0506,-8.0506,-8.0506,-8.0506,-8.0506,-8.0506,-8.0506,-8.0506,-8.0506,-8.0506,-7.9858,-7.8891,-7.8891,-7.8255,-7.7273,-7.7273,-7.7273,-7.7273,-7.9452,-7.9139,-7.8696,-7.8269,-7.7864,-7.7449,-7.7019,-7.6941,-7.6941,-7.6941,-7.6941,-7.6946,-7.6992,-7.6992,-7.6992,-7.6992,-7.7026,-7.7026,-7.6992,-7.7052,-7.7466,-7.8308,-7.8796,-7.9678,-8.0966,-8.1435,-8.1435,-8.1005,-8.0146,-7.9248,-7.839,-7.7492,-7.7101,-7.7101,-7.7101,-7.7101,-7.7101,-7.7092,-7.7092,-7.7101,-7.7101,-7.7101,-7.7101,-7.7092,-7.7082,-7.711,-7.7063,-7.7047,-7.699,-7.6999,-7.6999,-7.6985,-7.6985,-7.6995,-7.6995,-7.6882,-7.7003,-7.7252,-7.7573,-7.7802,-7.7921,-7.7805,-7.7453,0.0,0.0,-7.6005,-7.5769,-7.5769,-7.5763,-7.581,-7.5856,-7.5925,-7.6041,-7.637,-7.6399,-7.6465,-7.6803,-7.6446,-7.6297,-7.6755,-7.6759,-7.6761,-7.6761,-7.6761,-7.6761,-7.6761,-7.7105,-7.7717,-7.8596,-7.9054,-7.9474,-7.9895,-8.0277,-8.0506,-8.0506,-8.0506,-8.0506,-8.0506,-8.0506,-8.0506,-8.0506,-8.0506,-8.0506,-8.0506,-8.0506,-8.0506,-8.0506,-8.0506,-7.9858,-7.8891,-7.8891,-7.8255,-7.7273,-7.7273,-7.7273,-7.7273,-7.9028,-7.8449,-7.7989,-7.7989,-7.7459,-7.7029,-7.7029,-7.7029,-7.7029,-7.7029,-7.7029,-7.7023,-7.7107,-7.7101,-7.7101,-7.7101,-7.7101,-7.7101,-7.7101,-7.7101,-7.7414,-7.8116,-7.8311,-7.9053,-8.0459,-8.081,-8.0927,-8.0732,-8.0029,-7.9248,-7.839,-7.7492,-7.7101,-7.7101,-7.7101,-7.7101,-7.7101,-7.7085,-7.7085,-7.7095,-7.7095,-7.7098,-7.7098,-7.7082,-7.7071,-7.7063,-7.6999,-7.7014,-7.6999,-7.6985,-7.7019,-7.7004,-7.7004,-7.6965,-7.6926,-7.69,-7.6621,0.0,-7.7359,-7.7163,-7.6914,-7.7805,-7.7362,-7.6717,0.0,0.0,0.0,-7.5599,0.0,0.0,0.0,0.0,0.0,0.0,0.0,0.0,0.0,-7.7467,0.0,-7.7946,-7.8022,-7.8022,-7.8022,-7.8022,-7.8061,-7.8252,-7.8252,-7.8634,-7.9493,-7.9513,-7.9818,-8.0468,-8.0506,-8.0506,-8.0506,-8.0506,-8.0506,-8.0506,-8.0506,-8.0506,-8.0506,-8.0506,-8.0506,-8.0506,-8.0506,-8.0506,-8.0506,-8.0506,-7.9858,-7.8891,-7.8891,-7.8255,-7.7273,-7.7273,-7.7273,-7.7273,-7.7305,-7.726,-7.7237,-7.7237,-7.7154,-7.7073,-7.7073,-7.7073,-7.7073,-7.7073,-7.7073,-7.711,-7.7101,-7.7101,-7.7101,-7.7101,-7.7101,-7.7101,-7.7101,-7.7101,-7.714,-7.7257,-7.7999,-7.8507,-7.8702,-8.0224,-8.0615,-7.9834,-7.9756,-7.9248,-7.839,-7.7492,-7.7101,-7.7101,-7.7101,-7.7101,-7.7101,-7.7098,-7.7089,-7.7117,-7.7117,-7.7089,-7.7098,-7.7082,-7.7063,-7.7004,-7.6989,-7.7005,-7.7005,-7.7005,-7.6989,-7.7004,0.0,-7.6852,-7.663,-7.6669,0.0,0.0,0.0,0.0,-7.5706,-7.5834,-7.5761,-7.565,-7.565,0.0,-7.5599,-7.5599,0.0,0.0,0.0,0.0,0.0,0.0,0.0,0.0,-7.7113,-7.8153,-7.8748,-7.8099,-7.8022,-7.8022,-7.8022,-7.8022,-7.8328,-7.9092,-7.913,-7.9513,-8.0315,-8.0353,-8.0391,-8.0506,-8.0506,-8.0506,-8.0506,-8.0506,-8.0506,-8.0506,-8.0506,-8.0506,-8.0506,-8.0506,-8.0506,-8.0506,-8.0506,-8.0506,-8.0506,-8.0506,-7.9858,-7.8891,-7.8891,-7.8255,-7.7273,-7.7273,-7.7273,-7.7273,-7.7052,-7.7078,-7.7101,-7.7101,-7.7101,-7.7101,-7.7101,-7.7101,-7.7101,-7.7101,-7.7101,-7.7101,-7.7101,-7.7101,-7.7101,-7.7101,-7.7101,-7.7101,-7.7101,-7.7101,-7.7101,-7.7101,-7.7453,-7.7882,-7.839,-7.9131,-7.9561,-7.9717,-7.917,-7.8741,-7.839,-7.7492,-7.7101,-7.7101,-7.7101,-7.7095,-7.7085,-7.7085,-7.7082,-7.711,-7.7063,-7.7071,-7.7082,-7.7051,-7.7019,-7.6994,-7.7005,-7.6999,-7.6999,-7.6999,-7.7005,-7.6966,0.0,0.0,0.0,-7.6458,0.0,0.0,0.0,0.0,0.0,-7.5518,-7.5518,-7.5518,-7.5518,-7.5535,-7.5532,-7.5532,0.0,0.0,0.0,0.0,0.0,0.0,-7.8147,0.0,0.0,0.0,-7.9856,0.0,0.0,0.0,-7.9436,-7.9436,-7.9589,-7.9971,-8.0009,-8.0124,-8.0468,-8.0506,-8.0506,-8.0506,-8.0506,-8.0506,-8.0506,-8.0506,-8.0506,-8.0506,-8.0506,-8.0506,-8.0506,-8.0506,-8.0506,-8.0506,-8.0506,-8.0506,-8.0506,-8.0506,-7.9858,-7.8891,-7.8891,-7.8255,-7.7273,-7.7273,-7.7273,-7.7273,-7.7101,0.0,0.0,-7.7101,-7.7101,-7.7101,-7.7101,-7.7101,-7.7101,-7.7101,-7.7101,-7.7101,-7.7101,-7.7101,-7.7101,-7.7101,-7.7101,-7.7101,-7.7101,-7.7101,-7.7101,-7.7101,-7.7101,-7.7414,-7.8038,-7.8272,-7.8585,-7.8975,-7.8585,-7.8272,-7.8038,-7.7414,-7.7101,-7.7101,-7.7101,-7.7092,-7.7114,-7.7114,-7.7106,-7.7055,-7.7004,-7.7038,-7.7082,-7.7014,-7.6989,-7.6999,-7.6999,-7.6999,-7.6999,-7.6999,-7.6936,-7.6851,-7.6652,-7.6635,-7.6618,0.0,0.0,0.0,-7.5943,0.0,0.0,-7.5768,-7.5653,-7.5556,-7.5768,-7.5653,-7.5518,-7.5518,-7.5671,0.0,0.0,0.0,-7.7788,-7.8461,0.0,-7.9738,0.0,-8.02,0.0,0.0,0.0,0.0,0.0,-8.0506,-8.0506,-8.0506,-8.0506,-8.0506,-8.0506,-8.0506,-8.0506,-8.0506,-8.0506,-8.0506,-8.0506,-8.0506,-8.0506,-8.0506,-8.0506,-8.0506,-8.0506,-8.0506,-8.0506,-8.0506,-8.0506,-8.0506,-8.0506,-8.0506,-7.9858,-7.8891,-7.8891,-7.8255,-7.7273,-7.7273,-7.7273,-7.7273,-7.7101,-7.7101,0.0,-7.7101,-7.7101,-7.7101,-7.7101,-7.7101,-7.7101,-7.7101,-7.7101,-7.7101,-7.7101,-7.7101,-7.7101,-7.7101,-7.7101,-7.7101,-7.7101,-7.7101,-7.7101,-7.7101,-7.7101,-7.7101,-7.714,-7.796,-7.7999,-7.7179,-7.7999,-7.796,-7.714,-7.7101,-7.7101,-7.7101,-7.7101,-7.7092,-7.7114,-7.7114,-7.7051,-7.7009,-7.7004,-7.6989,-7.7005,-7.6994,-7.6989,-7.6999,-7.6999,-7.6999,-7.6999,-7.6999,-7.683,-7.6618,-7.6618,-7.6289,0.0,0.0,0.0,0.0,0.0,-7.5708,-7.5692,-7.6456,-7.6074,-7.5692,-7.6494,-7.6036,-7.5518,-7.5518,-7.6112,-7.6685,0.0,-7.8079,-7.869,-7.7029,-7.8863,0.0,0.0,0.0,0.0,0.0,0.0,0.0,0.0,-8.0506,-8.0506,-8.0506,-8.0506,-8.0506,-8.0506,-8.0506,-8.0506,-8.0506,-8.0506,-8.0506,-8.0506,-8.0506,-8.0506,-8.0506,-8.0506,-8.0506,-8.0506,-8.0506,-8.0506,-8.0506,-8.0506,-8.0506,-8.0506,-8.0506,-7.9858,-7.8891,-7.8891,-7.8255,-7.7273,-7.7273,-7.7273,-7.7273,-7.7101,0.0,-7.7101,-7.7101,-7.7101,-7.7101,-7.7101,-7.7101,-7.7101,-7.7101,-7.7101,-7.7101,-7.7101,-7.7101,-7.7101,-7.7101,-7.7101,-7.7101,-7.7101,-7.7101,-7.7101,-7.7101,-7.7101,-7.7101,-7.7101,-7.7375,-7.7414,-7.7101,-7.7414,-7.7375,-7.7101,-7.7101,-7.7101,-7.7101,-7.7101,-7.7085,-7.7055,-7.7067,-7.7051,-7.7004,-7.7004,-7.6989,-7.6999,-7.7011,-7.7005,-7.6999,-7.6999,-7.6999,-7.6987,-7.6816,-7.666,-7.6534,-7.6231,-7.6109,-7.6057,-7.5802,-7.5749,-7.5756,-7.5644,-7.5566,-7.5692,-7.6494,-7.6494,-7.6532,-7.7373,-7.7335,-7.7144,0.0,0.0,0.0,0.0,-7.8919,-7.9283,-7.9207,-7.9933,-8.0315,0.0,0.0,0.0,0.0,0.0,0.0,0.0,0.0,0.0,-8.0506,-8.0506,-8.0506,-8.0506,-8.0506,-8.0506,-8.0506,-8.0506,-8.0506,-8.0506,-8.0506,-8.0506,-8.0506,-8.0506,-8.0506,-8.0506,-8.0506,-8.0506,-8.0506,-8.0506,-8.0506,-8.0506,-8.0506,-7.9858,-7.8891,-7.8891,-7.8255,-7.7273,-7.7273,-7.7273,-7.7273,-7.7101,-7.7101,-7.7101,-7.7101,-7.7101,-7.7101,-7.7101,-7.7101,-7.7101,-7.7101,-7.7101,-7.7101,-7.7101,-7.7101,-7.7101,-7.7101,-7.7101,-7.7101,-7.7101,-7.7101,-7.7101,-7.7101,-7.7101,-7.7101,-7.7101,-7.7101,-7.7101,-7.7101,-7.7101,-7.7101,-7.7101,-7.7101,-7.7101,-7.7101,-7.7101,-7.7043,-7.7008,-7.7059,-7.7038,0.0,0.0,-7.7017,0.0,-7.6999,-7.6999,-7.6999,-7.6999,-7.6999,-7.6981,-7.6676,-7.6525,-7.6408,-7.6016,-7.5918,-7.588,-7.5578,-7.5633,-7.5724,-7.5532,-7.5518,-7.5768,-7.6876,-7.6914,-7.7029,-7.8175,-7.8213,-7.8022,0.0,0.0,0.0,0.0,0.0,-7.9895,-8.043,-8.0506,0.0,0.0,-8.0506,0.0,0.0,0.0,0.0,0.0,0.0,0.0,-8.0506,-8.0506,-8.0506,0.0,-8.0506,-8.0506,-8.0506,-8.0506,-8.0506,-8.0506,-8.0506,-8.0506,-8.0506,-8.0506,-8.0506,-8.0506,-8.0506,-8.0506,-8.0506,-8.0506,-8.0506,-8.0506,-8.0506,-7.9858,-7.8915,-7.9109,-7.8416,-7.7273,-7.7273,-7.7273,-7.7273,-7.7101,-7.7101,-7.7101,-7.7101,-7.7101,-7.7101,-7.7101,-7.7101,-7.7101,-7.7101,-7.7101,-7.7101,-7.7101,-7.7101,-7.7101,-7.7101,-7.7101,-7.7101,-7.7101,-7.7101,-7.7101,-7.7101,-7.7101,-7.7101,-7.7101,-7.7101,-7.7101,-7.7101,-7.7101,-7.7101,-7.7101,-7.7101,-7.7101,-7.7101,-7.7101,-7.7043,-7.7004,-7.7004,-7.7014,-7.6999,-7.6999,-7.6999,-7.6999,-7.6999,-7.6999,-7.6999,-7.6999,-7.6993,-7.693,-7.666,-7.639,-7.6144,-7.5933,-7.5708,-7.5518,-7.5518,-7.5518,-7.5518,-7.5518,-7.5518,-7.5883,-7.7564,-7.7373,-7.722,-7.8939,-7.871,-7.8137,0.0,0.0,0.0,0.0,0.0,0.0,0.0,0.0,0.0,0.0,0.0,-8.0506,0.0,0.0,0.0,0.0,0.0,-8.0506,-8.0506,-8.0506,0.0,0.0,-8.0506,-8.0506,-8.0506,-8.0506,-8.0506,-8.0506,-8.0506,-8.0506,-8.0506,-8.0506,-8.0506,-8.0506,-8.0506,-8.0506,-8.0506,-8.0506,-8.0506,-8.0506,-8.0506,-7.9878,-7.8989,-7.9494,-7.8716,-7.7335,-7.7304,-7.7273,-7.7273,-7.7101,-7.7101,-7.7101,-7.7101,-7.7101,-7.7101,-7.7101,-7.7101,-7.7101,-7.7101,-7.7101,-7.7101,-7.7101,-7.7101,-7.7101,-7.7101,-7.7101,-7.7101,-7.7101,-7.7101,-7.7101,-7.7101,-7.7101,-7.7101,-7.7101,-7.7101,-7.7101,-7.7101,-7.7101,-7.7101,-7.7101,-7.7101,-7.7101,-7.7101,-7.7101,-7.7043,-7.7004,-7.7004,-7.7014,-7.6999,-7.6999,-7.6999,-7.6999,-7.6999,-7.6999,-7.6999,-7.6999,-7.6858,-7.6652,-7.6379,-7.6171,-7.5918,-7.5676,-7.5549,-7.5518,-7.5518,-7.5518,-7.5518,-7.5518,-7.5518,-7.5883,-7.7564,-7.7831,-7.8099,-7.9818,-8.0009,-7.9856,-7.9856,-8.0047,-8.02,-8.02,-8.0353,-8.0506,0.0,0.0,0.0,0.0,0.0,0.0,-8.0506,0.0,0.0,0.0,0.0,-8.0506,-8.0506,-8.0506,0.0,0.0,0.0,-8.0506,-8.0506,-8.0506,-8.0506,-8.0506,-8.0506,-8.0506,-8.0506,-8.0506,-8.0506,-8.0506,-8.0506,-8.0506,-8.0506,-8.0506,-8.0506,-8.0506,-8.0506,-8.0081,-7.9494,-7.9665,-7.894,-7.7854,-7.7457,-7.7273,-7.7273,-7.7101,-7.7101,-7.7101,-7.7101,-7.7101,-7.7101,-7.7101,-7.7101,-7.7101,-7.7101,-7.7101,-7.7101,-7.7101,-7.7101,-7.7101,-7.7101,-7.7101,-7.7101,-7.7101,-7.7101,-7.7101,-7.7101,-7.7101,-7.7101,-7.7101,-7.7101,-7.7101,-7.7101,-7.7101,-7.7101,-7.7101,-7.7101,-7.7101,-7.7101,0.0,-7.7043,-7.7004,-7.698,-7.6994,-7.6999,-7.6999,-7.6999,0.0,-7.6999,-7.6923,-7.683,-7.683,-7.6739,-7.6534,-7.6207,-7.6002,-7.584,-7.5583,-7.5518,-7.5518,-7.5518,-7.5518,-7.5518,-7.5518,-7.5786,-7.6341,-7.7678,-7.829,-7.8901,-8.02,-8.0506,-8.0506,-8.0506,-8.0506,-8.0506,-8.0506,-8.0506,-8.0506,0.0,0.0,0.0,0.0,0.0,0.0,0.0,-8.0506,0.0,0.0,0.0,0.0,0.0,0.0,0.0,0.0,0.0,-8.0506,-8.0506,-8.0506,-8.0506,-8.0506,-8.0506,-8.0506,-8.0506,-8.0506,-8.0506,-8.0506,-8.0506,-8.0506,-8.0506,-8.0506,-8.0506,-8.0506,-8.0506,-8.0179,-7.9665,-7.9194,-7.8766,-7.8363,-7.7599,-7.7273,-7.7273,-7.7101,-7.7101,-7.7101,-7.7101,-7.7101,-7.7101,-7.7101,-7.7101,-7.7101,-7.7101,-7.7101,-7.7101,-7.7101,-7.7101,-7.7101,-7.7101,-7.7101,-7.7101,-7.7101,-7.7101,-7.7101,-7.7101,-7.7101,-7.7101,-7.7101,-7.7101,-7.7101,-7.7101,-7.7101,-7.7101,-7.7101,-7.7098,0.0,0.0,0.0,0.0,0.0,-7.6983,-7.6999,-7.6999,-7.6999,-7.6999,-7.6999,-7.6942,-7.6816,-7.6609,-7.6516,-7.6497,-7.6438,-7.6043,-7.587,-7.5818,-7.5566,-7.5518,-7.5518,-7.5518,-7.5518,-7.5518,-7.5518,-7.6074,-7.6914,-7.7793,-7.8672,-7.9531,-8.0315,-8.0506,-8.0506,-8.0506,-8.0506,-8.0506,-8.0506,-8.0506,0.0,0.0,0.0,0.0,-8.0506,0.0,0.0,0.0,0.0,0.0,0.0,0.0,0.0,0.0,0.0,0.0,0.0,0.0,-8.0506,-8.0506,-8.0506,-8.0506,-8.0506,-8.0506,-8.0506,-8.0506,-8.0506,-8.0506,-8.0506,-8.0506,-8.0506,-8.0506,-8.0506,-8.0506,-8.0506,-8.0506,-8.0219,-7.9708,-7.8766,-7.8614,-7.8791,-7.7846,-7.7426,-7.7273,-7.7101,-7.7101,-7.7101,-7.7101,-7.7101,-7.7101,-7.7101,-7.7101,-7.7101,-7.7101,-7.7101,-7.7101,-7.7101,-7.7101,-7.7101,-7.7101,-7.7101,-7.7101,-7.7101,-7.7101,-7.7101,-7.7101,-7.7101,-7.7101,-7.7101,-7.7101,-7.7101,-7.7101,-7.7101,-7.7101,-7.7101,-7.7085,0.0,0.0,0.0,0.0,-7.7009,-7.7017,0.0,-7.6999,-7.6999,-7.6999,-7.6987,-7.6754,-7.6643,-7.6534,-7.6146,-7.6016,-7.6002,-7.5928,-7.5756,-7.5549,-7.5497,-7.5518,-7.5518,-7.5518,-7.5518,-7.5518,-7.5518,-7.6074,-7.6914,-7.7793,-7.8672,-7.9531,-8.0315,-8.0506,-8.0506,-8.0506,-8.0506,-8.0506,-8.0506,-8.0506,-8.0506,0.0,0.0,-8.0506,-8.0506,0.0,0.0,0.0,0.0,-8.0506,0.0,0.0,0.0,0.0,0.0,0.0,0.0,0.0,-8.0506,0.0,-8.0506,-8.0506,0.0,0.0,-8.0506,-8.0506,-8.0506,-8.0506,-8.0506,-8.0506,-8.0506,-8.0506,-8.0506,-8.0506,-8.0506,-8.0506,-8.043,-8.0354,-8.0159,-7.9583,-7.8866,-7.869,-7.8072,-7.7273,-7.7101,-7.7101,-7.7101,-7.7101,-7.7101,-7.7101,-7.7101,-7.7101,-7.7101,-7.7101,-7.7101,-7.7101,-7.7101,-7.7101,-7.7101,-7.7101,-7.7101,-7.7101,-7.7101,-7.7101,-7.7101,-7.7101,-7.7101,-7.7101,-7.7101,-7.7101,-7.7101,-7.7101,-7.7101,-7.7101,-7.7101,-7.7082,0.0,0.0,0.0,-7.7019,0.0,0.0,-7.6999,-7.6999,-7.6999,-7.6999,-7.6987,-7.6684,-7.6516,-7.6338,-7.6016,-7.5795,-7.5692,-7.5692,-7.5616,-7.5518,-7.5518,-7.5518,-7.5518,-7.5518,-7.5518,-7.5518,-7.5518,-7.6418,-7.7487,-7.7908,-7.8978,-8.0009,-8.0391,-8.0506,-8.0506,-8.0506,-8.0506,-8.0506,-8.0506,-8.0506,-8.0506,-8.0506,-8.0506,-8.0506,-8.0506,0.0,-8.0506,0.0,0.0,0.0,0.0,0.0,0.0,0.0,0.0,0.0,0.0,0.0,-8.0506,0.0,0.0,0.0,-8.0506,0.0,-8.0506,-8.0506,-8.0506,-8.0506,-8.0506,-8.0506,-8.0506,-8.0506,-8.0506,-8.0506,-8.0506,-8.0506,-8.0506,-8.043,-7.9878,-7.9358,-7.8816,-7.8282,-7.7739,-7.7273,-7.7062,-7.7101,-7.7101,-7.7101,-7.7101,-7.7101,-7.7101,-7.7101,-7.7101,-7.7101,-7.7101,-7.7101,-7.7101,-7.7101,-7.7101,-7.7101,-7.7101,-7.7101,-7.7101,-7.7101,-7.7101,-7.7101,-7.7101,-7.7101,-7.7101,-7.7101,-7.7098,-7.7095,-7.7095,-7.7095,-7.7092,-7.7075,0.0,0.0,0.0,0.0,0.0,-7.7011,-7.6999,-7.6999,-7.6999,-7.6999,-7.6942,-7.6635,-7.6369,-7.6169,-7.5904,-7.5676,-7.5518,-7.5518,-7.5518,-7.5518,-7.5518,-7.5518,-7.5518,-7.5518,-7.5518,-7.5518,-7.5518,-7.657,-7.7755,-7.7946,-7.913,-8.0277,-8.0468,-8.0506,-8.0506,-8.0506,-8.0506,-8.0506,-8.0506,-8.0506,-8.0506,-8.0506,-8.0506,-8.0506,-8.0506,0.0,0.0,0.0,0.0,0.0,-8.0506,0.0,0.0,0.0,0.0,0.0,-8.0506,0.0,0.0,0.0,0.0,-8.0506,-8.0506,0.0,-8.0506,-8.0506,-8.0506,-8.0506,-8.0506,-8.0506,-8.0506,-8.0506,-8.0506,-8.0506,-8.0506,-8.0506,-8.0506,-8.0392,-7.9449,-7.8989,-7.8766,-7.7789,-7.7396,-7.7273,-7.6945,-7.7101,-7.7101,-7.7101,-7.7101,-7.7101,-7.7101,-7.7101,-7.7101,-7.7101,-7.7101,-7.7101,-7.7101,-7.7101,-7.7101,-7.7101,-7.7101,-7.7101,-7.7101,-7.7101,-7.7101,-7.7101,-7.7101,-7.7101,-7.7101,-7.7101,-7.7092,-7.7114,-7.7114,-7.7067,-7.7012,-7.7008,-7.6995,0.0,-7.7017,-7.7005,-7.7005,-7.6999,-7.6999,-7.6999,-7.6999,-7.6999,-7.693,-7.6448,-7.6227,-7.6144,-7.5686,-7.5497,-7.5518,-7.5518,-7.5518,-7.5518,-7.5518,-7.5518,-7.5518,-7.5518,-7.5518,-7.5518,-7.5518,-7.615,-7.7029,-7.7793,-7.871,-7.9589,-8.0315,-8.0506,-8.0506,-8.0506,-8.0506,-8.0506,-8.0506,-8.0506,-8.0506,-8.0506,-8.0506,-8.0506,0.0,0.0,-8.0506,-8.0506,0.0,0.0,-8.0506,-8.0506,0.0,0.0,-8.0506,0.0,0.0,0.0,0.0,-8.0506,-8.0506,-8.0506,-8.0506,-8.0506,-8.0506,-8.0506,-8.0506,-8.0506,-8.0506,-8.0506,-8.0506,-8.0506,-8.0506,-8.0506,-8.0506,-8.0506,-8.0506,-8.043,-7.9836,-7.9335,-7.8816,-7.8228,-7.771,-7.7273,-7.6164,-7.632,-7.6477,-7.7023,-7.7101,-7.7101,-7.7101,-7.7101,-7.7101,-7.7101,-7.7101,-7.7101,-7.7101,-7.7101,-7.7101,-7.7101,-7.7101,-7.7101,-7.7101,-7.7101,-7.7101,-7.7101,-7.7101,-7.7095,-7.7085,-7.7085,-7.7075,-7.7055,-7.7067,-7.711,-7.7063,-7.7012,-7.6985,-7.7017,-7.7005,-7.6999,-7.6999,-7.6999,-7.6999,-7.6999,-7.6999,-7.691,-7.6731,-7.6338,-7.6146,-7.5988,-7.5611,-7.5518,-7.5518,-7.5518,-7.5518,-7.5518,-7.5518,-7.5518,-7.5518,-7.5518,-7.5518,-7.5518,-7.5518,-7.6074,-7.6914,-7.7793,-7.8672,-7.9531,-8.0315,-8.0506,-8.0506,-8.0506,-8.0506,-8.0506,-8.0506,-8.0506,-8.0506,-8.0506,-8.0506,0.0,0.0,0.0,0.0,-8.0506,0.0,0.0,0.0,-8.0506,0.0,0.0,0.0,0.0,0.0,0.0,0.0,-8.0506,0.0,-8.0506,-8.0506,-8.0506,-8.0506,-8.0506,-8.0506,-8.0506,-8.0506,-8.0506,-8.0506,-8.0506,-8.0506,-8.0506,-8.0506,-8.0506,-8.0506,-8.0468,-7.9916,-7.9381,-7.8841,-7.8309,-7.7768,-7.7273,-7.5266,-7.5618,-7.5969,-7.6594,-7.6945,-7.7101,-7.7101,-7.7101,-7.7101,-7.7101,-7.7101,-7.7101,-7.7101,-7.7101,-7.7101,-7.7101,-7.7101,-7.7101,-7.7101,-7.7101,-7.7098,-7.7095,-7.7092,-7.7085,-7.7067,-7.7063,-7.7055,-7.6995,-7.7047,-7.7051,-7.7086,-7.7029,-7.7004,-7.7011,-7.7005,-7.6999,-7.6999,-7.6999,-7.6999,-7.6999,-7.6999,-7.6837,-7.6552,-7.6295,-7.6083,-7.5855,-7.5599,-7.5518,-7.5518,-7.5518,-7.5518,-7.5518,-7.5518,-7.5518,-7.5518,-7.5518,-7.5518,-7.5518,-7.5518,-7.5921,-7.6532,-7.7411,-7.8252,-7.913,-7.9971,-8.0315,-8.0506,-8.0506,-8.0506,-8.0506,-8.0506,-8.0506,-8.0506,-8.0506,-8.0506,0.0,0.0,-8.0506,0.0,0.0,-8.0506,-8.0506,-8.0506,-8.0506,0.0,0.0,0.0,0.0,-8.0506,-8.0506,-8.0506,0.0,0.0,0.0,-8.0506,-8.0506,-8.0506,-8.0506,-8.0506,-8.0506,-8.0506,-8.0506,-8.0506,-8.0506,-8.0506,-8.0506,-8.0506,-8.0506,-8.0506,-8.0411,-7.973,-7.9204,-7.8816,-7.8118,-7.7659,-7.7273,-7.4369,-7.5227,-7.5816,-7.5816,-7.6516,-7.7101,-7.7101,-7.7101,-7.7101,-7.7101,-7.7101,-7.7101,-7.7101,-7.7101,-7.7101,-7.7101,-7.7101,-7.7101,-7.7101,-7.7101,-7.7092,-7.7114,-7.7114,-7.7063,-7.7008,-7.7008,-7.6995,-7.7004,0.0,-7.6989,-7.6999,-7.6999,-7.7017,-7.7004,-7.7011,-7.6999,-7.6999,-7.6999,-7.6999,-7.6999,-7.6999,-7.6837,-7.6552,-7.6295,-7.6083,-7.5855,-7.5599,-7.5518,-7.5518,-7.5518,-7.5518,-7.5518,-7.5518,-7.5518,-7.5518,-7.5518,-7.5518,-7.5518,-7.5518,-7.5518,-7.5692,-7.6494,-7.7373,-7.8252,-7.9111,-7.9933,-8.0506,-8.0506,-8.0506,-8.0506,-8.0506,-8.0506,-8.0506,-8.0506,-8.0506,0.0,0.0,-8.0506,0.0,-8.0506,-8.0506,-8.0506,-8.0506,-8.0506,0.0,0.0,-8.0506,-8.0506,-8.0506,-8.0506,-8.0506,-8.0506,-8.0506,-8.0506,-8.0506,-8.0506,-8.0506,-8.0506,-8.0506,-8.0506,-8.0506,-8.0506,-8.0506,-8.0506,-8.0506,-8.0506,-8.0506,-8.0506,-8.0506,-8.0392,-7.9335,-7.8915,-7.8766,-7.771,-7.7341,-7.7273,-7.351,-7.4369,-7.511,-7.5699,-7.6516,-7.7101,-7.7101,-7.7101,-7.7101,-7.7101,-7.7101,-7.7101,-7.7101,-7.7101,-7.7095,-7.7085,-7.7095,-7.7092,-7.7028,-7.7075,-7.7075,-7.7016,-7.7016,-7.7004,-7.7019,-7.7019,-7.7004,-7.7011,-7.6994,-7.6999,-7.6989,-7.6989,-7.6983,-7.7011,-7.7005,-7.6999,-7.6999,-7.6999,-7.6999,-7.6993,-7.6816,-7.6591,-7.6295,-7.607,-7.5855,-7.5633,-7.5514,-7.5518,-7.5518,-7.5518,-7.5518,-7.5518,-7.5518,-7.5518,-7.5518,-7.5518,-7.5518,-7.5518,-7.5518,-7.5518,-7.5692,-7.6494,-7.7373,-7.8213,-7.9092,-7.9933,-8.0506,-8.0506,-8.0506,-8.0506,-8.0506,-8.0506,-8.0506,-8.0506,-8.0506,0.0,-8.0506,0.0,-8.0506,-8.0506,-8.0506,-8.0506,-8.0506,-8.0506,0.0,0.0,0.0,0.0,-8.0506,-8.0506,-8.0506,-8.0506,-8.0506,-8.0506,-8.0506,-8.0506,-8.0506,-8.0506,-8.0506,-8.0506,-8.0506,-8.0506,-8.0506,-8.0506,-8.0506,-8.0506,-8.0506,-8.0506,-8.0506,-8.0411,-7.973,-7.9204,-7.8816,-7.8128,-7.7592,-7.7273,-7.269,-7.3471,-7.433,-7.5149,-7.6047,-7.6711,-7.7062,-7.7101,-7.7101,-7.7101,-7.7101,-7.7098,-7.7092,-7.7092,-7.7085,-7.7114,-7.7085,-7.7078,-7.7008,-7.7055,-7.7055,-7.6995,-7.699,-7.7019,-7.6989,-7.6989,-7.7017,-7.6999,-7.7017,-7.6989,-7.6989,-7.6989,-7.7017,-7.6999,-7.6999,-7.6999,-7.6999,-7.6999,-7.693,-7.6837,-7.666,-7.6408,-7.607,-7.5933,-7.574,-7.5518,-7.5518,-7.5518,-7.5518,-7.5518,-7.5518,-7.5518,-7.5518,-7.5518,-7.5518,-7.5518,-7.5518,-7.5518,-7.5518,-7.5518,-7.5633,-7.6112,-7.6876,-7.7831,-7.9034,-7.9933,-8.0506,-8.0506,-8.0506,-8.0506,-8.0506,-8.0506,-8.0506,-8.0506,-8.0506,-8.0506,-8.0506,0.0,-8.0506,0.0,0.0,-8.0506,-8.0506,-8.0506,-8.0506,0.0,0.0,0.0,-8.0506,-8.0506,-8.0506,-8.0506,-8.0506,-8.0506,-8.0506,-8.0506,-8.0506,-8.0506,-8.0506,-8.0506,-8.0506,-8.0506,-8.0506,-8.0506,-8.0506,-8.0506,-8.0506,-8.0506,-8.0506,-8.0411,-7.9686,-7.918,-7.8816,-7.81,-7.7599,-7.7273,-7.1987,-7.269,-7.3549,-7.4369,-7.5227,-7.6086,-7.6984,-7.7101,-7.7101,-7.7101,-7.7101,-7.7095,-7.7114,-7.7114,-7.711,-7.711,-7.7071,-7.7063,-7.7004,-7.7004,-7.699,-7.7004,-7.7004,-7.6989,-7.6999,-7.6999,-7.6999,-7.6999,-7.6999,-7.6999,-7.6999,-7.6999,-7.6999,-7.6999,-7.6999,-7.6999,-7.6999,-7.6999,-7.6844,-7.6609,-7.6561,-7.63,-7.5899,-7.587,-7.5708,-7.5518,-7.5518,-7.5518,-7.5518,-7.5518,-7.5518,-7.5518,-7.5518,-7.5518,-7.5518,-7.5518,-7.5518,-7.5518,-7.5518,-7.5518,-7.5518,-7.5518,-7.615,-7.722,-7.8901,-7.9933,-8.0506,-8.0506,-8.0506,-8.0506,-8.0506,-8.0506,-8.0506,-8.0506,-8.0506,-8.0506,-8.0506,-8.0506,-8.0506,0.0,-8.0506,-8.0506,-8.0506,-8.0506,-8.0506,-8.0506,0.0,0.0,0.0,-8.0506,-8.0506,-8.0506,-8.0506,-8.0506,-8.0506,-8.0506,-8.0506,-8.0506,-8.0506,-8.0506,-8.0506,-8.0506,-8.0506,-8.0506,-8.0506,-8.0506,-8.0506,-8.0506,-8.0506,-8.0392,-7.9381,-7.894,-7.8766,-7.7739,-7.7335,-7.7273,-7.1987,-7.269,-7.3549,-7.4369,-7.5227,-7.6086,-7.6984,-7.7101,-7.7101,-7.7101,-7.7101,-7.7095,-7.7114,-7.7114,-7.7059,-7.7024,-7.7004,-7.7034,-7.6983,-7.7004,-7.7004,-7.7011,-7.7011,-7.7005,-7.6999,-7.6999,-7.6999,-7.6999,-7.6999,-7.6999,-7.6999,-7.6999,-7.6999,-7.6999,-7.6999,-7.6999,-7.6999,-7.6999,-7.6844,-7.6561,-7.6369,-7.6146,-7.587,-7.566,-7.5549,-7.5518,-7.5518,-7.5518,-7.5518,-7.5518,-7.5518,-7.5518,-7.5518,-7.5518,-7.5518,-7.5518,-7.5518,-7.5518,-7.5518,-7.5518,-7.5518,-7.5518,-7.6609,-7.7984,-7.9054,-7.9933,-8.0506,-8.0506,-8.0506,-8.0506,-8.0506,-8.0506,-8.0506,-8.0506,-8.0506,-8.0506,-8.0506,-8.0506,-8.0506,0.0,-8.0506,-8.0506,-8.0506,-8.0506,-8.0506,-8.0506,0.0,-8.0506,-8.0506,-8.0506,-8.0506,-8.0506,-8.0506,-8.0506,-8.0506,-8.0506,-8.0506,-8.0506,-8.0506,-8.0506,-8.0506,-8.0506,-8.0506,-8.0506,-8.0506,-8.0506,-8.0506,-8.0506,-8.0506,-8.0411,-7.9773,-7.9265,-7.8816,-7.8146,-7.7651,-7.7273,-7.1987,-7.2378,-7.308,-7.429,-7.4876,-7.5618,-7.6906,-7.7101,-7.7101,-7.7101,-7.7095,-7.7082,-7.7063,-7.7051,-7.7029,-7.6989,-7.7009,-7.7009,-7.6999,-7.7017,-7.7017,-7.6999,-7.6999,-7.6999,-7.6999,-7.6999,-7.6999,-7.6999,-7.6999,-7.6999,-7.6999,-7.6999,-7.6999,-7.6999,-7.6999,-7.6999,-7.6999,-7.6999,-7.6762,-7.639,-7.6261,-7.6004,-7.5692,-7.5549,-7.5518,-7.5518,-7.5518,-7.5518,-7.5518,-7.5518,-7.5518,-7.5518,-7.5518,-7.5518,-7.5518,-7.5518,-7.5518,-7.5518,-7.5518,-7.5518,-7.5518,-7.5518,-7.6761,-7.8137,-7.8596,-7.9627,-8.0506,-8.0506,-8.0506,-8.0506,-8.0506,-8.0506,-8.0506,-8.0506,-8.0506,-8.0506,-8.0506,-8.0506,-8.0506,-8.0506,-8.0506,-8.0506,-8.0506,-8.0506,-8.0506,-8.0506,-8.0506,0.0,-8.0506,-8.0506,-8.0506,-8.0506,-8.0506,-8.0506,-8.0506,-8.0506,-8.0506,-8.0506,-8.0506,-8.0506,-8.0506,-8.0506,-8.0506,-8.0506,-8.0506,-8.0506,-8.0506,-8.0506,-8.0506,-8.0468,-7.9916,-7.9381,-7.8841,-7.8309,-7.7768,-7.7273,-7.1987,-7.1987,-7.2534,-7.4212,-7.4486,-7.5071,-7.6828,-7.7098,-7.7098,-7.7098,-7.7082,-7.7063,-7.7004,-7.7019,-7.6994,-7.6999,-7.6983,-7.6989,-7.6999,-7.6999,-7.6999,-7.6999,-7.6999,-7.6999,-7.6999,-7.6999,-7.6999,-7.6999,-7.6999,-7.6999,-7.6999,-7.6999,-7.6999,-7.6999,-7.6999,-7.6999,-7.6999,-7.6999,-7.6707,-7.6204,-7.6204,-7.5922,-7.5518,-7.5518,-7.5518,-7.5518,-7.5518,-7.5518,-7.5518,-7.5518,-7.5518,-7.5518,-7.5518,-7.5518,-7.5518,-7.5518,-7.5518,-7.5518,-7.5518,-7.5518,-7.5518,-7.5518,-7.6647,-7.7831,-7.7984,-7.9207,-8.0353,-8.0468,-8.0506,-8.0506,-8.0506,-8.0506,-8.0506,-8.0506,-8.0506,-8.0506,-8.0506,-8.0506,-8.0506,-8.0506,-8.0506,-8.0506,-8.0506,-8.0506,-8.0506,-8.0506,-8.0506,-8.0506,-8.0506,-8.0506,-8.0506,-8.0506,-8.0506,-8.0506,-8.0506,-8.0506,-8.0506,-8.0506,-8.0506,-8.0506,-8.0506,-8.0506,-8.0506,-8.0506,-8.0506,-8.0506,-8.0506,-8.0506,-8.0506,-8.043,-7.9999,-7.9494,-7.894,-7.8442,-7.7875,-7.7426,-7.1987,-7.1987,-7.2534,-7.4212,-7.4486,-7.5071,-7.6828,-7.7089,-7.7117,-7.7117,-7.7063,-7.6999,-7.7014,-7.7009,-7.6994,-7.6999,-7.7005,-7.7005,-7.6999,-7.6999,-7.6999,-7.6999,-7.6999,-7.6999,-7.6999,-7.6999,-7.6999,-7.6999,-7.6999,-7.6999,-7.6999,-7.6999,-7.6999,-7.6999,-7.6999,-7.6999,-7.6999,-7.6999,-7.6707,-7.6204,-7.6204,-7.5922,-7.5518,-7.5518,-7.5518,-7.5518,-7.5518,-7.5518,-7.5518,-7.5518,-7.5518,-7.5518,-7.5518,-7.5518,-7.5518,-7.5518,-7.5518,-7.5518,-7.5518,-7.5518,-7.5518,-7.5518,-7.6188,-7.7105,-7.7831,-7.8748,-7.9684,-8.0353,-8.0506,-8.0506,-8.0506,-8.0506,-8.0506,-8.0506,-8.0506,-8.0506,-8.0506,-8.0506,-8.0506,-8.0506,-8.0506,-8.0506,-8.0506,-8.0506,-8.0506,-8.0506,-8.0506,-8.0506,-8.0506,-8.0506,-8.0506,-8.0506,-8.0506,-8.0506,-8.0506,-8.0506,-8.0506,-8.0506,-8.0506,-8.0506,-8.0506,-8.0506,-8.0506,-8.0506,-8.0506,-8.0506,-8.0506,-8.0506,-8.0506,-8.0506,-8.0392,-8.004,-7.9494,-7.8964,-7.8442,-7.7903,-7.2612,-7.269,-7.3236,-7.4915,-7.5188,-7.5618,-7.6906,-7.7085,-7.7114,-7.7114,-7.7047,-7.7019,-7.7004,-7.6989,-7.7017,-7.6999,-7.6999,-7.6999,-7.6999,-7.6999,-7.6999,-7.6999,-7.6999,-7.6999,-7.6999,-7.6999,-7.6999,-7.6999,-7.6999,-7.6999,-7.6999,-7.6999,-7.6999,-7.6999,-7.6999,-7.6999,-7.6993,-7.6844,-7.6806,-7.6877,-7.6739,-7.6763,-7.6838,-7.6838,-7.6838,-7.6838,-7.6838,-7.6838,-7.6838,-7.6838,-7.6838,-7.6838,-7.6838,-7.6838,-7.6838,-7.6838,-7.6188,-7.5518,-7.5518,-7.5518,-7.5518,-7.5518,-7.6112,-7.6914,-7.7793,-7.8672,-7.9513,-8.0315,-8.0506,-8.0506,-8.0506,-8.0506,-8.0506,-8.0506,-8.0506,-8.0506,-8.0506,-8.0506,-8.0506,-8.0506,-8.0506,-8.0506,-8.0506,-8.0506,-8.0506,-8.0506,-8.0506,-8.0506,-8.0506,-8.0506,-8.0506,-8.0506,-8.0506,-8.0506,-8.0506,-8.0506,-8.0506,-8.0506,-8.0506,-8.0506,-8.0506,-8.0506,-8.0506,-8.0506,-8.0506,-8.0506,-8.0506,-8.0506,-8.0506,-8.0506,-8.0506,-8.0179,-7.9643,-7.9085,-7.8536,-7.8044,-7.3393,-7.3588,-7.4056,-7.554,-7.5816,-7.6086,-7.6984,-7.7082,-7.7067,-7.711,-7.7038,-7.7009,-7.7014,-7.6989,-7.7011,-7.7011,-7.7005,-7.6999,-7.6999,-7.6999,-7.6999,-7.6999,-7.6999,-7.6999,-7.6999,-7.6999,-7.6999,-7.6999,-7.6999,-7.6999,-7.6999,-7.6999,-7.6999,-7.6999,-7.6999,-7.7116,-7.726,-7.7034,-7.7263,-7.7792,-7.7516,-7.7659,-7.8022,-7.8022,-7.8022,-7.8022,-7.8022,-7.8022,-7.8022,-7.8022,-7.8022,-7.8022,-7.8022,-7.8022,-7.8022,-7.8022,-7.7105,-7.6074,-7.6074,-7.5921,-7.5768,-7.5768,-7.6112,-7.6685,-7.7755,-7.8519,-7.9283,-8.0277,-8.0506,-8.0506,-8.0506,-8.0506,-8.0506,-8.0506,-8.0506,-8.0506,-8.0506,-8.0506,-8.0506,-8.0506,-8.0506,-8.0506,-8.0506,-8.0506,-8.0506,-8.0506,-8.0506,-8.0506,-8.0506,-8.0506,-8.0506,-8.0506,-8.0506,-8.0506,-8.0506,-8.0506,-8.0506,-8.0506,-8.0506,-8.0506,-8.0506,-8.0506,-8.0506,-8.0506,-8.0506,-8.0506,-8.0506,-8.0506,-8.0506,-8.0506,-8.0506,-8.0238,-7.9794,-7.9133,-7.8639,-7.8173,-7.4251,-7.4408,-7.472,-7.566,-7.5816,-7.6086,-7.6984,-7.7032,-7.7016,-7.7071,-7.7038,-7.7014,-7.6999,-7.7019,-7.6999,-7.6999,-7.7017,-7.6999,-7.6999,-7.6999,-7.6999,-7.6999,-7.6999,-7.6999,-7.6999,-7.6999,-7.6999,-7.6999,-7.6999,-7.6999,-7.6999,-7.6999,-7.6999,-7.6999,-7.6999,-7.7467,-7.8195,-7.7921,-7.8155,-7.8694,-7.8402,-7.8196,-7.8022,-7.8022,-7.8022,-7.8022,-7.8022,-7.8022,-7.8022,-7.8022,-7.8022,-7.8022,-7.8022,-7.8022,-7.8022,-7.8022,-7.7908,-7.7831,-7.7831,-7.722,-7.6609,-7.6609,-7.6112,-7.5997,-7.764,-7.8061,-7.8557,-8.0162,-8.0506,-8.0506,-8.0506,-8.0506,-8.0506,-8.0506,-8.0506,-8.0506,-8.0506,-8.0506,-8.0506,-8.0506,-8.0506,-8.0506,-8.0506,-8.0506,-8.0506,-8.0506,-8.0506,-8.0506,-8.0506,-8.0506,-8.0506,-8.0506,-8.0506,-8.0506,-8.0506,-8.0506,-8.0506,-8.0506,-8.0506,-8.0506,-8.0506,-8.0506,-8.0506,-8.0506,-8.0506,-8.0506,-8.0506,-8.0506,-8.0506,-8.0506,-8.0506,-8.0487,-8.0335,-7.925,-7.8866,-7.869,-7.5149,-7.5305,-7.5579,-7.6438,-7.6594,-7.6711,-7.7062,-7.7082,-7.7067,-7.711,-7.7051,-7.6995,-7.7004,-7.6999,-7.6985,-7.7004,-7.6994,-7.7022,-7.6999,-7.6999,-7.6999,-7.6999,-7.6999,-7.6999,-7.6999,-7.6999,-7.6999,-7.6999,-7.6999,-7.6999,-7.6999,-7.7545,-7.7818,-7.7818,-7.8324,-7.8714,-7.9007,-7.8612,-7.8878,-7.952,-7.9114,-7.918,-7.9551,-7.9551,-7.9551,-7.9551,-7.9551,-7.9551,-7.9551,-7.9551,-7.9551,-7.9551,-7.9551,-7.9551,-7.9551,-7.9551,-7.9551,-7.9551,-7.9551,-7.8557,-7.7526,-7.7526,-7.7296,-7.7373,-7.8519,-7.8787,-7.913,-8.0277,-8.0506,-8.0506,-8.0506,-8.0506,-8.0506,-8.0506,-8.0506,-8.0506,-8.0506,-8.0506,-8.0506,-8.0506,-8.0506,-8.0506,-8.0506,-8.0506,-8.0506,-8.0506,-8.0506,-8.0506,-8.0506,-8.0506,-8.0506,-8.0506,-8.0506,-8.0506,-8.0506,-8.0506,-8.0506,-8.0506,-8.0506,-8.0506,-8.0506,-8.0506,-8.0506,-8.0506,-8.0506,-8.0506,-8.0506,-8.0506,-8.0506,-8.0506,-8.0506,-8.0506,-8.0373,-7.9311,-7.8891,-7.8741,-7.6047,-7.62,-7.6393,-7.7014,-7.7089,-7.7089,-7.7092,-7.7078,-7.7071,-7.7082,-7.7067,-7.7016,-7.7024,-7.702,-7.7008,-7.698,-7.7009,-7.6994,-7.6999,-7.6999,-7.6999,-7.6999,-7.6999,-7.6999,-7.6999,-7.6999,-7.6999,-7.6999,-7.7272,-7.7428,-7.7428,-7.8285,-7.8675,-7.8714,-7.9259,-7.9624,-7.9757,-7.9354,-7.9597,-8.0238,-7.9855,-8.0009,-8.0506,-8.0506,-8.0506,-8.0506,-8.0506,-8.0506,-8.0506,-8.0506,-8.0506,-8.0506,-8.0506,-8.0506,-8.0506,-8.0506,-8.0506,-8.0506,-8.0506,-7.9665,-7.871,-7.8481,-7.8213,-7.8213,-7.9092,-7.9302,-7.9513,-8.0315,-8.0506,-8.0506,-8.0506,-8.0506,-8.0506,-8.0506,-8.0506,-8.0506,-8.0506,-8.0506,-8.0506,-8.0506,-8.0506,-8.0506,-8.0506,-8.0506,-8.0506,-8.0506,-8.0506,-8.0506,-8.0506,-8.0506,-8.0506,-8.0506,-8.0506,-8.0506,-8.0506,-8.0506,-8.0506,-8.0506,-8.0506,-8.0506,-8.0506,-8.0506,-8.0506,-8.0506,-8.0506,-8.0506,-8.0506,-8.0506,-8.0506,-8.0506,-8.0506,-8.0506,-8.0373,-7.9311,-7.8891,-7.8741,-7.6945,-7.7085,-7.7114,-7.7114,-7.7059,-7.7012,-7.7071,-7.7059,-7.702,-7.7098,-7.7085,-7.7082,-7.7098,-7.7085,-7.7067,-7.7008,-7.698,-7.6994,-7.6999,-7.6999,-7.6999,-7.7038,-7.6999,-7.6999,-7.6999,-7.6999,-7.6999,-7.7038,-7.7896,-7.8324,-7.8324,-7.9142,-7.9532,-7.9532,-7.9532,-7.9835,-8.0398,-8.014,-8.0368,-8.0869,-8.0632,-8.0506,-8.0506,-8.0506,-8.0506,-8.0506,-8.0506,-8.0506,-8.0506,-8.0506,-8.0506,-8.0506,-8.0506,-8.0506,-8.0506,-8.0506,-8.0506,-8.0506,-8.0506,-8.0506,-8.0315,-7.9531,-7.8672,-7.8252,-7.9111,-7.9302,-7.9531,-8.0353,-8.0506,-8.0506,-8.0506,-8.0506,-8.0506,-8.0506,-8.0506,-8.0506,-8.0506,-8.0506,-8.0506,-8.0506,-8.0506,-8.0506,-8.0506,-8.0506,-8.0506,-8.0506,-8.0506,-8.0506,-8.0506,-8.0506,-8.0506,-8.0506,-8.0506,-8.0506,-8.0506,-8.0506,-8.0506,-8.0506,-8.0506,-8.0506,-8.0506,-8.0506,-8.0506,-8.0506,-8.0506,-8.0506,-8.0506,-8.0506,-8.0506,-8.0506,-8.0506,-8.0506,-8.0373,-7.9311,-7.8891,-7.8741,-7.7062,-7.7098,-7.7092,-7.7092,-7.7089,-7.7089,-7.7092,-7.7089,-7.7089,-7.7101,-7.7095,-7.7095,-7.7101,-7.7095,-7.7082,-7.7008,-7.6999,-7.7248,-7.7857,-7.7896,-7.8168,-7.8714,-7.7623,-7.7272,-7.7896,-7.7896,-7.8207,-7.8753,-7.9026,-7.9142,-7.9181,-7.9994,-8.0422,-8.0422,-8.1052,-8.1321,-8.1291,-8.1031,-8.0908,-8.0869,-8.0632,-8.0506,-8.0506,-8.0506,-8.0506,-8.0506,-8.0506,-8.0506,-8.0506,-8.0506,-8.0506,-8.0506,-8.0506,-8.0506,-8.0506,-8.0506,-8.0506,-8.0506,-8.0506,-8.0506,-8.043,-8.02,-7.9933,-7.9818,-8.0086,-8.0124,-8.02,-8.043,-8.0506,-8.0506,-8.0506,-8.0506,-8.0506,-8.0506,-8.0506,-8.0506,-8.0506,-8.0506,-8.0506,-8.0506,-8.0506,-8.0506,-8.0506,-8.0506,-8.0506,-8.0506,-8.0506,-8.0506,-8.0506,-8.0506,-8.0506,-8.0506,-8.0506,-8.0506,-8.0506,-8.0506,-8.0506,-8.0506,-8.0506,-8.0506,-8.0506,-8.0506,-8.0506,-8.0506,-8.0506,-8.0506,-8.0506,-8.0506,-8.0506,-8.0506,-8.0506,-8.0506,-8.0373,-7.9311,-7.8891,-7.8741,-7.7101,-7.7095,-7.7092,-7.7092,-7.7085,-7.7082,-7.7089,-7.7092,-7.7092,-7.7101,-7.7101,-7.7101,-7.7101,-7.7095,-7.7196,-7.7476,-7.7804,-7.8208,-7.8753,-7.8753,-7.8987,-7.9493,-7.8519,-7.8246,-7.8753,-7.8753,-7.9026,-7.9493,-7.9844,-7.9994,-8.0039,-8.0896,-8.1325,-8.1325,-8.187,-8.1875,-8.1529,-8.1383,-8.1084,-8.0711,-8.056,-8.0506,-8.0506,-8.0506,-8.0506,-8.0506,-8.0506,-8.0506,-8.0506,-8.0506,-8.0506,-8.0506,-8.0506,-8.0506,-8.0506,-8.0506,-8.0506,-8.0506,-8.0506,-8.0506,-8.0506,-8.0506,-8.0506,-8.0506,-8.0506,-8.0506,-8.0506,-8.0506,-8.0506,-8.0506,-8.0506,-8.0506,-8.0506,-8.0506,-8.0506,-8.0506,-8.0506,-8.0506,-8.0506,-8.0506,-8.0506,-8.0506,-8.0506,-8.0506,-8.0506,-8.0506,-8.0506,-8.0506,-8.0506,-8.0506,-8.0506,-8.0506,-8.0506,-8.0506,-8.0506,-8.0506,-8.0506,-8.0506,-8.0506,-8.0506,-8.0506,-8.0506,-8.0506,-8.0506,-8.0506,-8.0506,-8.0506,-8.0506,-8.0506,-8.0506,-8.0506,-8.0506,-8.0392,-7.9516,-7.9061,-7.8766,-7.7101,-7.7089,-7.7114,-7.7114,-7.7063,-7.7016,-7.7075,-7.7114,-7.7082,-7.7098,-7.7101,-7.714,-7.7215,-7.7203,-7.7532,-7.8369,-7.9099,-7.9532,-7.961,-7.961,-7.9649,-7.9727,-7.9727,-7.9727,-7.9727,-7.9649,-7.9649,-7.9727,-8.0545,-8.0935,-8.0935,-8.1714,-8.2104,-8.2104,-8.2052,-8.18,-8.131,-8.1285,-8.0992,-8.0506,-8.0506,-8.0506,-8.0506,-8.0506,-8.0506,-8.0506,-8.0506,-8.0506,-8.0506,-8.0506,-8.0506,-8.0506,-8.0506,-8.0506,-8.0506,-8.0506,-8.0506,-8.0506,-8.0506,-8.0506,-8.0506,-8.0506,-8.0506,-8.0506,-8.0506,-8.0506,-8.0506,-8.0506,-8.0506,-8.0506,-8.0506,-8.0506,-8.0506,-8.0506,-8.0506,-8.0506,-8.0506,-8.0506,-8.0506,-8.0506,-8.0506,-8.0506,-8.0506,-8.0506,-8.0506,-8.0506,-8.0506,-8.0506,-8.0506,-8.0506,-8.0506,-8.0506,-8.0506,-8.0506,-8.0506,-8.0506,-8.0506,-8.0506,-8.0506,-8.0506,-8.0506,-8.0506,-8.0506,-8.0506,-8.0506,-8.0506,-8.0506,-8.0506,-8.0506,-8.0506,-8.0506,-8.0506,-8.0411,-7.9836,-7.9335,-7.8816,-7.7101,-7.7098,-7.7095,-7.7095,-7.7092,-7.7092,-7.7095,-7.7095,-7.7098,-7.7101,-7.7101,-7.7368,-7.8054,-7.8129,-7.8421,-7.9237,-7.9433,-7.9805,-8.0461,-8.05,-8.0818,-8.1519,-8.1519,-8.1519,-8.1519,-8.0857,-8.0857,-8.1519,-8.1714,-8.1831,-8.1831,-8.2026,-8.2104,-8.2104,-8.1867,-8.163,-8.1298,-8.107,-8.0811,-8.0506,-8.0506,-8.0506,-8.0506,-8.0506,-8.0506,-8.0506,-8.0506,-8.0506,-8.0506,-8.0506,-8.0506,-8.0506,-8.0506,-8.0506,-8.0506,-8.0506,-8.0506,-8.0506,-8.0506,-8.0506,-8.0506,-8.0506,-8.0506,-8.0506,-8.0506,-8.0506,-8.0506,-8.0506,-8.0506,-8.0506,-8.0506,-8.0506,-8.0506,-8.0506,-8.0506,-8.0506,-8.0506,-8.0506,-8.0506,-8.0506,-8.0506,-8.0506,-8.0506,-8.0506,-8.0506,-8.0506,-8.0506,-8.0506,-8.0506,-8.0506,-8.0506,-8.0506,-8.0506,-8.0506,-8.0506,-8.0506,-8.0506,-8.0506,-8.0506,-8.0506,-8.0506,-8.0506,-8.0506,-8.0506,-8.0506,-8.0506,-8.0506,-8.0506,-8.0506,-8.0506,-8.0506,-8.0506,-8.0373,-7.9426,-7.8989,-7.8766,-7.7101,-7.7101,-7.7101,-7.7101,-7.7101,-7.7101,-7.7101,-7.7101,-7.7257,-7.7687,-7.7726,-7.8035,-7.8923,-7.8983,-7.93,-8.0107,-8.0512,-8.0935,-8.1403,-8.1403,-8.1636,-8.2065,-8.2104,-8.2104,-8.2104,-8.1636,-8.1636,-8.2104,-8.2104,-8.2104,-8.2104,-8.2104,-8.2104,-8.2104,-8.1826,-8.154,-8.1298,-8.0998,-8.0728,-8.0506,-8.0506,-8.0506,-8.0506,-8.0506,-8.0506,-8.0506,-8.0506,-8.0506,-8.0506,-8.0506,-8.0506,-8.0506,-8.0506,-8.0506,-8.0506,-8.0506,-8.0506,-8.0506,-8.0506,-8.0506,-8.0506,-8.0506,-8.0506,-8.0506,-8.0506,-8.0506,-8.0506,-8.0506,-8.0506,-8.0506,-8.0506,-8.0506,-8.0506,-8.0506,-8.0506,-8.0506,-8.0506,-8.0506,-8.0506,-8.0506,-8.0506,-8.0506,-8.0506,-8.0506,-8.0506,-8.0506,-8.0506,-8.0506,-8.0506,-8.0506,-8.0506,-8.0506,-8.0506,-8.0506,-8.0506,-8.0506,-8.0506,-8.0506,-8.0506,-8.0506,-8.0506,-8.0506,-8.0506,-8.0506,-8.0506,-8.0506,-8.0506,-8.0506,-8.0506,-8.0506,-8.0506,-8.0506,-8.0392,-7.9561,-7.894,-7.8416,-7.7101,-7.7101,-7.7101,-7.7101,-7.7218,-7.7335,-7.7335,-7.7453,-7.7804,-7.8546,-7.8624,-7.893,-7.9824,-7.9981,-8.0285,-8.0974,-8.1675,-8.2104,-8.2104,-8.2104,-8.2104,-8.2104,-8.2104,-8.2104,-8.2104,-8.2104,-8.2104,-8.2104,-8.2104,-8.2104,-8.2104,-8.2104,-8.2104,-8.2098,-8.1753,-8.1508,-8.1298,-8.0977,-8.0716,-8.0506,-8.0506,-8.0506,-8.0506,-8.0506,-8.0506,-8.0506,-8.0506,-8.0506,-8.0506,-8.0506,-8.0506,-8.0506,-8.0506,-8.0506,-8.0506,-8.0506,-8.0506,-8.0506,-8.0506,-8.0506,-8.0506,-8.0506,-8.0506,-8.0506,-8.0506,-8.0506,-8.0506,-8.0506,-8.0506,-8.0506,-8.0506,-8.0506,-8.0506,-8.0506,-8.0506,-8.0506,-8.0506,-8.0506,-8.0506,-8.0506,-8.0506,-8.0506,-8.0506,-8.0506,-8.0506,-8.0506,-8.0506,-8.0506,-8.0506,-8.0506,-8.0506,-8.0506,-8.0506,-8.0506,-8.0506,-8.0506,-8.0506,-8.0506,-8.0506,-8.0506,-8.0506,-8.0506,-8.0506,-8.0506,-8.0506,-8.0506,-8.0506,-8.0506,-8.0506,-8.0506,-8.0506,-8.0506,-8.0411,-7.9794,-7.8915,-7.8044,-7.7101,-7.7101,-7.7101,-7.7101,-7.7726,-7.8233,-7.8233,-7.8858,-7.9405,-7.9522,-7.9509,-7.9842,-8.064,-8.1332,-8.1805,-8.1909,-8.2026,-8.2104,-8.2104,-8.2104,-8.2104,-8.2104,-8.2104,-8.2104,-8.2104,-8.2104,-8.2104,-8.2104,-8.2104,-8.2104,-8.2104,-8.2104,-8.2104,-8.2098,-8.1571,-8.1347,-8.1285,-8.0762,-8.0523,-8.0506,-8.0506,-8.0506,-8.0506,-8.0506,-8.0506,-8.0506,-8.0506,-8.0506,-8.0506,-8.0506,-8.0506,-8.0506,-8.0506,-8.0506,-8.0506,-8.0506,-8.0506,-8.0506,-8.0506,-8.0506,-8.0506,-8.0506,-8.0506,-8.0506,-8.0506,-8.0506,-8.0506,-8.0506,-8.0506,-8.0506,-8.0506,-8.0506,-8.0506,-8.0506,-8.0506,-8.0506,-8.0506,-8.0506,-8.0506,-8.0506,-8.0506,-8.0506,-8.0506,-8.0506,-8.0506,-8.0506,-8.0506,-8.0506,-8.0506,-8.0506,-8.0506,-8.0506,-8.0506,-8.0506,-8.0506,-8.0506,-8.0506,-8.0506,-8.0506,-8.0506,-8.0506,-8.0506,-8.0506,-8.0506,-8.0506,-8.0506,-8.0506,-8.0506,-8.0506,-8.0506,-8.0506,-8.0506,-8.0373,-7.9381,-7.8614,-7.8044,-7.7101,-7.7492,-7.7843,-7.7843,-7.8546,-7.9131,-7.9131,-7.9444,-7.9873,-8.0341,-8.0413,-8.0712,-8.1551,-8.1894,-8.2089,-8.211,-8.2104,-8.2104,-8.2104,-8.2104,-8.2104,-8.2104,-8.2104,-8.2116,-8.2095,-8.2095,-8.2095,-8.2095,-8.2116,-8.2104,-8.2104,-8.2104,-8.2026,-8.1851,-8.1475,-8.1234,-8.1041,-8.0664,-8.0506,-8.0506,-8.0506,-8.0506,-8.0506,-8.0506,-8.0506,-8.0506,-8.0506,-8.0506,-8.0506,-8.0506,-8.0506,-8.0506,-8.0506,-8.0506,-8.0506,-8.0506,-8.0506,-8.0506,-8.0506,-8.0506,-8.0506,-8.0506,-8.0506,-8.0506,-8.0506,-8.0506,-8.0506,-8.0506,-8.0506,-8.0506,-8.0506,-8.0506,-8.0506,-8.0506,-8.0506,-8.0506,-8.0506,-8.0506,-8.0506,-8.0506,-8.0506,-8.0506,-8.0506,-8.0506,-8.0506,-8.0506,-8.0506,-8.0506,-8.0506,-8.0506,-8.0506,-8.0506,-8.0506,-8.0506,-8.0506,-8.0506,-8.0506,-8.0506,-8.0506,-8.0506,-8.0506,-8.0506,-8.0506,-8.0506,-8.0506,-8.0506,-8.0506,-8.0506,-8.0506,-8.0506,-8.0506,-8.0121,-7.9538,-7.9061,-7.8389,-7.7629]},{"header":{"parameterUnit":"m.s-1","parameterCategory":1,"la1":30.6,"la2":28.766,"lo1":-90.7593,"lo2":-88.6598,"dy":0.0162,"dx":0.0183,"nx":116,"ny":114,"refTime":"2024-03-05T06:00:00:Z","depth":0,"parameterNumber":3,"parameterNumberName":"V-component_of_WINDS"},"data":[0.0,0.0,0.0,0.0,0.0,0.0,0.0,0.0,0.0,0.0,0.0,0.0,0.0,0.0,0.0,0.0,0.0,0.0,0.0,0.0,0.0,0.0,0.0,0.0,0.0,0.0,0.0,0.0,0.0,0.0,0.0,0.0,0.0,0.0,0.0,0.0,0.0,0.0,0.0,0.0,0.0,0.0,0.0,0.0,0.0,0.0,0.0,0.0,0.0,0.0,0.0,0.0,0.0,0.0,0.0,0.0,0.0,0.0,0.0,0.0,0.0,0.0,0.0,0.0,0.0,0.0,0.0,0.0,0.0,0.0,0.0,0.0,0.0,0.0,0.0,0.0,0.0,0.0,0.0,0.0,0.0,0.0,0.0,0.0,0.0,0.0,0.0,0.0,0.0,0.0,0.0,0.0,0.0,0.0,0.0,0.0,0.0,0.0,0.0,0.0,0.0,0.0,0.0,0.0,0.0,0.0,0.0,0.0,0.0,0.0,0.0,0.0,0.0,0.0,0.0,0.0,0.0,0.0,0.0,0.0,0.0,0.0,0.0,0.0,0.0,0.0,0.0,0.0,0.0,0.0,0.0,0.0,0.0,0.0,0.0,0.0,0.0,0.0,0.0,0.0,0.0,0.0,0.0,0.0,0.0,0.0,0.0,0.0,0.0,0.0,0.0,0.0,0.0,0.0,0.0,0.0,0.0,0.0,0.0,0.0,0.0,0.0,0.0,0.0,0.0,0.0,0.0,0.0,0.0,0.0,0.0,0.0,0.0,0.0,0.0,0.0,0.0,0.0,0.0,0.0,0.0,0.0,0.0,0.0,0.0,0.0,0.0,0.0,0.0,0.0,0.0,0.0,0.0,0.0,0.0,0.0,0.0,0.0,0.0,0.0,0.0,0.0,0.0,0.0,0.0,0.0,0.0,0.0,0.0,0.0,0.0,0.0,0.0,0.0,0.0,0.0,0.0,0.0,0.0,0.0,0.0,0.0,0.0,0.0,0.0,0.0,0.0,0.0,0.0,0.0,0.0,0.0,0.0,0.0,0.0,0.0,0.0,0.0,0.0,0.0,0.0,0.0,0.0,0.0,0.0,0.0,0.0,0.0,0.0,0.0,0.0,0.0,0.0,0.0,0.0,0.0,0.0,0.0,0.0,0.0,0.0,0.0,0.0,0.0,0.0,0.0,0.0,0.0,0.0,0.0,0.0,0.0,0.0,0.0,0.0,0.0,0.0,0.0,0.0,0.0,0.0,0.0,0.0,0.0,0.0,0.0,0.0,0.0,0.0,0.0,0.0,0.0,0.0,0.0,0.0,0.0,0.0,0.0,0.0,0.0,0.0,0.0,0.0,0.0,0.0,0.0,0.0,0.0,0.0,0.0,0.0,0.0,0.0,0.0,0.0,0.0,0.0,0.0,0.0,0.0,0.0,0.0,0.0,0.0,0.0,0.0,0.0,0.0,0.0,0.0,0.0,0.0,0.0,0.0,0.0,0.0,0.0,0.0,0.0,0.0,0.0,0.0,0.0,0.0,0.0,0.0,0.0,0.0,0.0,0.0,0.0,0.0,0.0,0.0,0.0,0.0,0.0,0.0,0.0,0.0,0.0,0.0,0.0,0.0,0.0,0.0,0.0,0.0,0.0,0.0,0.0,0.0,0.0,0.0,0.0,0.0,0.0,0.0,0.0,0.0,0.0,0.0,0.0,0.0,0.0,0.0,0.0,0.0,0.0,0.0,0.0,0.0,0.0,0.0,0.0,0.0,0.0,0.0,0.0,0.0,0.0,0.0,0.0,0.0,0.0,0.0,0.0,0.0,0.0,0.0,0.0,0.0,0.0,0.0,0.0,0.0,0.0,0.0,0.0,0.0,0.0,0.0,0.0,0.0,0.0,0.0,0.0,0.0,0.0,0.0,0.0,0.0,0.0,0.0,0.0,0.0,0.0,0.0,0.0,0.0,0.0,0.0,0.0,0.0,0.0,0.0,0.0,0.0,0.0,0.0,0.0,0.0,0.0,0.0,0.0,0.0,0.0,0.0,0.0,0.0,0.0,0.0,0.0,0.0,0.0,0.0,0.0,0.0,0.0,0.0,0.0,0.0,0.0,0.0,0.0,0.0,0.0,0.0,0.0,0.0,0.0,0.0,0.0,0.0,0.0,0.0,0.0,0.0,0.0,0.0,0.0,0.0,0.0,0.0,0.0,0.0,0.0,0.0,0.0,0.0,0.0,0.0,0.0,0.0,0.0,0.0,0.0,0.0,0.0,0.0,0.0,0.0,0.0,0.0,0.0,0.0,0.0,0.0,0.0,0.0,0.0,0.0,0.0,0.0,0.0,0.0,0.0,0.0,0.0,0.0,0.0,0.0,0.0,0.0,0.0,0.0,0.0,0.0,0.0,0.0,0.0,0.0,0.0,0.0,0.0,0.0,0.0,0.0,0.0,0.0,0.0,0.0,0.0,0.0,0.0,0.0,0.0,0.0,0.0,0.0,0.0,0.0,0.0,0.0,0.0,0.0,0.0,0.0,0.0,0.0,0.0,0.0,0.0,0.0,0.0,0.0,0.0,0.0,0.0,0.0,0.0,0.0,0.0,0.0,0.0,0.0,0.0,0.0,0.0,0.0,0.0,0.0,0.0,0.0,0.0,0.0,0.0,0.0,0.0,0.0,0.0,0.0,0.0,0.0,0.0,0.0,0.0,0.0,0.0,0.0,0.0,0.0,0.0,0.0,0.0,0.0,0.0,0.0,0.0,0.0,0.0,0.0,0.0,0.0,0.0,0.0,0.0,0.0,0.0,0.0,0.0,0.0,0.0,0.0,0.0,0.0,0.0,0.0,0.0,0.0,0.0,0.0,0.0,0.0,0.0,0.0,0.0,0.0,0.0,0.0,0.0,0.0,0.0,0.0,0.0,0.0,0.0,0.0,0.0,0.0,0.0,0.0,0.0,0.0,0.0,0.0,0.0,0.0,0.0,0.0,0.0,0.0,0.0,0.0,0.0,0.0,0.0,0.0,0.0,0.0,0.0,0.0,0.0,0.0,0.0,0.0,0.0,0.0,0.0,0.0,0.0,0.0,0.0,0.0,0.0,0.0,0.0,0.0,0.0,0.0,0.0,0.0,0.0,0.0,0.0,0.0,0.0,0.0,0.0,0.0,0.0,0.0,0.0,0.0,0.0,0.0,0.0,0.0,0.0,0.0,0.0,0.0,0.0,0.0,0.0,0.0,0.0,0.0,0.0,0.0,0.0,0.0,0.0,0.0,0.0,0.0,0.0,0.0,0.0,0.0,0.0,0.0,0.0,0.0,0.0,0.0,0.0,0.0,0.0,0.0,0.0,0.0,0.0,0.0,0.0,0.0,0.0,0.0,0.0,0.0,0.0,0.0,0.0,0.0,0.0,0.0,0.0,0.0,0.0,0.0,0.0,0.0,0.0,0.0,0.0,0.0,0.0,0.0,0.0,0.0,0.0,0.0,0.0,0.0,0.0,0.0,0.0,0.0,0.0,0.0,0.0,0.0,0.0,0.0,0.0,0.0,0.0,0.0,0.0,0.0,0.0,0.0,0.0,0.0,0.0,0.0,0.0,0.0,0.0,0.0,0.0,0.0,0.0,0.0,0.0,0.0,0.0,0.0,0.0,0.0,0.0,0.0,0.0,0.0,0.0,0.0,0.0,0.0,0.0,0.0,0.0,0.0,0.0,0.0,0.0,0.0,0.0,0.0,0.0,0.0,0.0,0.0,0.0,0.0,0.0,0.0,0.0,0.0,0.0,0.0,0.0,0.0,0.0,0.0,0.0,0.0,0.0,0.0,0.0,0.0,0.0,0.0,0.0,0.0,0.0,0.0,0.0,0.0,0.0,0.0,0.0,0.0,0.0,0.0,0.0,0.0,0.0,0.0,0.0,0.0,0.0,0.0,0.0,0.0,0.0,0.0,0.0,0.0,0.0,0.0,0.0,0.0,0.0,0.0,0.0,0.0,0.0,0.0,0.0,0.0,0.0,0.0,0.0,0.0,0.0,0.0,0.0,0.0,0.0,0.0,0.0,0.0,0.0,0.0,0.0,0.0,0.0,0.0,0.0,0.0,0.0,0.0,0.0,0.0,0.0,0.0,0.0,0.0,0.0,0.0,0.0,0.0,0.0,0.0,0.0,0.0,0.0,0.0,0.0,0.0,0.0,0.0,0.0,0.0,0.0,0.0,0.0,0.0,0.0,0.0,0.0,0.0,0.0,0.0,0.0,0.0,0.0,0.0,0.0,0.0,0.0,0.0,0.0,0.0,0.0,0.0,0.0,0.0,0.0,0.0,0.0,0.0,0.0,0.0,0.0,0.0,0.0,0.0,0.0,0.0,0.0,0.0,0.0,0.0,0.0,0.0,0.0,0.0,0.0,0.0,0.0,0.0,0.0,0.0,0.0,0.0,0.0,0.0,0.0,0.0,0.0,0.0,0.0,0.0,0.0,0.0,0.0,0.0,0.0,0.0,0.0,0.0,0.0,0.0,0.0,0.0,0.0,0.0,0.0,0.0,0.0,0.0,0.0,0.0,0.0,0.0,0.0,0.0,0.0,0.0,0.0,0.0,0.0,0.0,0.0,0.0,0.0,0.0,0.0,0.0,0.0,0.0,0.0,0.0,0.0,0.0,0.0,0.0,0.0,0.0,0.0,0.0,0.0,0.0,0.0,0.0,0.0,0.0,0.0,0.0,0.0,0.0,0.0,0.0,0.0,0.0,0.0,0.0,0.0,0.0,0.0,0.0,0.0,0.0,0.0,0.0,0.0,0.0,0.0,0.0,0.0,0.0,0.0,0.0,0.0,0.0,0.0,0.0,0.0,0.0,0.0,0.0,0.0,0.0,0.0,0.0,0.0,0.0,0.0,0.0,0.0,0.0,0.0,0.0,0.0,0.0,0.0,0.0,0.0,0.0,0.0,0.0,0.0,0.0,0.0,0.0,0.0,0.0,0.0,0.0,0.0,0.0,0.0,0.0,0.0,0.0,0.0,0.0,0.0,0.0,0.0,0.0,0.0,0.0,0.0,0.0,0.0,0.0,0.0,0.0,0.0,0.0,0.0,0.0,0.0,0.0,0.0,0.0,0.0,0.0,0.0,0.0,0.0,0.0,0.0,0.0,0.0,0.0,0.0,0.0,0.0,0.0,0.0,0.0,0.0,0.0,0.0,0.0,0.0,0.0,0.0,0.0,0.0,0.0,0.0,0.0,0.0,0.0,0.0,0.0,0.0,0.0,0.0,0.0,0.0,0.0,0.0,0.0,0.0,0.0,0.0,0.0,0.0,0.0,0.0,0.0,0.0,0.0,0.0,0.0,0.0,0.0,0.0,0.0,0.0,0.0,0.0,0.0,0.0,0.0,0.0,0.0,0.0,0.0,0.0,0.0,0.0,0.0,0.0,0.0,0.0,0.0,0.0,0.0,0.0,0.0,0.0,0.0,0.0,0.0,0.0,0.0,0.0,0.0,0.0,0.0,0.0,0.0,0.0,0.0,0.0,0.0,0.0,0.0,0.0,0.0,0.0,0.0,0.0,0.0,0.0,0.0,0.0,0.0,0.0,0.0,0.0,0.0,0.0,0.0,0.0,0.0,0.0,0.0,0.0,0.0,0.0,0.0,0.0,0.0,0.0,0.0,0.0,0.0,0.0,0.0,0.0,0.0,0.0,0.0,0.0,0.0,0.0,0.0,0.0,0.0,0.0,0.0,0.0,0.0,0.0,0.0,0.0,0.0,0.0,0.0,0.0,0.0,0.0,0.0,0.0,0.0,0.0,0.0,0.0,0.0,0.0,0.0,0.0,0.0,0.0,0.0,0.0,0.0,0.0,0.0,0.0,0.0,0.0,0.0,0.0,0.0,0.0,0.0,0.0,0.0,0.0,0.0,0.0,0.0,0.0,0.0,0.0,0.0,0.0,0.0,0.0,0.0,0.0,0.0,0.0,0.0,0.0,0.0,0.0,0.0,0.0,0.0,0.0,0.0,0.0,0.0,0.0,0.0,0.0,0.0,0.0,0.0,0.0,0.0,0.0,0.0,0.0,0.0,0.0,0.0,0.0,0.0,0.0,0.0,0.0,0.0,0.0,0.0,0.0,0.0,0.0,0.0,0.0,0.0,2.235,2.1464,0.0,0.0,0.0,0.0,0.0,0.0,0.0,0.0,0.0,0.0,0.0,0.0,0.0,0.0,0.0,0.0,0.0,0.0,0.0,0.0,0.0,0.0,0.0,0.0,0.0,0.0,0.0,0.0,0.0,0.0,0.0,0.0,0.0,0.0,0.226,0.2333,0.2333,0.2333,0.2333,0.2333,0.2333,0.2333,0.2333,0.2333,0.0,0.0,0.0,0.0,0.0,0.0,0.0,0.0,0.0,0.0,0.0,0.0,0.0,0.0,0.0,0.0,0.0,0.0,0.0,0.0,0.0,0.0,0.0,0.0,0.0,0.0,0.0,0.0,0.0,0.0,0.0,0.0,0.0,0.0,0.0,0.0,0.0,0.0,0.0,0.0,0.0,0.0,0.0,0.0,0.0,0.0,0.0,0.0,0.0,0.0,0.0,0.0,0.0,0.0,0.0,0.0,0.0,0.0,0.0,0.0,0.0,0.0,0.0,0.0,0.0,0.0,0.0,0.0,0.0,0.0,2.4602,2.3472,0.0,0.0,0.0,0.0,0.0,0.0,0.0,0.0,0.0,0.0,0.0,0.0,0.0,0.0,0.0,0.0,0.0,0.0,0.0,0.0,0.0,0.0,0.0,-0.8791,-0.8851,-0.89,-0.8645,-0.8282,0.0,0.0,0.0,0.0,0.0,-0.0873,0.226,0.2333,0.2333,0.2333,0.2333,0.2333,0.2333,0.2333,0.2333,0.2333,0.2333,0.0,0.0,0.0,0.0,0.0,0.0,0.0,0.0,0.0,0.0,0.0,0.0,0.0,0.0,0.0,0.0,0.0,0.0,0.0,0.0,0.0,0.0,0.0,0.0,0.0,0.0,0.0,0.0,0.0,0.0,0.0,0.0,0.0,0.0,0.0,0.0,0.0,0.0,0.0,0.0,0.0,0.0,0.0,0.0,0.0,0.0,0.0,0.0,0.0,0.0,0.0,0.0,0.0,0.0,0.0,0.0,0.0,0.0,0.0,0.0,0.0,0.0,0.0,2.4965,2.5233,2.5527,2.6284,2.6012,2.5003,2.6583,2.5396,2.2648,2.4748,0.0,0.0,0.0,0.0,0.0,0.0,0.0,0.0,0.0,0.0,0.0,0.0,0.0,0.0,0.0,0.0,0.0,0.0,0.0,0.0,0.0,-0.8867,-0.8906,-0.903,-0.8485,-0.8102,-0.8054,-0.7417,-0.5677,-0.2474,-0.233,-0.0873,0.226,0.2333,0.2333,0.2333,0.2333,0.2333,0.2333,0.2333,0.2333,0.2333,0.2333,0.2333,0.2333,0.0,0.0,0.0,0.0,0.0,0.0,0.0,0.0,0.0,0.0,0.0,0.0,0.0,0.0,0.0,0.0,0.0,0.0,0.0,0.0,0.0,0.0,0.0,0.0,0.0,0.0,0.0,0.0,0.0,0.0,0.0,0.0,0.0,0.0,0.0,0.0,0.0,0.0,0.0,0.0,0.0,1.5023,1.532,0.0,0.0,0.0,0.0,0.0,0.0,0.0,0.0,0.0,0.0,0.0,0.0,0.0,2.4636,2.4636,2.4636,2.4636,2.4636,2.4972,2.5384,2.5684,2.635,2.6718,2.6854,2.777,0.0,2.5358,2.7148,0.0,0.0,0.0,0.0,0.0,0.0,0.0,0.0,0.0,0.0,0.0,0.0,0.0,0.0,0.0,0.0,0.0,0.0,0.0,0.0,0.0,-0.9024,-0.903,-0.922,-0.8729,-0.8318,-0.815,-0.7643,-0.5818,-0.2474,-0.233,-0.0873,0.226,0.2333,0.2333,0.2333,0.2333,0.2333,0.2333,0.2333,0.2333,0.2333,0.2333,0.2333,0.2333,0.2333,0.0,0.0,0.0,0.0,0.0,0.0,0.0,0.0,0.0,0.0,0.0,0.0,0.0,0.0,0.0,0.0,0.0,0.0,0.0,0.0,0.0,0.0,0.0,0.0,0.0,0.0,0.0,0.0,0.0,0.0,0.0,0.0,0.0,0.0,0.0,0.0,0.0,0.0,0.0,1.5489,1.5722,1.8107,1.8779,1.9609,0.0,0.0,0.0,0.0,0.0,0.0,0.0,0.0,0.0,2.4636,2.4784,2.4857,2.4636,2.4784,2.4931,2.4931,2.5079,2.5464,2.5977,2.6735,2.7273,2.7586,2.8288,2.8182,2.7527,2.8339,2.8261,2.7776,0.0,0.0,0.0,0.0,2.8246,2.8944,0.0,0.0,0.0,0.0,0.0,0.0,0.0,0.0,0.0,0.0,0.0,0.0,-0.9052,-0.916,-0.9209,-0.9296,-0.8946,-0.8512,-0.8155,-0.7783,-0.6181,-0.3057,-0.2547,-0.1019,0.1677,0.2114,0.2333,0.2333,0.2333,0.2333,0.2333,0.2333,0.2333,0.2333,0.2333,0.2333,0.2333,0.2333,0.2333,0.2333,0.0,0.0,0.0,0.0,0.0,0.0,0.0,0.0,0.0,0.0,0.0,0.0,0.0,0.0,0.0,0.0,0.0,0.0,0.0,0.0,0.0,0.0,0.0,0.0,0.0,0.0,0.0,0.0,0.0,0.0,0.0,0.0,0.0,0.0,0.0,0.0,0.0,1.5573,1.605,1.9715,1.9255,1.964,0.0,0.0,0.0,0.0,0.0,0.0,2.4515,2.4628,2.4769,2.4918,2.5226,2.5226,2.4931,2.5226,2.5373,2.5373,2.5446,2.5778,2.6298,2.7158,2.7625,2.787,2.8569,2.8886,2.8886,2.8886,2.8886,2.8886,2.8886,2.8886,2.8886,2.8886,2.8886,2.8944,0.0,0.0,0.0,0.0,0.0,0.0,0.0,0.0,0.0,0.0,0.0,-0.9128,-0.9133,-0.9231,-0.9296,-0.9302,-0.8946,-0.8512,-0.8155,-0.7783,-0.6692,-0.4657,-0.313,-0.1529,0.0073,0.1531,0.2333,0.2333,0.2333,0.2333,0.2333,0.2333,0.2333,0.2333,0.2333,0.2333,0.2333,0.2333,0.2333,0.2333,0.2333,0.0,0.0,0.0,0.0,0.0,0.0,0.0,0.0,0.0,0.0,0.0,0.0,0.0,0.0,0.0,0.0,0.0,0.0,0.0,0.0,0.0,0.0,0.0,0.0,0.0,0.0,0.0,0.0,0.0,0.0,0.0,0.0,0.0,0.0,0.0,0.0,0.0,0.0,1.6729,1.796,0.0,0.0,0.0,0.0,2.2968,2.3242,2.3721,2.4238,2.4705,2.5126,2.5712,2.5726,2.5726,2.5726,2.5726,2.58,2.58,2.6166,2.6326,2.6442,2.7432,2.7888,2.7932,2.8622,2.8886,2.8886,2.8886,2.8886,2.8886,2.8886,2.8886,2.8886,2.8886,2.8886,2.8944,0.0,0.0,0.0,0.0,0.0,0.0,0.0,0.0,-0.9378,-0.9258,-0.9242,-0.9242,-0.9242,-0.928,-0.9302,-0.9302,-0.9157,-0.8801,-0.815,-0.8005,-0.6986,-0.4802,-0.3128,-0.1092,0.1457,0.2041,0.2333,0.2333,0.2333,0.2333,0.2333,0.2333,0.2333,0.2333,0.2333,0.2333,0.2333,0.2333,0.2333,0.2333,0.2333,0.2333,0.0,0.0,0.0,0.0,0.0,0.0,0.0,0.0,0.0,0.0,0.0,0.0,0.0,0.0,0.0,0.0,0.0,0.0,0.0,0.0,0.0,0.0,0.0,0.0,0.0,0.0,0.0,0.0,0.0,0.0,0.0,0.0,0.0,0.0,0.0,0.0,0.0,1.7945,1.8399,0.0,2.0433,2.216,2.3283,2.3542,2.3832,2.4219,2.4636,2.4986,2.5268,2.5492,2.5921,2.6093,2.58,2.6093,2.6166,2.6166,2.6312,2.6546,2.6779,2.7363,2.7759,2.7903,2.8417,2.871,2.8886,2.8886,2.8886,2.8886,2.8886,2.8886,2.8886,2.8886,2.8886,2.8944,0.0,0.0,0.0,0.0,0.0,0.0,0.0,0.0,-0.9579,-0.9492,-0.9454,-0.941,-0.9372,-0.9367,-0.9351,-0.9307,-0.9302,-0.8946,-0.815,-0.8078,-0.7349,-0.5531,-0.3421,-0.0873,0.226,0.2333,0.2333,0.2333,0.2333,0.2333,0.2333,0.2333,0.2333,0.2333,0.2333,0.2333,0.2333,0.2333,0.2333,0.2333,0.2333,0.2333,0.2333,0.0,0.0,0.0,0.0,0.0,0.0,0.0,0.0,0.0,0.0,0.0,0.0,0.0,0.0,0.0,0.0,0.0,0.0,0.0,0.0,0.0,0.0,0.0,0.0,0.0,0.0,0.0,0.0,0.0,0.0,0.0,0.0,0.0,0.0,1.5327,1.5385,1.8008,1.8396,1.9008,2.0629,2.2366,2.3557,2.3901,2.426,2.4524,2.4834,2.53,2.5584,2.5697,2.63,2.6473,2.6239,2.6473,2.6619,2.6619,2.6619,2.6765,2.6998,2.7335,2.7656,2.7888,2.8224,2.8608,2.8886,2.8886,2.8886,2.8886,2.8886,2.8886,2.8886,2.8886,2.8886,2.8944,0.0,0.0,0.0,0.0,0.0,0.0,0.0,-0.9916,-0.9835,-0.9835,-0.9731,-0.9617,-0.9492,-0.9481,-0.9432,-0.9313,-0.9302,-0.8946,-0.815,-0.8078,-0.7715,-0.6918,-0.3857,-0.0801,0.226,0.2333,0.2333,0.2333,0.2333,0.2333,0.2333,0.2333,0.2333,0.2333,0.2333,0.2333,0.2333,0.2333,0.2333,0.2333,0.2333,0.2333,0.2333,0.0,0.0,0.0,0.0,0.0,0.0,0.0,0.0,0.0,0.0,0.0,0.0,0.0,0.0,0.0,0.0,0.0,0.0,0.0,0.0,0.0,0.0,0.0,0.0,0.0,0.0,0.0,0.0,0.0,0.0,0.0,0.0,0.0,1.4968,1.4659,1.4942,1.648,1.7684,1.9147,2.0975,2.2503,2.3611,2.3952,2.4292,2.4639,2.5008,2.5618,2.6149,2.6471,2.6808,2.6983,2.6983,2.6983,2.6983,2.6983,2.6983,2.6983,2.6998,2.732,2.7642,2.7888,2.8209,2.8608,2.8886,2.8886,2.8886,2.8886,2.8886,2.8886,2.8886,2.8886,2.8886,2.8988,0.0,0.0,0.0,0.0,0.0,0.0,-1.0019,-0.9916,-0.9807,-0.9726,-0.9612,-0.9492,-0.9367,-0.9356,-0.934,-0.9307,-0.9013,-0.8657,-0.815,-0.786,-0.6475,-0.3712,-0.1675,0.0291,0.226,0.2333,0.2333,0.2333,0.2333,0.2333,0.2333,0.2333,0.2333,0.2333,0.2333,0.2333,0.2333,0.2333,0.2333,0.2333,0.2333,0.2333,0.2333,0.0,0.0,0.0,0.0,0.0,0.0,0.0,0.0,0.0,0.0,0.0,0.0,0.0,0.0,0.0,0.0,0.0,0.0,0.0,0.0,0.0,0.0,0.0,0.0,0.0,0.0,0.0,0.0,0.0,0.0,0.0,1.4968,1.4968,1.4968,1.4659,1.458,1.4942,1.7245,1.8997,1.9484,2.2147,2.3952,2.4374,2.4428,2.4674,2.5047,2.5422,2.5813,2.6135,2.6471,2.6749,2.6983,2.6983,2.6983,2.6983,2.6983,2.6983,2.6998,2.7086,2.7422,2.7874,2.7976,2.8388,2.8886,2.8886,2.8886,2.8886,2.8886,2.8886,2.8886,2.8886,2.8886,2.8988,0.0,0.0,0.0,0.0,0.0,0.0,-1.0019,-0.996,-0.9873,-0.9753,-0.9677,-0.9568,-0.94,-0.9378,-0.9362,-0.9307,-0.909,-0.8729,-0.815,-0.7059,-0.5165,-0.2401,-0.0801,0.0729,0.226,0.2333,0.2333,0.2333,0.2333,0.2333,0.2333,0.2333,0.2333,0.2333,0.2333,0.2333,0.2333,0.2333,0.2333,0.2333,0.2333,0.2333,0.2333,0.2333,0.2333,0.2333,0.2333,0.2341,0.236,0.2408,0.0,0.0,0.0,0.0,0.0,0.0,0.0,0.0,0.0,0.0,0.0,0.0,0.0,0.0,0.0,0.0,0.0,0.0,0.0,0.0,0.0,0.0,0.0,0.0,1.4968,1.4968,1.4968,1.4659,1.4432,1.4432,1.6396,1.7819,1.7959,2.0467,2.249,2.3529,2.3734,2.4142,2.5052,2.5359,2.5681,2.6003,2.6339,2.6661,2.6983,2.6983,2.6983,2.6983,2.6983,2.6983,2.6983,2.6983,2.7349,2.7874,2.7874,2.83,2.8886,2.8886,2.8886,2.8886,0.0,0.0,0.0,0.0,2.8886,2.8959,0.0,0.0,0.0,0.0,0.0,0.0,-0.9998,-0.9987,-0.9938,-0.9813,-0.9796,-0.9715,-0.9492,-0.9465,-0.9421,-0.9313,-0.923,-0.8946,-0.815,-0.6039,-0.4075,-0.2474,-0.0874,0.0656,0.226,0.2333,0.2333,0.2333,0.2333,0.2333,0.2333,0.2333,0.2333,0.2333,0.2333,0.2333,0.2333,0.2333,0.2333,0.2333,0.2333,0.2333,0.2333,0.2333,0.2333,0.2333,0.2333,0.2352,0.2383,0.2413,0.0,0.0,0.0,0.0,0.0,0.0,0.0,0.0,0.0,0.0,0.0,0.0,0.0,0.0,0.0,0.0,0.0,0.0,0.0,0.0,0.0,0.0,0.0,0.0,1.4968,1.4968,1.4968,1.4659,1.4432,1.4432,1.548,1.6362,1.6705,1.86,2.0479,2.2203,2.2751,2.3584,2.4984,2.533,0.0,0.0,0.0,2.6617,2.6983,2.6983,2.6983,2.6983,2.6983,2.6983,2.6983,2.6983,2.732,2.783,2.7859,2.8286,2.8842,2.8871,2.8886,2.8886,2.8886,2.8886,2.8886,2.8886,2.8886,2.8944,0.0,0.0,0.0,0.0,0.0,0.0,-0.9873,-0.9796,-0.9693,-0.9574,-0.9552,-0.9497,-0.9356,-0.934,-0.9329,-0.9307,-0.9018,-0.8584,-0.815,-0.6547,-0.4727,-0.2836,-0.1309,0.0364,0.226,0.2333,0.2333,0.2333,0.2333,0.2333,0.2333,0.2333,0.2333,0.2333,0.2333,0.2333,0.2333,0.2333,0.2333,0.2333,0.2333,0.2333,0.2333,0.2333,0.2333,0.2333,0.2333,0.2352,0.2383,0.2413,0.2672,0.3245,0.4608,0.548,0.0,0.0,0.0,0.0,0.0,0.0,0.0,0.0,0.0,0.0,0.0,0.0,0.0,0.0,0.0,0.0,0.0,0.0,0.0,1.4968,1.4968,1.4968,1.4968,1.4659,1.4432,1.4432,1.5687,1.6705,1.7117,1.9634,2.1653,2.2614,2.3584,2.4292,2.4578,2.4975,2.528,2.5581,2.5935,2.6398,2.6983,2.6983,2.6983,2.6983,2.6983,0.0,2.6983,2.6983,2.7203,2.7583,2.7847,2.8093,2.8549,2.8783,2.8886,2.8886,2.8886,2.8886,2.8886,2.8886,2.8886,2.8944,0.0,0.0,0.0,0.0,0.0,0.0,-0.9753,-0.9704,-0.9628,-0.9503,-0.9487,-0.9438,-0.9318,-0.9302,-0.9302,-0.9302,-0.8946,-0.8584,-0.844,-0.6765,-0.5017,-0.3272,-0.1527,0.0218,0.2041,0.2187,0.2333,0.2333,0.2333,0.2333,0.2333,0.2333,0.2333,0.2333,0.2333,0.2333,0.2333,0.2333,0.2333,0.2333,0.2333,0.2333,0.2333,0.2333,0.2333,0.2335,0.235,0.2375,0.2405,0.2436,0.2466,0.2649,0.3447,0.3922,0.4388,0.0,0.0,0.0,0.0,0.0,0.0,0.0,0.0,0.0,0.0,0.0,0.0,0.0,0.0,1.4968,1.4968,0.0,1.4968,1.4968,1.4968,1.4968,1.4968,1.4741,1.4538,1.444,1.5119,1.5664,1.5867,1.7409,1.9158,2.102,2.1158,2.2134,2.436,2.4156,2.4507,2.5707,2.5947,2.6325,2.6983,2.6983,2.6983,2.6983,2.6983,2.6983,2.6983,2.6983,2.7174,2.7495,2.7817,2.8063,2.8461,2.8769,2.8886,2.8886,2.8886,2.8886,2.8886,2.8886,2.8886,2.8915,0.0,0.0,0.0,0.0,0.0,0.0,0.0,-0.9612,-0.9563,-0.9465,-0.9454,-0.9416,-0.9313,-0.9302,-0.9302,-0.9302,-0.9018,-0.8801,-0.8801,-0.7344,-0.5742,-0.4143,-0.2544,-0.08,0.1166,0.153,0.1895,0.2187,0.226,0.2333,0.2333,0.2333,0.2333,0.2333,0.2333,0.2333,0.2333,0.2333,0.2333,0.2333,0.2333,0.2337,0.2342,0.2342,0.2342,0.2346,0.2376,0.2406,0.2436,0.2461,0.2489,0.2514,0.2514,0.2514,0.2828,0.4544,0.5011,0.0,0.0,0.0,0.0,0.0,0.0,0.0,0.0,1.4968,1.4968,1.4968,1.4968,1.4968,1.4968,1.4968,1.4968,1.4968,1.4968,1.4968,1.4968,1.4822,1.4643,1.4456,1.4438,1.4445,1.4483,1.4972,1.6372,1.8879,1.853,1.9912,2.3734,2.3174,2.3653,2.5848,2.5877,2.6254,2.6983,2.6983,2.6983,2.6983,2.6983,2.6983,2.6983,2.6983,2.713,2.7408,2.7788,2.8093,2.8549,2.8783,2.8886,2.8886,2.8886,2.8886,2.8886,2.8886,2.8886,2.8886,0.0,0.0,0.0,0.0,0.0,0.0,0.0,0.0,-0.934,-0.9329,-0.9323,-0.9318,-0.9307,-0.9302,-0.9302,-0.9302,-0.923,-0.923,-0.923,-0.9013,-0.8068,-0.6177,-0.5884,-0.4213,-0.0946,-0.0509,0.0437,0.1822,0.2187,0.2333,0.2333,0.2333,0.2333,0.2333,0.2333,0.2333,0.2333,0.2333,0.2333,0.2333,0.2333,0.2349,0.2373,0.2373,0.2373,0.2378,0.2408,0.2438,0.2465,0.2467,0.2489,0.2514,0.2514,0.2514,0.2514,0.2749,0.2828,0.3376,0.5874,0.9449,1.2404,1.232,1.3637,1.4968,0.0,1.4968,1.4968,1.4968,1.4968,1.4968,1.4968,1.4968,1.4968,1.4968,1.4968,1.4968,1.4968,1.4822,1.4643,1.4456,1.4261,1.4299,1.4491,1.5735,1.6775,1.7469,1.8938,2.0397,2.1928,2.2203,2.3321,2.5496,2.5525,2.604,2.6983,2.6983,2.6983,2.6983,2.6983,2.6983,2.6983,2.6983,2.7013,2.7086,2.7686,2.8286,2.8842,2.8871,2.8886,2.8886,2.8886,2.8886,2.8886,2.8886,2.8886,2.8886,0.0,0.0,0.0,0.0,0.0,0.0,0.0,0.0,0.0,-0.9302,-0.9302,-0.9302,-0.9302,-0.9302,-0.9302,-0.9302,-0.9302,-0.9302,-0.9302,-0.9302,-0.8502,-0.6833,-0.654,-0.5304,-0.2907,-0.16,-0.0509,0.0437,0.1457,0.2114,0.2333,0.2333,0.2333,0.2333,0.2333,0.2333,0.2333,0.2333,0.2333,0.2334,0.2352,0.2367,0.2382,0.2417,0.2431,0.2432,0.2446,0.2458,0.0,0.2489,0.2504,0.2514,0.2514,0.2514,0.2514,0.2514,0.2514,0.3297,0.6725,0.8978,1.0845,1.3098,1.4337,1.4968,1.4968,1.4968,1.4968,1.4968,1.4968,1.4968,1.4968,1.4968,1.4968,1.4968,1.4968,1.4968,1.4968,1.4903,1.4789,1.4611,1.4432,1.4359,1.4508,1.5248,1.616,1.7208,1.7208,1.804,2.0271,1.9773,2.0356,2.2308,2.3545,2.4484,2.5245,2.6385,2.6983,2.6983,2.6983,2.6983,2.6983,2.6983,2.7188,2.7569,2.7757,2.83,2.8886,2.8886,2.8886,2.8886,2.8886,2.8886,2.8886,2.8886,2.8886,2.8886,0.0,0.0,0.0,0.0,0.0,0.0,0.0,0.0,0.0,0.0,-0.9302,-0.9302,-0.9302,-0.9302,-0.9302,-0.9302,-0.9302,-0.9302,-0.9302,-0.9302,-0.8796,-0.7706,-0.734,-0.6463,-0.4939,-0.2979,-0.1673,-0.0873,0.0801,0.175,0.1969,0.1969,0.2041,0.2187,0.2187,0.2187,0.2334,0.2342,0.2345,0.2348,0.2379,0.2395,0.2408,0.2453,0.2474,0.2481,0.2481,0.2481,0.2485,0.2507,0.2514,0.2514,0.2514,0.2514,0.2514,0.2514,0.2592,0.3374,0.68,0.8201,0.9599,1.3098,1.4422,1.4891,1.4968,1.4968,1.4968,1.4968,1.4968,1.4968,1.4968,1.4968,1.4968,1.4968,1.4968,1.4968,1.4968,1.4968,1.4903,1.4732,1.4586,1.4441,1.4449,1.458,1.5177,1.6301,1.5461,1.6018,1.86,1.7679,1.8099,2.0287,2.2035,2.3248,2.3979,2.5786,2.6692,2.6838,2.6838,2.691,2.6983,2.6983,2.7349,2.7874,2.7874,2.83,2.8886,2.8886,2.8886,2.8886,2.8886,2.8886,2.8886,2.8886,2.8886,2.8886,0.0,0.0,0.0,0.0,0.0,0.0,0.0,0.0,0.0,0.0,0.0,0.0,0.0,-0.9302,-0.9302,-0.9302,-0.9302,-0.9302,-0.9302,-0.9302,-0.9302,-0.923,-0.923,-0.8502,-0.6978,-0.5011,-0.327,-0.1674,0.0292,0.1241,0.1241,0.1241,0.1459,0.1822,0.1822,0.1968,0.2335,0.2364,0.2376,0.2379,0.241,0.244,0.2466,0.2469,0.2487,0.2512,0.2512,0.2512,0.2512,0.2514,0.2514,0.2514,0.2514,0.2514,0.2514,0.2514,0.2748,0.3374,0.4779,0.6885,0.9221,1.0856,1.2881,1.4515,1.4891,1.4968,1.4968,1.4968,1.4968,1.4968,1.4968,1.4968,1.4968,1.4968,1.4968,1.4968,1.4968,1.4968,1.4903,1.4732,1.47,1.4562,1.4205,1.401,1.3975,1.3967,1.4332,1.5177,1.6705,1.6705,1.7957,2.0719,2.1689,2.2768,2.4005,2.5198,2.6019,2.6385,2.6385,2.6619,2.6983,2.6983,2.7349,2.7874,2.7874,2.83,2.8886,2.8886,2.8886,2.8886,2.8886,2.8886,2.8886,2.8886,2.8886,2.8886,0.0,0.0,0.0,0.0,0.0,0.0,0.0,0.0,0.0,0.0,0.0,0.0,0.0,0.0,0.0,0.0,-0.9302,-0.9302,-0.9302,-0.9302,-0.9302,-0.9302,-0.9302,-0.9085,-0.8507,-0.6902,-0.5594,-0.4796,-0.3127,-0.1674,-0.0364,-0.0364,0.0219,0.1387,0.1691,0.1846,0.1995,0.2246,0.2408,0.241,0.2442,0.2459,0.2472,0.2491,0.2506,0.2514,0.0,0.2514,0.2514,0.2514,0.2514,0.2514,0.2514,0.2514,0.251,0.2491,0.2576,0.3135,0.4887,0.684,0.8828,1.0695,1.2804,1.4446,1.4592,1.4814,1.4968,1.4968,1.4968,1.4968,1.4968,1.4968,1.4968,1.4968,1.4968,1.4968,1.4968,1.4968,1.4944,1.4887,1.4773,1.4659,1.4538,1.4473,1.4386,1.4269,1.4403,1.4688,1.5248,1.5086,1.5478,1.6526,1.8287,1.9985,2.159,2.3313,2.4964,2.6399,2.6692,2.6838,2.6983,2.6692,2.7113,2.7874,2.7647,2.8085,2.8886,2.8886,2.8886,2.8886,2.8886,2.8886,2.8886,2.8886,2.8886,2.8886,0.0,0.0,0.0,0.0,0.0,0.0,0.0,0.0,0.0,0.0,0.0,0.0,0.0,0.0,0.0,0.0,0.0,-0.9302,-0.9302,-0.9302,-0.9302,-0.9302,-0.9302,-0.9302,-0.9302,-0.7779,-0.6906,-0.6612,-0.511,-0.3732,-0.249,-0.1914,-0.1034,0.0148,0.0969,0.1422,0.1647,0.2048,0.221,0.2213,0.2396,0.2485,0.2488,0.2507,0.2514,0.0,0.2514,0.2514,0.2514,0.2514,0.2514,0.2514,0.2514,0.2507,0.2496,0.2488,0.2491,0.2884,0.4882,0.6142,0.7661,1.0308,1.2024,1.3274,1.3975,1.4515,1.4814,1.4814,1.4891,1.4968,1.4968,1.4968,1.4968,1.4968,1.4968,1.4968,1.4968,1.4968,1.4968,1.4968,1.4871,1.4773,1.4716,1.472,1.4627,1.4377,1.4361,1.4361,1.4361,1.426,1.4359,1.4745,1.6489,1.8435,2.0391,2.1515,2.3091,2.5111,2.5492,2.6019,2.6546,2.6312,2.6743,2.7723,2.7496,2.8009,2.8886,2.8886,2.8886,2.8886,2.8886,2.8886,2.8886,2.8886,2.8886,2.8886,0.0,0.0,0.0,0.0,0.0,0.0,0.0,0.0,0.0,0.0,0.0,0.0,0.0,0.0,0.0,0.0,0.0,0.0,-0.9323,-0.9323,-0.9323,-0.9323,-0.9323,-0.9323,-0.9323,-0.7865,-0.714,-0.714,-0.575,-0.5043,-0.4895,-0.3456,-0.242,-0.1891,-0.0227,0.0758,0.1213,0.1613,0.1853,0.1855,0.2347,0.2514,0.2514,0.2514,0.2514,0.2514,0.2514,0.2514,0.2514,0.2514,0.2514,0.2514,0.2514,0.2495,0.2477,0.2504,0.2492,0.2864,0.4452,0.4933,0.587,0.9532,1.0546,1.1172,1.3197,1.4053,1.4368,1.4368,1.4737,1.4968,1.4968,1.4968,1.4968,1.4968,1.4968,1.4968,1.4968,1.4968,1.4968,1.4968,0.0,0.0,0.0,0.0,1.4578,1.4229,1.4196,1.4188,1.4188,1.4196,1.458,1.5286,1.6421,1.8016,2.0252,1.9962,2.0853,2.2781,2.3227,2.4214,2.58,2.5814,2.6372,2.742,2.7359,2.7932,2.8886,2.8886,2.8886,2.8886,2.8886,2.8886,2.8886,2.8886,2.8886,2.8886,0.0,0.0,0.0,0.0,0.0,0.0,0.0,0.0,0.0,0.0,0.0,0.0,0.0,0.0,0.0,0.0,0.0,0.0,-0.9579,-0.9579,-0.9579,-0.9579,-0.9579,-0.9579,-0.9579,-0.9202,-0.8979,-0.8979,-0.8631,-0.7814,-0.6683,-0.6255,-0.4756,-0.2346,-0.1602,-0.0307,0.1306,0.1712,0.2034,0.2347,0.2433,0.2514,0.2514,0.2514,0.2514,0.2514,0.2514,0.2514,0.2514,0.2514,0.2514,0.2514,0.2514,0.2508,0.25,0.2485,0.2491,0.2577,0.3025,0.405,0.5561,0.7747,0.9459,1.1095,1.2888,1.3821,1.4368,1.4368,1.4737,1.4968,1.4968,1.4968,1.4968,1.4968,1.4968,1.4968,1.4968,1.4968,0.0,1.4968,0.0,1.4952,1.4903,1.4903,0.0,1.4586,1.4448,1.4367,1.4367,1.4497,1.4686,1.4851,1.5286,1.6353,1.8158,1.9575,2.1141,2.2781,2.3227,2.4214,2.58,2.5755,2.6374,2.7359,2.7282,2.7903,2.8886,2.8886,2.8886,2.8886,2.8886,2.8886,2.8886,2.8886,2.8886,2.8886,0.0,0.0,0.0,0.0,0.0,0.0,0.0,0.0,0.0,0.0,0.0,0.0,0.0,0.0,0.0,0.0,0.0,0.0,0.0,-0.9671,-0.9671,-0.9671,-0.9671,-0.9671,-0.9671,-0.9671,-0.9671,-0.9671,-0.972,-0.9283,-0.8365,-0.7722,-0.6444,-0.4606,-0.2938,-0.1474,-0.0311,0.1096,0.1728,0.0,0.0,0.2514,0.2514,0.2514,0.2514,0.2514,0.2514,0.2514,0.2514,0.0,0.0,0.2514,0.2514,0.2506,0.2493,0.2489,0.2492,0.2493,0.2489,0.3201,0.4312,0.5952,0.7825,0.9692,1.1327,1.2965,1.4053,1.4053,1.4584,1.4968,1.4968,1.4968,1.4968,0.0,0.0,0.0,1.4968,1.4968,1.4968,0.0,1.4968,0.0,1.4968,1.4968,1.4927,1.483,1.4659,1.4554,1.4554,1.4651,1.4741,1.4822,1.4911,1.542,1.6339,1.8138,1.9865,2.1527,2.1751,2.3029,2.5299,2.5391,2.5917,2.6828,2.6906,2.7431,2.8339,2.8339,2.8339,2.8417,2.8588,2.8666,2.8666,2.8808,2.8886,2.8886,0.0,0.0,0.0,0.0,0.0,0.0,0.0,0.0,0.0,0.0,-0.9704,0.0,0.0,0.0,0.0,0.0,0.0,0.0,0.0,0.0,-0.9715,-0.9715,-0.9715,-0.9715,-0.9715,-0.9715,-0.9715,-0.9715,-0.9813,-0.9862,-0.9785,-0.8489,-0.7751,-0.7357,-0.4464,-0.2977,-0.2585,-0.0157,0.0942,0.1099,0.2043,0.2435,0.2514,0.0,0.2514,0.2514,0.2514,0.2514,0.2514,0.0,0.2514,0.2514,0.2514,0.2496,0.248,0.2507,0.2495,0.2481,0.2507,0.2514,0.2905,0.4547,0.6264,0.7903,0.962,1.1953,1.3667,1.3667,1.4353,1.4976,1.5,1.4984,1.4976,1.5,0.0,1.4968,1.4968,1.4968,1.4968,1.4968,1.4968,1.4968,1.4968,1.4968,1.4968,1.4968,1.483,1.4741,1.4741,1.4741,1.4814,1.496,1.4968,1.4968,1.4968,1.6415,1.8006,1.9811,1.9811,2.1475,2.4649,2.4983,2.5505,2.6142,2.6498,2.702,2.7633,2.7633,2.7633,2.7726,2.804,2.8289,2.8368,2.8666,2.8808,2.8886,0.0,0.0,0.0,0.0,0.0,0.0,0.0,0.0,0.0,0.0,-0.9873,-0.9807,0.0,0.0,0.0,0.0,0.0,0.0,0.0,0.0,0.0,-0.996,-0.996,-0.996,-0.996,-0.996,-0.996,-0.996,-0.9981,-0.9987,-0.9987,-0.9698,-0.8847,-0.7435,-0.6889,-0.5714,-0.3916,-0.2115,-0.094,-0.0157,0.1413,0.22,0.2514,0.2514,0.0,0.0,0.2514,0.2514,0.2514,0.2514,0.2514,0.2514,0.2514,0.2511,0.2507,0.2512,0.251,0.2507,0.2512,0.2514,0.2905,0.4547,0.6264,0.7903,0.962,1.1953,0.0,1.3667,1.4353,1.5009,1.5163,1.5065,1.5017,1.5171,1.5065,1.4968,1.4968,1.4968,1.4968,0.0,1.4968,1.4968,1.4968,1.4968,0.0,0.0,1.4935,1.4919,1.4919,1.4919,1.4935,1.4968,1.4968,1.4968,1.4968,1.5267,1.6864,1.9811,1.9811,2.1475,2.4649,2.5197,2.5693,2.6156,2.6717,2.7213,2.7647,2.7633,2.7633,2.7633,2.7712,2.7961,2.8289,2.8368,2.8588,2.8886,0.0,0.0,0.0,0.0,0.0,0.0,0.0,-1.0019,-1.0019,-1.0019,-0.997,-0.9932,-0.9932,-0.9987,-1.0019,0.0,0.0,0.0,0.0,0.0,0.0,0.0,-1.0019,-1.0019,-1.0019,-1.0019,-1.0019,-1.0019,0.0,-1.0019,-1.0019,-1.0019,-0.9547,-0.8769,-0.7907,-0.6967,-0.587,-0.3053,-0.1645,-0.1097,0.0785,0.1807,0.22,0.0,0.0,0.0,0.0,0.0,0.2514,0.2514,0.2514,0.2514,0.2514,0.2514,0.2514,0.2514,0.2514,0.2514,0.2514,0.2514,0.2671,0.3531,0.4938,0.6655,0.8292,0.0,0.0,0.0,1.4485,1.5163,1.535,1.5309,0.0,1.5244,1.5163,1.5074,1.4976,1.4968,1.4968,1.4968,1.4968,1.4968,1.4968,1.4968,1.4968,1.4968,1.4968,1.4968,1.4968,1.4968,1.4968,1.4968,1.4968,1.4968,1.4968,1.4968,1.6186,1.8527,1.8527,2.0263,2.3377,2.4011,2.4802,2.5851,2.6445,2.6781,2.7018,2.7018,2.7018,2.7004,2.7476,2.7712,2.7961,2.8431,2.8744,2.8886,0.0,0.0,0.0,0.0,0.0,0.0,0.0,-1.0019,-1.0019,-1.0019,-1.0019,-1.0019,-1.0019,-1.0019,-1.0019,0.0,0.0,0.0,0.0,0.0,0.0,0.0,0.0,0.0,0.0,0.0,0.0,-1.0019,-1.0019,0.0,0.0,0.0,0.0,0.0,-0.8063,-0.7279,-0.6733,-0.3445,-0.1959,0.0,0.0,0.1571,0.0,0.0,0.0,0.0,0.0,0.0,0.2514,0.0,0.2514,0.2514,0.2514,0.2514,0.2514,0.2514,0.2514,0.2514,0.2514,0.2514,0.2514,0.2514,0.3766,0.5327,0.6655,0.9085,0.0,1.3155,1.4319,1.5192,1.5536,1.5545,1.548,0.0,1.5285,1.5187,1.5041,1.4992,1.4968,0.0,1.4968,0.0,1.4968,1.4968,0.0,1.4968,1.4968,1.4968,1.4968,1.4968,1.4968,1.4968,1.4968,1.4968,1.4968,1.4968,1.5803,1.7407,1.7407,1.9088,2.2331,2.2879,2.3982,2.5638,2.6159,2.6386,2.6386,2.6386,2.6386,2.6465,2.7083,2.7398,2.7555,2.8261,2.8573,2.8651,0.0,0.0,0.0,0.0,0.0,0.0,0.0,-1.0019,-1.0019,-1.0019,-1.0019,-1.0019,-1.0019,-1.0019,-1.0019,0.0,0.0,0.0,0.0,0.0,0.0,0.0,0.0,0.0,0.0,0.0,0.0,-1.0019,-1.0019,0.0,0.0,0.0,0.0,0.0,0.0,-0.6655,-0.5092,-0.3212,0.0,0.0,0.0,0.0,0.0,0.0,0.0,0.0,0.0,0.2514,0.0,0.0,0.0,0.2514,0.2514,0.2514,0.2514,0.2514,0.0,0.0,0.2514,0.2514,0.2514,0.2514,0.3766,0.5014,0.517,0.0,1.1027,1.1591,1.3375,1.5058,1.5635,1.5618,1.5561,1.5699,1.5447,1.5236,1.5212,1.5074,1.4968,1.4968,0.0,0.0,1.4968,1.4968,1.4968,1.4968,1.4968,1.4968,1.4968,1.4968,1.4968,1.4968,1.4968,1.4968,1.4968,1.4968,1.5803,1.7407,1.7407,1.9247,2.2673,2.2963,2.416,2.5932,2.6253,2.6386,2.6386,2.6386,2.6386,2.6386,2.6465,2.6702,2.7032,2.7189,2.7412,2.7712,0.0,0.0,0.0,0.0,0.0,0.0,-1.0019,-1.0019,-1.0019,-1.0019,-1.0019,-1.0019,-1.0019,-1.0019,-1.0019,-1.0019,0.0,0.0,0.0,0.0,0.0,0.0,0.0,0.0,0.0,0.0,-1.0019,-1.0019,-1.0019,0.0,0.0,0.0,0.0,0.0,0.0,-0.6339,-0.4857,-0.2977,0.0,0.0,0.0,0.0,0.0,0.0,0.0,0.0,0.0,0.0,0.2514,0.0,0.0,0.0,0.2514,0.2514,0.0,0.0,0.2514,0.2514,0.2514,0.2514,0.2514,0.2514,0.2983,0.3766,0.4779,0.0,0.9718,1.0986,1.321,1.5077,1.5494,1.5715,1.5821,1.578,1.565,1.5488,1.5268,1.5179,1.509,1.4976,1.4968,0.0,0.0,0.0,1.4968,1.4968,1.4968,1.4968,1.4968,1.4968,1.4968,1.4968,1.4968,1.4968,1.4968,1.4968,1.5344,1.5956,1.5956,1.7272,1.9706,2.1024,2.2685,2.4528,2.5859,2.6386,2.6386,2.6386,2.6386,2.6386,2.6702,2.6874,2.7032,2.7254,2.7476,2.7633,0.0,0.0,0.0,0.0,0.0,-1.0019,-1.0019,-1.0019,-1.0019,-1.0019,-1.0019,-1.0019,-1.0019,-1.0019,-1.0019,-1.0019,-1.0019,0.0,0.0,0.0,0.0,0.0,0.0,0.0,0.0,0.0,-1.0019,-1.0019,-1.0019,-1.0019,0.0,0.0,-0.8691,-0.6577,0.0,0.0,0.0,0.0,0.0,0.0,0.0,0.0,0.0,0.0,0.0,0.0,0.0,0.0,0.0,0.0,0.0,0.0,0.0,0.2514,0.2514,0.0,0.2514,0.2514,0.2514,0.2514,0.2514,0.2514,0.2514,0.2829,0.0,0.0,0.8664,1.0136,1.2713,1.4921,1.5358,1.5628,1.5835,1.5878,1.5813,1.5683,1.5431,1.5309,0.0,0.0,0.0,1.4968,1.4968,1.4968,1.4968,1.4968,1.4968,1.4968,1.4968,1.4968,1.4968,1.4968,1.4968,1.4968,1.4968,1.4968,1.4968,1.4968,1.5017,1.6293,1.865,2.0121,2.2086,2.4406,2.5806,2.6386,2.6386,2.6386,2.6386,2.6465,2.6716,2.6795,2.686,2.7175,2.724,2.724,0.0,0.0,0.0,0.0,0.0,0.0,-1.0019,-1.0019,-1.0019,-1.0019,-1.0019,-1.0019,-1.0019,-1.0019,-1.0019,-1.0019,-1.0019,0.0,0.0,0.0,0.0,0.0,0.0,0.0,0.0,0.0,-1.0019,-1.0019,-1.0019,-1.0019,-1.0019,-0.9558,-0.7595,-0.4464,0.0,0.0,0.0,0.0,0.0,0.0,0.0,0.0,0.0,0.0,0.0,0.0,0.0,0.0,0.0,0.0,0.0,0.0,0.0,0.2514,0.2514,0.2514,0.2514,0.2514,0.2514,0.2514,0.2514,0.2514,0.2514,0.2522,0.0,0.0,0.8127,0.8621,1.1623,1.4397,1.5216,1.5381,1.5546,1.5958,1.5894,1.5772,1.5772,1.5463,0.0,0.0,0.0,1.4968,1.4968,1.4968,1.4968,1.4968,1.4968,1.4968,1.4968,1.4968,1.4968,1.4968,1.4968,1.4968,1.4968,1.4968,1.4968,1.4968,1.5147,1.7111,2.0678,2.0906,2.2985,2.6386,2.6386,2.6386,2.6386,2.6386,2.6386,2.6386,2.6386,2.6386,2.6386,2.6386,2.6386,2.6386,0.0,0.0,0.0,0.0,0.0,0.0,0.0,-1.0269,-1.0269,-1.0269,-1.0269,-1.0269,-1.0269,-1.0199,-1.0144,-1.0144,-1.0068,0.0,0.0,0.0,0.0,0.0,0.0,0.0,0.0,-1.0019,-1.0019,-1.0019,-0.8847,-0.8847,-0.9942,-0.7517,-0.5717,-0.4307,-0.2897,-0.0941,0.0,0.0,0.0,0.0,0.0,0.0,0.2514,0.0,0.0,0.0,0.0,0.0,0.0,0.0,0.0,0.0,0.0,0.0,0.0,0.2514,0.2514,0.2514,0.2514,0.2514,0.2514,0.2514,0.253,0.2548,0.2557,0.4459,0.6571,0.7905,1.0381,1.2797,1.4631,1.5216,1.5546,1.5966,1.5999,1.5918,0.0,0.0,0.0,1.5252,1.5074,1.4968,0.0,1.4968,1.4968,1.4968,1.4968,1.4968,1.4968,1.4968,1.4968,1.4968,1.4968,1.4968,1.4968,1.4968,1.4968,1.4968,1.5147,1.6494,1.8956,2.0353,2.235,2.4706,2.5911,2.6386,2.6386,2.6386,2.6386,2.6386,2.6386,2.6386,2.6386,2.6386,2.6386,2.6386,0.0,0.0,0.0,0.0,0.0,0.0,0.0,-1.0384,-1.0384,-1.0384,-1.0384,-1.0384,-1.0384,-1.0318,-1.0275,-1.0275,-1.0204,0.0,0.0,0.0,0.0,0.0,0.0,0.0,-1.0019,-1.0019,-0.9708,-0.908,-0.7985,-0.8063,-0.9003,-0.5949,-0.4385,-0.407,-0.1958,0.0078,0.0,0.0,0.0,0.0,0.0,0.0,0.2514,0.0,0.0,0.0,0.0,0.0,0.0,0.0,0.0,0.0,0.0,0.0,0.0,0.0,0.2522,0.2529,0.2518,0.2514,0.2517,0.2529,0.2545,0.2566,0.2587,0.0,0.5622,0.6801,0.9252,1.1629,1.3211,1.4375,1.5298,1.5711,1.5883,1.6008,0.0,0.0,0.0,1.5268,0.0,0.0,1.4968,1.4968,1.4968,1.4968,1.4968,1.4968,1.4968,1.4968,1.4968,1.4968,1.4968,1.4968,1.4968,1.4968,1.5,1.5074,1.5252,1.6687,1.9233,2.049,2.2442,2.4773,2.5263,2.5422,0.0,2.5422,2.5422,2.5502,2.6149,2.6386,2.6386,2.6386,2.6386,2.6386,0.0,0.0,0.0,0.0,0.0,0.0,0.0,-1.0411,-1.0411,-1.0411,-1.0411,-1.0411,-1.0411,-1.0405,-1.04,-1.04,0.0,0.0,0.0,0.0,0.0,0.0,0.0,0.0,-1.003,-1.003,-0.9246,-0.7673,-0.7435,-0.7357,-0.7435,-0.4696,-0.3521,-0.3519,-0.1332,0.0628,0.0,0.0,0.0,0.0,0.2514,0.2514,0.0,0.0,0.0,0.0,0.0,0.0,0.0,0.0,0.0,0.0,0.0,0.0,0.0,0.0,0.0,0.0,0.0,0.2521,0.2527,0.2556,0.2564,0.2581,0.2635,0.3888,0.0,0.536,0.8127,1.0721,1.1291,1.3211,1.4878,1.5298,1.5711,1.5966,0.0,1.5886,0.0,0.0,1.509,1.4984,1.4968,1.4968,1.4968,1.4968,1.4968,1.4968,1.4968,1.4968,1.4968,1.4968,1.4968,1.4968,1.4968,1.4976,1.5074,1.5166,1.5439,1.7349,2.0787,2.0943,2.2831,2.5898,2.4295,2.3656,2.3656,2.3656,2.3656,2.3976,2.5581,2.6307,2.6386,2.6386,2.6386,2.6386,0.0,0.0,0.0,0.0,0.0,0.0,0.0,0.0,0.0,0.0,-1.0655,-1.0655,-1.0655,-1.0574,-1.0514,0.0,0.0,0.0,0.0,0.0,0.0,0.0,0.0,0.0,-1.0161,-1.0161,-0.9876,-0.9392,-0.6811,-0.6108,-0.6963,-0.2507,-0.0784,-0.1252,0.0549,0.1728,0.0,0.0,0.0,0.0,0.2514,0.2514,0.0,0.0,0.0,0.0,0.2514,0.2514,0.0,0.0,0.0,0.0,0.0,0.0,0.0,0.0,0.257,0.259,0.2583,0.0,0.2583,0.259,0.2609,0.263,0.0,0.2998,0.3686,0.0,0.0,0.0,1.1042,1.3211,1.4878,1.5298,1.5711,1.5966,1.5966,1.5886,0.0,1.5285,1.5204,1.5122,1.4976,1.4968,1.4968,1.4968,1.4968,1.4968,1.4968,1.4968,1.4968,1.4968,1.4968,1.4968,1.4968,1.5106,1.5195,1.5166,1.5561,1.6851,1.9054,1.9179,2.0403,2.243,2.2028,2.1786,2.1786,2.1786,2.2591,2.3816,2.4215,2.5263,2.6386,2.6386,2.6386,2.6386,0.0,0.0,0.0,0.0,0.0,0.0,0.0,0.0,0.0,0.0,0.0,-1.0737,-1.0737,-1.0677,0.0,0.0,0.0,0.0,0.0,0.0,0.0,0.0,0.0,-1.0356,-1.0291,-1.0286,-0.985,-0.9065,-0.6204,-0.5156,-0.5758,-0.1028,0.0552,-0.0548,0.1334,0.2278,0.2514,0.2514,0.2514,0.2514,0.2514,0.0,0.0,0.0,0.0,0.0,0.2514,0.2514,0.0,0.2514,0.2523,0.2536,0.0,0.0,0.0,0.0,0.26,0.2623,0.2623,0.2612,0.2605,0.2619,0.2635,0.2567,0.2665,0.268,0.0,0.0,0.0,0.0,0.0,1.2382,1.4473,1.4721,1.5298,0.0,0.0,0.0,1.5465,1.5504,1.5342,1.5195,1.5098,1.5017,1.4968,1.4968,1.4968,1.4968,1.4968,1.4968,1.4968,1.4968,1.5049,1.509,1.509,1.5187,1.5325,1.5488,1.5683,1.6776,1.8465,1.8579,1.9511,2.1141,2.0322,1.9998,2.0079,2.0899,2.1786,2.2763,2.4375,2.5581,2.6386,2.6386,2.6386,2.6386,0.0,0.0,0.0,0.0,0.0,0.0,0.0,0.0,0.0,0.0,0.0,0.0,0.0,0.0,0.0,0.0,0.0,0.0,0.0,0.0,0.0,0.0,-1.0438,-1.0433,-1.0411,-1.033,-0.9587,-0.8186,-0.5671,-0.4356,-0.4312,-0.008,0.1194,0.0,0.1728,0.2514,0.2514,0.2514,0.2514,0.2514,0.2514,0.0,0.0,0.0,0.0,0.0,0.0,0.0,0.0,0.2519,0.2538,0.256,0.2564,0.0,0.0,0.0,0.0,0.0,0.2654,0.2635,0.2622,0.2647,0.2654,0.2661,0.2687,0.0,0.0,0.0,0.0,0.0,0.0,1.1137,1.3811,1.4066,1.4811,0.0,1.5966,1.5591,1.5407,1.578,1.5504,1.5309,1.5285,1.5139,1.5049,1.5049,1.5049,1.5049,1.5049,1.5049,1.5049,1.5049,1.5204,1.5293,1.5317,1.5317,1.5472,1.5772,1.5796,1.67,1.8218,1.8218,1.9033,2.0332,1.887,1.8381,1.8708,2.016,2.1141,2.1867,2.4853,2.6149,2.6386,2.6386,2.6386,2.6386,0.0,0.0,0.0,0.0,0.0,0.0,0.0,0.0,0.0,0.0,0.0,0.0,0.0,0.0,0.0,0.0,0.0,0.0,0.0,0.0,0.0,-1.0683,-1.0683,-1.0634,-1.053,-1.0203,-0.983,-0.9416,-0.5758,-0.3727,-0.3317,0.0324,0.2016,0.2152,0.2367,0.2514,0.2514,0.2514,0.2514,0.2514,0.2514,0.0,0.0,0.0,0.0,0.0,0.0,0.0,0.0,0.2544,0.2556,0.2564,0.2587,0.0,0.0,0.0,0.0,0.0,0.2686,0.2682,0.2679,0.2684,0.2686,0.2687,0.2691,0.2692,0.0,0.0,0.0,0.0,0.0,1.0133,1.2299,1.3818,1.4811,1.5546,1.5966,1.5942,1.5869,1.5788,1.5723,1.5634,1.5488,1.5447,1.5431,1.5431,1.5431,1.5431,1.5431,1.5431,1.5431,1.5431,1.5455,1.5545,1.5691,1.5691,1.5723,1.5772,1.5934,1.6098,1.6369,1.6369,1.6534,1.6772,1.6534,1.7255,1.8626,1.887,2.0727,2.3484,2.3976,2.5104,2.6386,2.6386,2.6386,2.6386,0.0,0.0,0.0,0.0,0.0,0.0,0.0,0.0,0.0,0.0,0.0,0.0,0.0,0.0,0.0,0.0,0.0,0.0,0.0,0.0,-1.0737,-1.0737,-1.0487,-1.0377,-1.0325,-1.0159,-0.9385,-0.8098,-0.5036,-0.2964,-0.1802,0.0978,0.2433,0.2581,0.2552,0.2538,0.2537,0.2521,0.2514,0.2514,0.0,0.0,0.0,0.0,0.0,0.0,0.0,0.0,0.0,0.0,0.2593,0.2609,0.2622,0.0,0.0,0.0,0.0,0.0,0.2692,0.2692,0.2692,0.2692,0.2692,0.2692,0.2692,0.2692,0.2692,0.2692,0.0,0.0,0.0,0.0,1.1801,1.4059,1.4803,1.5216,1.5875,1.5793,1.5769,1.5926,1.5837,1.574,1.5658,1.5569,1.5512,1.5512,1.5512,1.5512,1.5512,1.5512,1.5512,1.5512,1.561,1.5691,1.5772,1.5869,1.5918,1.5918,1.6008,1.5966,1.5966,1.5966,1.5966,1.5966,1.5966,1.7018,1.8708,1.9592,2.1464,2.3896,2.4866,2.566,2.6386,2.6386,2.6386,2.6386,0.0,0.0,0.0,0.0,0.0,0.0,0.0,0.0,0.0,0.0,0.0,0.0,0.0,0.0,0.0,0.0,0.0,0.0,0.0,-1.0737,-1.0654,-1.057,-1.0237,-1.007,-1.007,-0.9903,-0.8729,-0.6543,-0.436,-0.2088,0.0166,0.1804,0.2612,0.2611,0.2582,0.2566,0.2559,0.2534,0.2521,0.2514,0.0,0.0,0.0,0.0,0.0,0.0,0.0,0.0,0.0,0.0,0.0,0.0,0.0,0.0,0.0,0.2692,0.2692,0.2692,0.2692,0.2692,0.2692,0.2692,0.2692,0.2692,0.2692,0.2692,0.2692,0.2692,0.3782,0.0,0.0,0.93,1.1718,1.43,1.4796,1.5133,1.5883,1.5711,1.5628,1.5966,1.5918,1.5837,1.5837,1.5715,1.5642,1.5642,1.5642,1.5642,1.5642,1.5642,1.5642,1.5642,1.5764,1.5837,1.5837,1.5975,1.5966,1.5966,1.5966,1.5966,1.5966,1.5966,1.5966,1.5966,1.5966,1.7018,1.8708,2.0484,2.2189,2.3976,2.574,2.6386,2.6386,2.6386,2.6386,2.6386,0.0,0.0,0.0,0.0,0.0,0.0,0.0,0.0,0.0,0.0,0.0,0.0,0.0,0.0,0.0,0.0,0.0,0.0,0.0,-1.0737,-1.057,-1.0153,-1.0153,-1.007,-1.007,-0.924,-0.7893,-0.6044,-0.386,-0.0923,0.2436,0.2575,0.2561,0.2559,0.2612,0.2585,0.264,0.2557,0.254,0.2514,0.2514,0.0,0.0,0.0,0.0,0.0,0.0,0.0,0.0,0.0,0.0,0.0,0.0,0.0,0.2692,0.2692,0.2692,0.2692,0.2692,0.2692,0.2692,0.2692,0.2692,0.2692,0.2692,0.2692,0.2692,0.2692,0.2777,0.3447,0.5287,0.8707,1.2044,1.43,1.5051,1.5463,1.5966,1.5966,1.5966,1.5966,1.595,1.6024,1.6024,1.5933,1.5925,1.5925,1.5925,1.5925,1.5925,1.5925,1.5925,1.5925,1.6024,1.6024,1.6024,1.604,1.5966,1.5966,1.5966,1.5966,1.5966,1.5966,1.5966,1.5966,1.5966,1.7018,1.8708,2.0484,2.2189,2.3976,2.574,2.6386,2.6386,2.6386,2.6386,2.6386,0.0,0.0,0.0,0.0,0.0,0.0,0.0,0.0,0.0,0.0,0.0,0.0,0.0,0.0,0.0,0.0,0.0,0.0,0.0,-1.0487,-1.0237,-1.007,-0.9574,-0.8733,-0.7554,-0.8315,-0.7136,-0.3944,-0.084,0.1345,0.2692,0.268,0.2675,0.2673,0.2643,0.2624,0.2613,0.2594,0.2579,0.2568,0.2568,0.2568,0.0,0.0,0.0,0.0,0.0,0.0,0.0,0.0,0.2675,0.2677,0.2688,0.2692,0.2692,0.2692,0.2692,0.2692,0.2692,0.2692,0.2692,0.2692,0.2692,0.2692,0.2692,0.2692,0.2692,0.2692,0.2692,0.3616,0.6459,1.0299,1.3473,1.4548,1.5133,1.5546,1.5966,1.5966,1.5966,1.5966,1.5966,1.5966,1.5966,1.5966,1.5966,1.5966,1.5966,1.5966,1.5966,1.5966,1.5966,1.5966,1.5966,1.5966,1.5966,1.5966,1.5966,1.5966,1.5966,1.5966,1.5966,1.5966,1.5966,1.5966,1.5966,1.7018,1.8708,2.0484,2.2189,2.3976,2.574,2.6386,2.6386,2.6386,2.6386,2.6386,0.0,0.0,0.0,0.0,0.0,0.0,0.0,0.0,0.0,0.0,0.0,0.0,0.0,0.0,0.0,0.0,0.0,0.0,-1.0487,-1.0237,-0.9986,-0.9657,-0.9072,-0.7809,-0.5876,-0.7052,-0.5792,-0.1847,0.1176,0.2692,0.2692,0.2692,0.2692,0.2691,0.2671,0.2656,0.2563,0.2624,0.2611,0.2601,0.2601,0.2601,0.0,0.0,0.0,0.0,0.0,0.0,0.0,0.0,0.2692,0.2692,0.2692,0.2692,0.2692,0.2692,0.2692,0.2692,0.2692,0.2692,0.2692,0.2692,0.2692,0.2692,0.2692,0.2692,0.2692,0.2692,0.2692,0.3784,0.7379,1.0382,1.2886,1.4307,1.4886,1.5298,1.5711,1.5793,1.5875,1.5966,1.5966,1.5966,1.5966,1.5966,1.5966,1.5966,1.5966,1.5966,1.5966,1.5966,1.5966,1.5966,1.5966,1.5966,1.5966,1.5966,1.5966,1.5966,1.5966,1.5966,1.5966,1.5966,1.5966,1.5966,1.5966,1.6689,1.7901,1.9684,2.1706,2.3976,2.574,2.6386,2.6386,2.6386,2.6386,2.6386,0.0,0.0,0.0,0.0,0.0,0.0,0.0,0.0,0.0,0.0,0.0,0.0,0.0,0.0,0.0,0.0,0.0,0.0,-1.0153,-1.007,-0.9657,-0.8738,-0.8654,-0.7642,-0.5454,-0.5371,-0.3608,0.0,0.185,0.2692,0.2692,0.2692,0.2692,0.2692,0.2692,0.2676,0.2565,0.2565,0.263,0.2602,0.2602,0.2602,0.2605,0.0,0.0,0.0,0.0,0.0,0.0,0.0,0.2692,0.2692,0.2692,0.2692,0.2692,0.2692,0.2692,0.2692,0.2692,0.2692,0.2692,0.2692,0.2692,0.2692,0.2692,0.2692,0.2692,0.2692,0.2692,0.3782,0.7296,0.8378,0.9873,1.348,1.439,1.4878,1.5298,1.5381,1.5546,1.5966,1.5966,1.5966,1.5966,1.5966,1.5966,1.5966,1.5966,1.5966,1.5966,1.5966,1.5966,1.5966,1.5966,1.5966,1.5966,1.5966,1.5966,1.5966,1.5966,1.5966,1.5966,1.5966,1.5966,1.5966,1.5966,1.5966,1.6122,1.7901,2.0646,2.3976,2.566,2.6386,2.6386,2.6386,2.6386,2.6386,0.0,0.0,0.0,0.0,0.0,0.0,0.0,0.0,0.0,0.0,0.0,0.0,0.0,0.0,0.0,0.0,0.0,0.0,-1.007,-0.949,-0.8989,-0.8738,-0.8399,-0.7387,-0.5454,-0.2937,-0.1091,0.0,0.185,0.2692,0.2692,0.2692,0.2692,0.2692,0.2692,0.2687,0.2679,0.2679,0.2673,0.2665,0.2665,0.2665,0.2667,0.0,0.0,0.0,0.0,0.0,0.0,0.0,0.0,0.0,0.2692,0.2692,0.2692,0.2692,0.2692,0.2692,0.2692,0.2692,0.2692,0.2692,0.2692,0.2692,0.2692,0.2692,0.0,0.2692,0.4705,0.6379,0.6208,0.9378,1.205,1.2216,1.339,1.4555,1.5298,1.5381,1.5546,1.5966,1.5966,1.5966,1.5966,1.5966,1.5966,1.5966,1.5966,1.5966,1.5966,1.5966,1.5966,1.5966,1.5966,1.5966,1.5966,1.5966,1.5966,1.5966,1.5966,1.5966,1.5966,1.5966,1.5966,1.5966,1.5966,1.5966,1.6122,1.7901,1.9917,2.2028,2.251,2.2751,2.2912,2.4136,2.4534,2.4811,0.0,0.0,0.0,0.0,0.0,0.0,0.0,0.0,0.0,0.0,-1.0737,-1.0737,0.0,0.0,0.0,0.0,0.0,0.0,0.0,-0.8989,-0.8654,-0.8483,-0.8232,-0.6885,-0.4363,-0.1511,0.0336,0.1092,0.2187,0.2692,0.2692,0.2692,0.2692,0.2692,0.2692,0.2692,0.2692,0.2692,0.2692,0.2692,0.2692,0.2692,0.2692,0.0,0.0,0.0,0.0,0.0,0.0,0.0,0.0,0.0,0.2692,0.2692,0.2692,0.2692,0.2692,0.2692,0.2692,0.2692,0.2692,0.2692,0.2692,0.2692,0.2692,0.2692,0.2945,0.3614,0.487,0.6211,0.7296,0.955,1.1475,1.205,1.3141,1.4066,1.4811,1.5051,1.5298,1.5711,1.5883,1.5966,1.5966,1.5966,1.5966,1.5966,1.5966,1.5966,1.5966,1.5966,1.5966,1.5966,1.5966,1.5966,1.5966,1.5966,1.5966,1.5966,1.5966,1.5966,1.5966,1.5966,1.5966,1.5966,1.5966,1.5966,1.6122,1.7901,1.9186,2.0241,2.0888,2.1625,2.2361,2.3523,2.4375,2.5147,0.0,0.0,-1.0933,-1.0922,0.0,0.0,0.0,0.0,0.0,0.0,-1.0737,-1.0654,0.0,0.0,0.0,0.0,0.0,0.0,0.0,-0.8654,-0.8483,-0.8144,-0.806,-0.6463,-0.3021,-0.1175,0.0672,0.244,0.2608,0.2692,0.2692,0.2692,0.2692,0.2692,0.2692,0.2692,0.2692,0.2692,0.2692,0.2692,0.2692,0.2692,0.2692,0.2692,0.0,0.0,0.0,0.0,0.0,0.0,0.0,0.0,0.2692,0.2692,0.2692,0.2692,0.2692,0.2692,0.2692,0.2692,0.2692,0.2692,0.2692,0.2692,0.2692,0.2692,0.3195,0.4787,0.395,0.4451,0.93,0.9137,0.9304,1.265,1.3314,1.3569,1.4066,1.4473,1.4878,1.5381,1.5801,1.5966,1.5966,1.5966,1.5966,1.5966,1.5966,1.5966,1.5966,1.5966,1.5966,1.5966,1.5966,1.5966,1.5966,1.5966,1.5966,1.5966,1.5966,1.5966,1.5966,1.5966,1.5966,1.5966,1.5966,1.5966,1.6122,1.7737,1.8381,1.8545,2.0089,2.1797,2.3395,2.3794,2.5119,2.6665,0.0,0.0,-1.1031,-1.0938,0.0,0.0,0.0,0.0,0.0,0.0,0.0,0.0,0.0,0.0,0.0,0.0,0.0,0.0,0.0,-0.8399,-0.8232,-0.8144,-0.806,-0.7052,-0.4868,-0.3021,-0.1259,0.0588,0.2018,0.2692,0.2692,0.2692,0.2692,0.2692,0.2692,0.2692,0.2692,0.2692,0.2692,0.2692,0.2692,0.2692,0.2692,0.2692,0.2692,0.0,0.0,0.0,0.0,0.0,0.0,0.0,0.2692,0.2692,0.2692,0.2692,0.2692,0.2692,0.2692,0.2692,0.2692,0.2692,0.2692,0.2692,0.2692,0.2692,0.2777,0.3195,0.4115,0.5203,0.6289,0.8465,1.0388,1.1142,1.2478,1.3645,1.4473,1.4631,1.4968,1.5801,1.5966,1.5966,1.5966,1.5966,1.5966,1.5966,1.5966,1.5966,1.5966,1.5966,1.5966,1.5966,1.5966,1.5966,1.5966,1.5966,1.5966,1.5966,1.5966,1.5966,1.5966,1.5966,1.5966,1.5966,1.5966,1.5966,1.6048,1.6369,1.6525,1.6607,1.6936,1.8329,2.0272,2.172,2.3505,2.5388,0.0,0.0,0.0,0.0,0.0,0.0,0.0,0.0,0.0,0.0,0.0,0.0,0.0,0.0,0.0,0.0,-0.8822,0.0,0.0,0.0,-0.806,-0.806,-0.806,-0.6885,-0.4195,-0.3189,-0.1427,0.1261,0.2271,0.2692,0.2692,0.2692,0.2692,0.2692,0.2692,0.2692,0.2692,0.2692,0.2692,0.2692,0.2692,0.2692,0.2692,0.2692,0.2692,0.2692,0.2692,0.0,0.0,0.0,0.0,0.0,0.0,0.0,0.2692,0.2692,0.2692,0.2692,0.2692,0.0,0.0,0.2692,0.0,0.2692,0.2692,0.2692,0.2692,0.2692,0.3447,0.487,0.7463,0.8716,0.9971,1.1724,1.2816,1.3645,1.4307,1.4555,1.4961,1.5628,1.5883,1.5966,1.5966,1.5966,1.5966,1.5966,1.5966,1.5966,1.5966,1.5966,1.5966,1.5966,1.5966,1.5966,1.5966,1.5966,1.5966,1.5966,1.5966,1.5966,1.5966,1.5966,1.5966,1.5966,1.5966,1.5966,1.5966,1.5966,1.5966,1.6139,1.7113,1.8678,2.0611,2.2571,2.4495,2.6338,0.0,0.0,0.0,0.0,0.0,0.0,0.0,0.0,0.0,0.0,0.0,0.0,0.0,0.0,-0.9072,0.0,0.0,0.0,0.0,0.0,0.0,-0.806,-0.806,-0.6546,-0.3273,-0.2853,-0.1091,0.2271,0.2524,0.2692,0.2692,0.2692,0.2692,0.2692,0.2692,0.2692,0.2692,0.2692,0.2692,0.2692,0.2692,0.2692,0.2692,0.2692,0.2692,0.2692,0.2692,0.2692,0.2692,0.2692,0.0,0.0,0.0,0.0,0.2692,0.2692,0.2692,0.2692,0.2692,0.0,0.2692,0.2692,0.2692,0.0,0.2692,0.2692,0.2777,0.3111,0.3195,0.4619,0.9383,0.9304,0.9555,1.2899,1.3403,1.3569,1.4066,1.439,1.4803,1.5298,1.5711,1.5883,1.5966,1.5966,1.5966,1.5966,1.5966,1.5966,1.5966,1.5966,1.5966,1.5966,1.5966,1.5966,1.5966,1.5966,1.5966,1.5966,1.5966,1.5966,1.5966,1.5966,1.5966,1.5966,1.5966,1.5966,1.5966,1.5966,1.5982,1.627,1.8293,2.0218,2.2069,2.4329,2.6209,2.7816,0.0,0.0,0.0,0.0,0.0,0.0,0.0,0.0,0.0,0.0,-0.949,-0.9323,0.0,0.0,0.0,-0.8232,-0.8148,0.0,0.0,0.0,0.0,-0.806,-0.806,-0.7136,-0.5119,-0.3524,-0.1679,0.0336,0.1934,0.2692,0.2692,0.2692,0.2692,0.2692,0.2692,0.2692,0.2692,0.2692,0.2692,0.2692,0.2692,0.2692,0.2692,0.2692,0.2692,0.2692,0.2692,0.2692,0.2692,0.2692,0.2692,0.0,0.0,0.0,0.2692,0.2692,0.2692,0.2692,0.0,0.0,0.2692,0.0,0.2692,0.2692,0.0,0.0,0.3111,0.0,0.5036,0.5706,0.7964,0.9471,1.0976,1.3065,1.3403,1.3569,1.4066,1.4149,1.448,1.5298,1.5463,1.5628,1.5966,1.5966,1.5966,1.5966,1.5966,1.5966,1.5966,1.5966,1.5966,1.5966,1.5966,1.5966,1.5966,1.5966,1.5966,1.5966,1.5966,1.5966,1.5966,1.5966,1.5966,1.5966,1.5966,1.5966,1.5966,1.5966,1.6137,1.6434,1.8348,2.041,2.2539,2.4375,2.6419,2.8181,0.0,0.0,0.0,0.0,0.0,0.0,0.0,0.0,0.0,0.0,0.0,-0.8822,0.0,0.0,0.0,-0.8144,0.0,0.0,0.0,0.0,0.0,-0.806,-0.806,-0.6797,-0.3944,-0.4111,-0.235,0.1513,0.1261,0.1681,0.2692,0.2692,0.2692,0.2692,0.2692,0.2692,0.2692,0.2692,0.2692,0.2692,0.2692,0.2692,0.2692,0.2692,0.2692,0.2692,0.2692,0.2692,0.2692,0.2692,0.2692,0.2692,0.2692,0.0,0.0,0.0,0.2692,0.2692,0.2692,0.2692,0.2692,0.0,0.2692,0.2692,0.2692,0.2692,0.3195,0.5036,0.6208,0.7379,0.9216,1.0138,1.1309,1.3148,1.3403,1.3569,1.4066,1.4066,1.4397,1.5298,1.5381,1.5546,1.5966,1.5966,1.5966,1.5966,1.5966,1.5966,1.5966,1.5966,1.5966,1.5966,1.5966,1.5966,1.5966,1.5966,1.5966,1.5966,1.5966,1.5966,1.5966,1.5966,1.5966,1.5966,1.5966,1.5966,1.5974,1.6154,1.6809,1.8052,2.0115,2.2178,2.417,2.6096,2.7428,2.8221,0.0,0.0,0.0,0.0,0.0,0.0,0.0,0.0,0.0,0.0,0.0,0.0,0.0,0.0,0.0,0.0,-0.806,0.0,0.0,0.0,0.0,0.0,-0.806,-0.663,-0.3441,-0.47,-0.2937,0.2018,0.0672,0.0924,0.2692,0.2692,0.2692,0.2692,0.2692,0.2692,0.2692,0.2692,0.2692,0.2692,0.2692,0.2692,0.2692,0.2692,0.2692,0.2692,0.2692,0.2692,0.2692,0.2692,0.2692,0.2692,0.2692,0.2692,0.0,0.0,0.0,0.2692,0.0,0.0,0.2692,0.2692,0.2692,0.2861,0.0,0.0,0.4034,0.0,0.7797,0.9221,1.1059,1.1392,1.1807,1.3148,1.3403,1.3486,1.3901,1.3901,1.4232,1.5133,1.5216,1.5463,1.5966,1.5966,1.5966,1.5966,1.5966,1.5966,1.5966,1.5966,1.5966,1.5966,1.5966,1.5966,1.5966,1.5966,1.5966,1.5966,1.5966,1.5966,1.5966,1.5966,1.5966,1.5966,1.5966,1.599,1.6121,1.6251,1.7429,1.9461,2.1557,2.3518,2.5457,2.7454,2.8221,2.8221,0.0,0.0,0.0,0.0,0.0,0.0,0.0,0.0,0.0,0.0,0.0,0.0,-0.806,-0.806,-0.806,-0.806,-0.806,-0.806,-0.806,-0.806,0.0,0.0,0.0,0.0,-0.5287,-0.5371,-0.3608,0.0168,0.0084,0.0924,0.2692,0.2692,0.2692,0.2692,0.2692,0.2692,0.2692,0.2692,0.2692,0.2692,0.2692,0.2692,0.2692,0.2692,0.2692,0.2692,0.2692,0.2692,0.2692,0.2692,0.2692,0.2692,0.2692,0.2692,0.2692,0.0,0.0,0.0,0.0,0.2692,0.0,0.2692,0.0,0.0,0.0,0.0,0.6208,0.9716,1.0471,1.1142,1.2899,1.3231,1.3314,1.3403,1.3403,1.3403,1.3403,1.3403,1.3728,1.4631,1.4713,1.5043,1.5883,1.5966,1.5966,1.5966,1.5966,1.5966,1.5966,1.5966,1.5966,1.5966,1.5966,1.5966,1.5966,1.5966,1.5966,1.5966,1.5966,1.5966,1.5966,1.5966,1.5966,1.5966,1.5966,1.6137,1.6292,1.63,1.7594,1.9799,2.1683,2.3608,2.5616,2.7532,2.8221,2.8221,0.0,0.0,0.0,0.0,0.0,0.0,0.0,0.0,0.0,0.0,0.0,0.0,0.0,-0.806,-0.806,-0.806,-0.806,-0.806,-0.806,-0.806,0.0,0.0,0.0,0.0,-0.3692,-0.4782,-0.3021,0.1765,0.0588,0.0924,0.2692,0.2692,0.2692,0.2692,0.2692,0.2692,0.2692,0.2692,0.2692,0.2692,0.2692,0.2692,0.2692,0.2692,0.2692,0.2692,0.2692,0.2692,0.2692,0.2692,0.2692,0.2692,0.2692,0.2692,0.2692,0.2692,0.2692,0.0,0.0,0.0,0.0,0.2692,0.2692,0.3195,0.4952,0.5371,0.6372,0.9971,1.0721,1.1225,1.3065,1.3403,1.3403,1.3403,1.3403,1.3403,1.3403,1.3403,1.3728,1.4631,1.4713,1.5051,1.5883,1.5966,1.5966,1.5966,1.5966,1.5966,1.5966,1.5966,1.5966,1.5966,1.5966,1.6097,1.6211,1.6211,1.6267,1.6389,1.6389,1.6389,1.6389,1.6389,1.6389,1.6389,1.6389,1.6357,1.6324,1.656,1.8511,2.1459,2.2193,2.4438,2.7279,2.7968,2.8221,2.8221,0.0,0.0,0.0,0.0,0.0,0.0,0.0,0.0,-0.8166,-0.8072,0.0,0.0,0.0,0.0,-0.806,-0.806,-0.806,-0.806,-0.806,-0.806,-0.7809,-0.7219,0.0,0.0,-0.2701,-0.3881,-0.2448,0.1776,0.0589,0.0924,0.2692,0.2692,0.2692,0.2692,0.2692,0.2692,0.2692,0.2692,0.2692,0.2692,0.2692,0.2692,0.2692,0.2692,0.2692,0.2692,0.2692,0.2692,0.2692,0.2692,0.2692,0.2692,0.2692,0.2692,0.2692,0.2692,0.2699,0.0,0.2707,0.0,0.0,0.0,0.0,0.3363,0.5706,0.0,0.7296,1.0887,1.1641,1.1979,1.3148,1.3403,1.3403,1.3403,1.3403,1.3403,1.3403,1.3403,1.3728,1.4631,1.4713,1.5051,1.5883,1.5966,1.5966,1.5966,1.5966,1.5966,1.5966,1.5966,1.599,1.6129,1.6129,1.6219,1.6397,1.6397,1.6462,1.6584,1.6584,1.6584,1.6584,1.6584,1.6584,1.6584,1.6649,1.66,1.6503,1.6755,1.9017,2.2502,2.2568,2.4861,2.8221,2.8221,2.8221,2.8221,0.0,0.0,-0.9317,-0.9317,0.0,0.0,0.0,0.0,-0.8162,-0.8072,0.0,0.0,0.0,0.0,0.0,-0.806,-0.806,-0.806,-0.806,-0.7976,-0.7219,-0.5457,0.0,0.0,-0.2561,-0.2561,-0.1708,0.0085,0.0084,0.1009,0.2692,0.2692,0.2692,0.2692,0.2692,0.2692,0.2692,0.2692,0.2692,0.2692,0.2692,0.2692,0.2692,0.2692,0.2692,0.2692,0.2692,0.2692,0.2692,0.2692,0.2692,0.2692,0.2692,0.2692,0.2692,0.2692,0.2714,0.0,0.0,0.0,0.0,0.0,0.0,0.0,0.7299,0.0,0.9054,1.2644,1.3403,1.3403,1.3403,1.3403,1.3403,1.3403,1.3403,1.3403,1.3403,1.3403,1.3728,1.4631,1.4713,1.5051,1.5883,1.5966,1.5966,1.5966,1.5966,1.5966,1.5966,1.6048,1.6129,1.63,1.6308,1.6397,1.6584,1.6592,1.6592,1.6592,1.6592,1.6592,1.6592,1.6592,1.6592,1.6609,1.6787,1.6774,1.6774,1.6774,1.9099,2.2622,2.2622,2.4861,2.8221,2.8221,2.8221,2.8221,0.0,0.0,-0.8765,-0.8698,-0.8519,-0.8342,-0.8248,-0.8158,-0.8089,0.0,0.0,0.0,-0.806,-0.806,-0.806,-0.806,-0.6881,-0.6714,-0.7976,-0.5622,-0.4546,-0.5264,-0.4089,-0.2485,-0.0691,-0.0605,0.0172,0.1967,0.1961,0.2204,0.2692,0.2692,0.2692,0.2692,0.2692,0.2692,0.2692,0.2692,0.2692,0.2692,0.2692,0.2692,0.2692,0.2692,0.2692,0.2692,0.2692,0.2692,0.2692,0.2692,0.2692,0.2777,0.3113,0.3197,0.3197,0.3197,0.2969,0.2994,0.4442,0.0,0.0,0.0,0.0,0.0,0.9151,0.9971,1.0637,1.2899,1.3403,1.3403,1.3403,1.3403,1.3403,1.3403,1.3403,1.3403,1.3403,1.3652,1.4066,1.4631,1.4968,1.5381,1.5966,1.5966,1.5966,0.0,1.5966,1.5966,1.5966,1.6162,1.6251,1.63,1.643,1.6592,1.6779,1.6779,1.6836,1.6966,1.6966,1.6966,1.6966,1.6966,1.6966,1.6966,1.7015,1.7039,1.7039,1.7039,1.9218,2.2622,2.2622,2.4861,2.8221,2.8221,2.8221,2.8221,-0.8964,-0.8753,-0.8534,-0.8481,-0.7751,-0.7138,-0.7092,-0.7018,-0.6968,0.0,0.0,0.0,-0.5957,-0.5873,-0.5873,-0.5873,-0.4868,-0.47,-0.579,-0.386,-0.2784,-0.307,-0.2057,-0.0605,0.1224,0.1225,0.1741,0.2757,0.2744,0.2722,0.2692,0.2692,0.2692,0.2692,0.2692,0.2692,0.2692,0.2692,0.2692,0.2692,0.2692,0.2692,0.2692,0.2692,0.2692,0.2692,0.2692,0.2692,0.2692,0.2945,0.3029,0.3029,0.3283,0.3283,0.3113,0.3367,0.356,0.3934,0.4295,0.4752,0.0,0.6832,0.0,0.0,1.0388,1.1004,1.1469,1.3314,1.3652,1.3652,1.3403,1.3403,1.3486,1.3652,1.3652,1.3652,1.3652,1.4066,1.4473,1.4968,1.5216,1.5546,1.5966,1.5966,1.5966,1.5966,1.5966,1.6081,1.6146,1.6251,1.6373,1.6527,1.6641,1.6779,1.6958,1.6958,1.7015,1.7112,1.7112,1.7112,1.7112,1.7112,1.7112,1.7112,1.7112,1.7112,1.7112,1.7112,1.9264,2.2622,2.2622,2.4861,2.8221,2.8221,2.8221,2.8221,0.0,-0.8068,-0.7922,-0.7914,-0.64,-0.5202,-0.5197,-0.5153,-0.5119,0.0,-0.5119,-0.4446,-0.2853,-0.2686,-0.2686,-0.2686,-0.2518,-0.2518,-0.2686,-0.235,-0.1434,-0.0085,0.0259,0.1135,0.2739,0.2831,0.2819,0.2788,0.2758,0.2728,0.2698,0.2694,0.2692,0.2692,0.2692,0.2692,0.2692,0.2692,0.2692,0.2692,0.2692,0.2692,0.2692,0.2692,0.2692,0.2777,0.2777,0.2777,0.2945,0.3365,0.3449,0.3449,0.3449,0.3197,0.2945,0.3617,0.4574,0.0,0.415,0.0,0.0,0.7006,0.7694,0.0,1.1463,1.1795,1.2127,1.3728,1.4066,1.3901,1.3486,1.3403,1.3569,1.3983,1.4066,1.4149,1.4149,1.4555,1.4961,1.5381,1.5463,1.5628,1.5966,1.5966,1.5966,1.5966,1.5982,1.6154,1.6324,1.6357,1.6511,1.6758,1.6782,1.6958,1.7112,1.7112,1.7112,1.7112,1.7112,1.7112,1.7112,1.7112,1.7112,1.7112,1.7112,1.7112,1.7112,1.7112,1.9264,2.2622,2.2622,2.4861,2.8221,2.8221,2.8221,2.8221,-0.6199,-0.5056,-0.408,-0.3958,-0.3594,-0.3318,-0.3288,-0.3194,-0.3189,-0.3189,-0.3189,-0.3105,-0.277,-0.2686,-0.2686,-0.2686,-0.1343,-0.1175,-0.2602,0.0,0.1182,0.0085,0.1469,0.2447,0.2827,0.2853,0.2851,0.2819,0.2789,0.2759,0.2728,0.2703,0.2692,0.2692,0.2692,0.2692,0.2692,0.2692,0.2692,0.2692,0.2692,0.2692,0.2692,0.2692,0.2945,0.3283,0.3283,0.3449,0.3784,0.3868,0.3868,0.3868,0.3868,0.3784,0.4036,0.5625,0.6259,0.6993,0.9724,0.9877,0.9845,1.2429,1.2198,0.0,1.37,1.3825,1.3645,1.4066,1.3818,1.3486,1.3403,1.3403,1.3403,1.3486,1.4142,1.4555,1.4555,1.4968,1.5298,1.5381,1.5711,1.5875,1.5966,1.5966,1.5966,1.5966,1.6178,1.6332,1.6519,1.6665,1.6693,1.6766,1.699,1.708,1.7112,1.7112,1.7112,1.7112,1.7112,1.7112,1.7112,1.7112,1.7112,1.7112,1.7112,1.7112,1.7112,1.7112,1.9264,2.2622,2.2622,2.4861,2.8221,2.8221,2.8221,2.8221,-0.4338,-0.3542,-0.292,-0.2819,-0.2039,-0.1352,-0.1344,-0.1343,-0.1343,-0.1343,-0.1343,-0.1007,-0.0084,0.0,0.0,0.0,0.084,0.0924,0.0084,0.1681,0.2282,0.1367,0.2235,0.2782,0.2827,0.2844,0.2844,0.2829,0.2799,0.2767,0.2737,0.2706,0.2692,0.2692,0.2692,0.2692,0.2692,0.2945,0.2945,0.2692,0.2692,0.2692,0.2692,0.2945,0.3197,0.3451,0.3617,0.3954,0.4288,0.412,0.412,0.4372,0.4372,0.4204,0.4204,0.5376,0.6822,0.829,0.9267,1.0848,1.2429,1.3369,1.357,0.0,0.0,1.4946,1.4728,1.4728,1.4555,1.4307,1.4059,1.3901,1.3922,1.4499,1.4764,1.5037,1.5539,1.5727,1.587,1.5965,1.6141,1.6316,1.6316,1.6316,1.6316,1.6316,1.6389,1.6519,1.6706,1.6803,1.6893,1.6982,1.7063,1.7112,1.7112,1.7112,1.7112,1.7112,1.7112,1.7112,1.7112,1.7112,1.7112,1.7112,1.7112,1.7112,1.7112,1.7112,1.9264,2.2622,2.2622,2.4861,2.8221,2.8221,2.8221,2.8221,-0.2328,-0.2054,-0.1702,-0.1702,-0.0507,0.0504,0.0504,0.0504,0.0504,0.0504,0.0504,0.1092,0.2524,0.2692,0.2692,0.2692,0.2692,0.2692,0.2692,0.2692,0.2703,0.2728,0.2735,0.2761,0.281,0.2822,0.2826,0.2819,0.2795,0.2767,0.2737,0.2706,0.2692,0.2692,0.2692,0.2692,0.2692,0.3113,0.3113,0.2861,0.2861,0.2777,0.2777,0.3197,0.3449,0.3617,0.412,0.4542,0.4794,0.4372,0.4458,0.471,0.471,0.4707,0.4705,0.5125,0.7547,0.0,0.8387,1.1446,1.4776,1.3369,1.4077,1.5173,0.0,0.0,0.0,1.5381,0.0,0.0,0.0,0.0,0.0,0.0,0.0,0.0,0.0,1.6378,0.0,1.6568,1.6584,1.6584,1.6584,1.6584,1.6592,1.6633,1.6633,1.6714,1.6806,1.6901,1.6966,1.7104,1.7112,1.7112,1.7112,1.7112,1.7112,1.7112,1.7112,1.7112,1.7112,1.7112,1.7112,1.7112,1.7112,1.7112,1.7112,1.7112,1.9264,2.2622,2.2622,2.4861,2.8221,2.8221,2.8221,2.8221,0.0,0.0927,0.2107,0.2107,0.2273,0.2355,0.2355,0.2355,0.2355,0.2355,0.2355,0.244,0.2692,0.2692,0.2692,0.2692,0.2692,0.2692,0.2692,0.2692,0.2694,0.2698,0.2724,0.2742,0.2748,0.2801,0.2815,0.2788,0.2785,0.2767,0.2737,0.2706,0.2692,0.2692,0.2692,0.2692,0.2692,0.2777,0.3029,0.3283,0.3283,0.3029,0.2777,0.3197,0.3617,0.4036,0.4962,0.53,0.53,0.53,0.4962,0.471,0.0,0.5795,0.7041,0.7045,0.0,0.0,0.0,0.0,1.5833,1.5601,1.5758,1.5908,1.5908,0.0,1.5381,1.5381,0.0,0.0,0.0,0.0,0.0,0.0,0.0,0.0,1.5777,1.6345,1.6738,1.66,1.6584,1.6584,1.6584,1.6584,1.6649,1.6812,1.682,1.6901,1.7071,1.708,1.7088,1.7112,1.7112,1.7112,1.7112,1.7112,1.7112,1.7112,1.7112,1.7112,1.7112,1.7112,1.7112,1.7112,1.7112,1.7112,1.7112,1.7112,1.9264,2.2622,2.2622,2.4861,2.8221,2.8221,2.8221,2.8221,0.1681,0.2187,0.2692,0.2692,0.2692,0.2692,0.2692,0.2692,0.2692,0.2692,0.2692,0.2692,0.2692,0.2692,0.2692,0.2692,0.2692,0.2692,0.2692,0.2692,0.2692,0.2692,0.2705,0.272,0.2737,0.2763,0.2778,0.2784,0.2765,0.275,0.2737,0.2706,0.2692,0.2692,0.2692,0.2861,0.3113,0.3113,0.3197,0.3451,0.3617,0.3449,0.3197,0.387,0.4458,0.4878,0.53,0.5384,0.5384,0.5384,0.53,0.5298,0.0,0.0,0.0,0.8711,0.0,0.0,0.0,0.0,0.0,1.5966,1.5966,1.5966,1.5966,1.5883,1.5711,1.5711,0.0,0.0,0.0,0.0,0.0,0.0,1.5988,0.0,0.0,0.0,1.6974,0.0,0.0,0.0,1.6885,1.6885,1.6917,1.6998,1.7006,1.7031,1.7104,1.7112,1.7112,1.7112,1.7112,1.7112,1.7112,1.7112,1.7112,1.7112,1.7112,1.7112,1.7112,1.7112,1.7112,1.7112,1.7112,1.7112,1.7112,1.7112,1.9264,2.2622,2.2622,2.4861,2.8221,2.8221,2.8221,2.8221,0.2692,0.0,0.0,0.2692,0.2692,0.2692,0.2692,0.2692,0.2692,0.2692,0.2692,0.2692,0.2692,0.2692,0.2692,0.2692,0.2692,0.2692,0.2692,0.2692,0.2692,0.2692,0.2692,0.2703,0.2725,0.2733,0.2744,0.2758,0.2744,0.2733,0.2725,0.2703,0.2692,0.2692,0.2692,0.2945,0.3367,0.3367,0.3535,0.3785,0.4036,0.4122,0.404,0.4542,0.4962,0.5384,0.5384,0.5384,0.5384,0.5384,0.5717,0.6301,0.7634,0.7801,0.7968,0.0,0.0,0.0,1.3135,0.0,0.0,1.6105,1.6081,1.5974,1.6105,1.6081,1.5966,1.5966,1.5998,0.0,0.0,0.0,1.618,1.6588,0.0,1.6586,0.0,1.7047,0.0,0.0,0.0,0.0,0.0,1.7112,1.7112,1.7112,1.7112,1.7112,1.7112,1.7112,1.7112,1.7112,1.7112,1.7112,1.7112,1.7112,1.7112,1.7112,1.7112,1.7112,1.7112,1.7112,1.7112,1.7112,1.7112,1.7112,1.7112,1.7112,1.9264,2.2622,2.2622,2.4861,2.8221,2.8221,2.8221,2.8221,0.2692,0.2692,0.0,0.2692,0.2692,0.2692,0.2692,0.2692,0.2692,0.2692,0.2692,0.2692,0.2692,0.2692,0.2692,0.2692,0.2692,0.2692,0.2692,0.2692,0.2692,0.2692,0.2692,0.2692,0.2694,0.2722,0.2724,0.2695,0.2724,0.2722,0.2694,0.2692,0.2692,0.2692,0.2692,0.2945,0.3367,0.3367,0.387,0.4626,0.471,0.4962,0.53,0.4878,0.4962,0.5384,0.5384,0.5384,0.5384,0.5384,0.6553,0.7968,0.7968,1.0382,0.0,0.0,0.0,0.0,0.0,1.4631,1.6089,1.6251,1.617,1.6089,1.6259,1.6162,1.5966,1.5966,1.6178,1.63,0.0,1.6507,1.6636,1.6373,1.6763,0.0,0.0,0.0,0.0,0.0,0.0,0.0,0.0,1.7112,1.7112,1.7112,1.7112,1.7112,1.7112,1.7112,1.7112,1.7112,1.7112,1.7112,1.7112,1.7112,1.7112,1.7112,1.7112,1.7112,1.7112,1.7112,1.7112,1.7112,1.7112,1.7112,1.7112,1.7112,1.9264,2.2622,2.2622,2.4861,2.8221,2.8221,2.8221,2.8221,0.2692,0.0,0.2692,0.2692,0.2692,0.2692,0.2692,0.2692,0.2692,0.2692,0.2692,0.2692,0.2692,0.2692,0.2692,0.2692,0.2692,0.2692,0.2692,0.2692,0.2692,0.2692,0.2692,0.2692,0.2692,0.2702,0.2703,0.2692,0.2703,0.2702,0.2692,0.2692,0.2692,0.2692,0.2692,0.3113,0.3785,0.3533,0.387,0.471,0.471,0.4962,0.5384,0.5216,0.53,0.5384,0.5384,0.5384,0.5552,0.6721,0.755,0.8382,1.0798,1.1629,1.1961,1.3707,1.421,1.4383,1.4961,1.5546,1.6089,1.6259,1.6259,1.6267,1.6446,1.6438,1.6397,0.0,0.0,0.0,0.0,1.6685,1.6852,1.6836,1.699,1.7071,0.0,0.0,0.0,0.0,0.0,0.0,0.0,0.0,0.0,1.7112,1.7112,1.7112,1.7112,1.7112,1.7112,1.7112,1.7112,1.7112,1.7112,1.7112,1.7112,1.7112,1.7112,1.7112,1.7112,1.7112,1.7112,1.7112,1.7112,1.7112,1.7112,1.7112,1.9264,2.2622,2.2622,2.4861,2.8221,2.8221,2.8221,2.8221,0.2692,0.2692,0.2692,0.2692,0.2692,0.2692,0.2692,0.2692,0.2692,0.2692,0.2692,0.2692,0.2692,0.2692,0.2692,0.2692,0.2692,0.2692,0.2692,0.2692,0.2692,0.2692,0.2692,0.2692,0.2692,0.2692,0.2692,0.2692,0.2692,0.2692,0.2692,0.2692,0.2692,0.2692,0.2692,0.3195,0.3952,0.3701,0.4122,0.0,0.0,0.5132,0.0,0.5384,0.5384,0.5384,0.5384,0.5384,0.5636,0.7383,0.8465,0.9466,1.2465,1.3045,1.3039,1.5291,1.5216,1.4548,1.5711,1.5966,1.6105,1.6341,1.6349,1.6373,1.6617,1.6625,1.6584,0.0,0.0,0.0,0.0,0.0,1.6982,1.7096,1.7112,0.0,0.0,1.7112,0.0,0.0,0.0,0.0,0.0,0.0,0.0,1.7112,1.7112,1.7112,0.0,1.7112,1.7112,1.7112,1.7112,1.7112,1.7112,1.7112,1.7112,1.7112,1.7112,1.7112,1.7112,1.7112,1.7112,1.7112,1.7112,1.7112,1.7112,1.7112,1.9264,2.2536,2.1846,2.4349,2.8221,2.8221,2.8221,2.8221,0.2692,0.2692,0.2692,0.2692,0.2692,0.2692,0.2692,0.2692,0.2692,0.2692,0.2692,0.2692,0.2692,0.2692,0.2692,0.2692,0.2692,0.2692,0.2692,0.2692,0.2692,0.2692,0.2692,0.2692,0.2692,0.2692,0.2692,0.2692,0.2692,0.2692,0.2692,0.2692,0.2692,0.2692,0.2692,0.3195,0.4036,0.4036,0.4542,0.5384,0.5384,0.5384,0.5384,0.5384,0.5384,0.5384,0.5384,0.5468,0.5801,0.755,0.9295,1.1125,1.2962,1.4631,1.5966,1.5966,1.5966,1.5966,1.5966,1.5966,1.6129,1.6487,1.6446,1.6414,1.6779,1.673,1.6609,0.0,0.0,0.0,0.0,0.0,0.0,0.0,0.0,0.0,0.0,0.0,1.7112,0.0,0.0,0.0,0.0,0.0,1.7112,1.7112,1.7112,0.0,0.0,1.7112,1.7112,1.7112,1.7112,1.7112,1.7112,1.7112,1.7112,1.7112,1.7112,1.7112,1.7112,1.7112,1.7112,1.7112,1.7112,1.7112,1.7112,1.7112,1.9177,2.2277,2.0558,2.3223,2.8052,2.8136,2.8221,2.8221,0.2692,0.2692,0.2692,0.2692,0.2692,0.2692,0.2692,0.2692,0.2692,0.2692,0.2692,0.2692,0.2692,0.2692,0.2692,0.2692,0.2692,0.2692,0.2692,0.2692,0.2692,0.2692,0.2692,0.2692,0.2692,0.2692,0.2692,0.2692,0.2692,0.2692,0.2692,0.2692,0.2692,0.2692,0.2692,0.3195,0.4036,0.4036,0.4542,0.5384,0.5384,0.5384,0.5384,0.5384,0.5384,0.5384,0.5384,0.6218,0.7634,0.9378,1.1214,1.3045,1.4796,1.5628,1.5966,1.5966,1.5966,1.5966,1.5966,1.5966,1.6129,1.6487,1.6544,1.66,1.6966,1.7006,1.6974,1.6974,1.7015,1.7047,1.7047,1.708,1.7112,0.0,0.0,0.0,0.0,0.0,0.0,1.7112,0.0,0.0,0.0,0.0,1.7112,1.7112,1.7112,0.0,0.0,0.0,1.7112,1.7112,1.7112,1.7112,1.7112,1.7112,1.7112,1.7112,1.7112,1.7112,1.7112,1.7112,1.7112,1.7112,1.7112,1.7112,1.7112,1.7112,1.8488,2.0558,2.0047,2.2449,2.6333,2.7714,2.8221,2.8221,0.2692,0.2692,0.2692,0.2692,0.2692,0.2692,0.2692,0.2692,0.2692,0.2692,0.2692,0.2692,0.2692,0.2692,0.2692,0.2692,0.2692,0.2692,0.2692,0.2692,0.2692,0.2692,0.2692,0.2692,0.2692,0.2692,0.2692,0.2692,0.2692,0.2692,0.2692,0.2692,0.2692,0.2692,0.0,0.3195,0.4036,0.4456,0.4878,0.5384,0.5384,0.5384,0.0,0.5384,0.5885,0.6553,0.6553,0.7136,0.8382,1.0965,1.2548,1.3714,1.5463,1.5966,1.5966,1.5966,1.5966,1.5966,1.5966,1.6022,1.6227,1.6511,1.6641,1.6771,1.7047,1.7112,1.7112,1.7112,1.7112,1.7112,1.7112,1.7112,1.7112,0.0,0.0,0.0,0.0,0.0,0.0,0.0,1.7112,0.0,0.0,0.0,0.0,0.0,0.0,0.0,0.0,0.0,1.7112,1.7112,1.7112,1.7112,1.7112,1.7112,1.7112,1.7112,1.7112,1.7112,1.7112,1.7112,1.7112,1.7112,1.7112,1.7112,1.7112,1.7112,1.8235,2.0047,2.1684,2.3052,2.452,2.7194,2.8221,2.8221,0.2692,0.2692,0.2692,0.2692,0.2692,0.2692,0.2692,0.2692,0.2692,0.2692,0.2692,0.2692,0.2692,0.2692,0.2692,0.2692,0.2692,0.2692,0.2692,0.2692,0.2692,0.2692,0.2692,0.2692,0.2692,0.2692,0.2692,0.2692,0.2692,0.2692,0.2692,0.2777,0.0,0.0,0.0,0.0,0.0,0.5046,0.5384,0.5384,0.5384,0.5384,0.5384,0.5633,0.6721,0.8052,0.8549,0.8716,0.9216,1.2299,1.3549,1.4052,1.5546,1.5966,1.5966,1.5966,1.5966,1.5966,1.5966,1.617,1.6349,1.6535,1.6722,1.6814,1.7071,1.7112,1.7112,1.7112,1.7112,1.7112,1.7112,1.7112,0.0,0.0,0.0,0.0,1.7112,0.0,0.0,0.0,0.0,0.0,0.0,0.0,0.0,0.0,0.0,0.0,0.0,0.0,1.7112,1.7112,1.7112,1.7112,1.7112,1.7112,1.7112,1.7112,1.7112,1.7112,1.7112,1.7112,1.7112,1.7112,1.7112,1.7112,1.7112,1.7112,1.806,1.9873,2.3052,2.3567,2.2966,2.6236,2.7799,2.8221,0.2692,0.2692,0.2692,0.2692,0.2692,0.2692,0.2692,0.2692,0.2692,0.2692,0.2692,0.2692,0.2692,0.2692,0.2692,0.2692,0.2692,0.2692,0.2692,0.2692,0.2692,0.2692,0.2692,0.2692,0.2692,0.2692,0.2692,0.2692,0.2692,0.2692,0.2692,0.3113,0.0,0.0,0.0,0.0,0.4626,0.5132,0.0,0.5384,0.5384,0.5384,0.5552,0.6968,0.7718,0.8382,1.138,1.2465,1.2548,1.3217,1.4383,1.5628,1.5875,1.5966,1.5966,1.5966,1.5966,1.5966,1.5966,1.617,1.6349,1.6535,1.6722,1.6814,1.7071,1.7112,1.7112,1.7112,1.7112,1.7112,1.7112,1.7112,1.7112,0.0,0.0,1.7112,1.7112,0.0,0.0,0.0,0.0,1.7112,0.0,0.0,0.0,0.0,0.0,0.0,0.0,0.0,1.7112,0.0,1.7112,1.7112,0.0,0.0,1.7112,1.7112,1.7112,1.7112,1.7112,1.7112,1.7112,1.7112,1.7112,1.7112,1.7112,1.7112,1.7279,1.763,1.8322,2.0211,2.2708,2.3309,2.5556,2.8221,0.2692,0.2692,0.2692,0.2692,0.2692,0.2692,0.2692,0.2692,0.2692,0.2692,0.2692,0.2692,0.2692,0.2692,0.2692,0.2692,0.2692,0.2692,0.2692,0.2692,0.2692,0.2692,0.2692,0.2692,0.2692,0.2692,0.2692,0.2692,0.2692,0.2692,0.2692,0.3197,0.0,0.0,0.0,0.4458,0.0,0.0,0.5384,0.5384,0.5384,0.5384,0.5552,0.7299,0.8549,0.9711,1.2465,1.3962,1.4713,1.4713,1.5298,1.5966,1.5966,1.5966,1.5966,1.5966,1.5966,1.5966,1.5966,1.6243,1.647,1.656,1.6787,1.7006,1.7088,1.7112,1.7112,1.7112,1.7112,1.7112,1.7112,1.7112,1.7112,1.7112,1.7112,1.7112,1.7112,0.0,1.7112,0.0,0.0,0.0,0.0,0.0,0.0,0.0,0.0,0.0,0.0,0.0,1.7112,0.0,0.0,0.0,1.7112,0.0,1.7112,1.7112,1.7112,1.7112,1.7112,1.7112,1.7112,1.7112,1.7112,1.7112,1.7112,1.7112,1.7112,1.7279,1.9177,2.1078,2.288,2.4776,2.6673,2.8221,0.2691,0.2692,0.2692,0.2692,0.2692,0.2692,0.2692,0.2692,0.2692,0.2692,0.2692,0.2692,0.2692,0.2692,0.2692,0.2692,0.2692,0.2692,0.2692,0.2692,0.2692,0.2692,0.2692,0.2692,0.2692,0.2692,0.2777,0.2861,0.2861,0.2861,0.2945,0.3365,0.0,0.0,0.0,0.0,0.0,0.5216,0.5384,0.5384,0.5384,0.5384,0.5633,0.7801,0.9462,1.0959,1.3128,1.4796,1.5966,1.5966,1.5966,1.5966,1.5966,1.5966,1.5966,1.5966,1.5966,1.5966,1.5966,1.6276,1.6527,1.6568,1.682,1.7063,1.7104,1.7112,1.7112,1.7112,1.7112,1.7112,1.7112,1.7112,1.7112,1.7112,1.7112,1.7112,1.7112,0.0,0.0,0.0,0.0,0.0,1.7112,0.0,0.0,0.0,0.0,0.0,1.7112,0.0,0.0,0.0,0.0,1.7112,1.7112,0.0,1.7112,1.7112,1.7112,1.7112,1.7112,1.7112,1.7112,1.7112,1.7112,1.7112,1.7112,1.7112,1.7112,1.7455,2.0732,2.2277,2.3052,2.6406,2.7883,2.8221,0.2687,0.2692,0.2692,0.2692,0.2692,0.2692,0.2692,0.2692,0.2692,0.2692,0.2692,0.2692,0.2692,0.2692,0.2692,0.2692,0.2692,0.2692,0.2692,0.2692,0.2692,0.2692,0.2692,0.2692,0.2692,0.2692,0.2945,0.3367,0.3367,0.3533,0.3868,0.3952,0.4204,0.0,0.5132,0.53,0.53,0.5384,0.5384,0.5384,0.5384,0.5384,0.5801,0.9133,1.0544,1.1125,1.4541,1.5875,1.5966,1.5966,1.5966,1.5966,1.5966,1.5966,1.5966,1.5966,1.5966,1.5966,1.5966,1.6186,1.6373,1.6535,1.673,1.6917,1.7071,1.7112,1.7112,1.7112,1.7112,1.7112,1.7112,1.7112,1.7112,1.7112,1.7112,1.7112,0.0,0.0,1.7112,1.7112,0.0,0.0,1.7112,1.7112,0.0,0.0,1.7112,0.0,0.0,0.0,0.0,1.7112,1.7112,1.7112,1.7112,1.7112,1.7112,1.7112,1.7112,1.7112,1.7112,1.7112,1.7112,1.7112,1.7112,1.7112,1.7112,1.7112,1.7112,1.7279,1.9351,2.1165,2.288,2.4947,2.6758,2.8221,0.266,0.2665,0.2671,0.269,0.2692,0.2692,0.2692,0.2692,0.2692,0.2692,0.2692,0.2692,0.2692,0.2692,0.2692,0.2692,0.2692,0.2692,0.2692,0.2692,0.2692,0.2692,0.2692,0.2861,0.3113,0.3113,0.3365,0.3785,0.3533,0.3451,0.3617,0.3868,0.4372,0.5132,0.53,0.5384,0.5384,0.5384,0.5384,0.5384,0.5384,0.6053,0.7219,0.9711,1.138,1.2631,1.5126,1.5966,1.5966,1.5966,1.5966,1.5966,1.5966,1.5966,1.5966,1.5966,1.5966,1.5966,1.5966,1.617,1.6349,1.6535,1.6722,1.6814,1.7071,1.7112,1.7112,1.7112,1.7112,1.7112,1.7112,1.7112,1.7112,1.7112,1.7112,0.0,0.0,0.0,0.0,1.7112,0.0,0.0,0.0,1.7112,0.0,0.0,0.0,0.0,0.0,0.0,0.0,1.7112,0.0,1.7112,1.7112,1.7112,1.7112,1.7112,1.7112,1.7112,1.7112,1.7112,1.7112,1.7112,1.7112,1.7112,1.7112,1.7112,1.7112,1.7288,1.9186,2.0992,2.2794,2.4691,2.6588,2.8221,0.2628,0.2641,0.2653,0.2675,0.2687,0.2692,0.2692,0.2692,0.2692,0.2692,0.2692,0.2692,0.2692,0.2692,0.2692,0.2692,0.2692,0.2692,0.2692,0.2692,0.2777,0.2861,0.2945,0.3113,0.3533,0.3617,0.3785,0.4204,0.3954,0.387,0.3956,0.429,0.471,0.5216,0.53,0.5384,0.5384,0.5384,0.5384,0.5384,0.5384,0.6469,0.8215,1.0044,1.1795,1.3631,1.5381,1.5966,1.5966,1.5966,1.5966,1.5966,1.5966,1.5966,1.5966,1.5966,1.5966,1.5966,1.5966,1.6137,1.6267,1.6454,1.6633,1.682,1.6998,1.7071,1.7112,1.7112,1.7112,1.7112,1.7112,1.7112,1.7112,1.7112,1.7112,0.0,0.0,1.7112,0.0,0.0,1.7112,1.7112,1.7112,1.7112,0.0,0.0,0.0,0.0,1.7112,1.7112,1.7112,0.0,0.0,0.0,1.7112,1.7112,1.7112,1.7112,1.7112,1.7112,1.7112,1.7112,1.7112,1.7112,1.7112,1.7112,1.7112,1.7112,1.7112,1.7367,1.9786,2.1501,2.288,2.5288,2.7025,2.8221,0.2597,0.2627,0.2565,0.2565,0.2672,0.2692,0.2692,0.2692,0.2692,0.2692,0.2692,0.2692,0.2692,0.2692,0.2692,0.2692,0.2692,0.2692,0.2692,0.2692,0.2945,0.3367,0.3367,0.3617,0.3952,0.3952,0.4204,0.471,0.0,0.4962,0.5384,0.5384,0.5132,0.471,0.5216,0.5384,0.5384,0.5384,0.5384,0.5384,0.5384,0.6469,0.8215,1.0044,1.1795,1.3631,1.5381,1.5966,1.5966,1.5966,1.5966,1.5966,1.5966,1.5966,1.5966,1.5966,1.5966,1.5966,1.5966,1.5966,1.6089,1.6259,1.6446,1.6633,1.6725,1.699,1.7112,1.7112,1.7112,1.7112,1.7112,1.7112,1.7112,1.7112,1.7112,0.0,0.0,1.7112,0.0,1.7112,1.7112,1.7112,1.7112,1.7112,0.0,0.0,1.7112,1.7112,1.7112,1.7112,1.7112,1.7112,1.7112,1.7112,1.7112,1.7112,1.7112,1.7112,1.7112,1.7112,1.7112,1.7112,1.7112,1.7112,1.7112,1.7112,1.7112,1.7112,1.7112,1.7455,2.1165,2.2536,2.3052,2.6758,2.815,2.8221,0.2567,0.2597,0.2623,0.2561,0.2672,0.2692,0.2692,0.2692,0.2692,0.2692,0.2692,0.2692,0.2692,0.2692,0.2861,0.3113,0.2861,0.2945,0.3532,0.3365,0.3365,0.3784,0.3784,0.4036,0.4458,0.4458,0.471,0.5216,0.4878,0.4794,0.4962,0.4962,0.5046,0.5216,0.53,0.5384,0.5384,0.5384,0.5384,0.5468,0.6721,0.8219,1.0044,1.1878,1.3631,1.5216,1.5793,1.5966,1.5966,1.5966,1.5966,1.5966,1.5966,1.5966,1.5966,1.5966,1.5966,1.5966,1.5966,1.5966,1.6089,1.6259,1.6446,1.6625,1.6812,1.699,1.7112,1.7112,1.7112,1.7112,1.7112,1.7112,1.7112,1.7112,1.7112,0.0,1.7112,0.0,1.7112,1.7112,1.7112,1.7112,1.7112,1.7112,0.0,0.0,0.0,0.0,1.7112,1.7112,1.7112,1.7112,1.7112,1.7112,1.7112,1.7112,1.7112,1.7112,1.7112,1.7112,1.7112,1.7112,1.7112,1.7112,1.7112,1.7112,1.7112,1.7112,1.7112,1.7367,1.9786,2.1501,2.288,2.5385,2.7096,2.8221,0.2538,0.2566,0.2596,0.2624,0.2656,0.2679,0.2691,0.2692,0.2692,0.2692,0.2692,0.2777,0.2945,0.2945,0.3113,0.3367,0.3113,0.3281,0.3952,0.3785,0.3785,0.4204,0.4288,0.4458,0.4962,0.4962,0.5132,0.5384,0.5132,0.4962,0.4962,0.4962,0.5132,0.5384,0.5384,0.5384,0.5384,0.5384,0.5801,0.6469,0.755,0.9466,1.1878,1.2962,1.4465,1.5966,1.5966,1.5966,1.5966,1.5966,1.5966,1.5966,1.5966,1.5966,1.5966,1.5966,1.5966,1.5966,1.5966,1.5966,1.599,1.6178,1.6341,1.6544,1.6709,1.699,1.7112,1.7112,1.7112,1.7112,1.7112,1.7112,1.7112,1.7112,1.7112,1.7112,1.7112,0.0,1.7112,0.0,0.0,1.7112,1.7112,1.7112,1.7112,0.0,0.0,0.0,1.7112,1.7112,1.7112,1.7112,1.7112,1.7112,1.7112,1.7112,1.7112,1.7112,1.7112,1.7112,1.7112,1.7112,1.7112,1.7112,1.7112,1.7112,1.7112,1.7112,1.7112,1.7367,1.996,2.1587,2.288,2.547,2.7194,2.8221,0.2514,0.2538,0.2568,0.2597,0.2627,0.2657,0.2688,0.2692,0.2692,0.2692,0.2692,0.2861,0.3367,0.3367,0.3451,0.3451,0.3449,0.3617,0.4036,0.4036,0.4288,0.471,0.471,0.4962,0.5384,0.5384,0.5384,0.5384,0.5384,0.5384,0.5384,0.5384,0.5384,0.5384,0.5384,0.5384,0.5384,0.5384,0.6385,0.8052,0.8131,1.0299,1.3383,1.3549,1.4631,1.5966,1.5966,1.5966,1.5966,1.5966,1.5966,1.5966,1.5966,1.5966,1.5966,1.5966,1.5966,1.5966,1.5966,1.5966,1.5966,1.5966,1.6186,1.6414,1.6771,1.699,1.7112,1.7112,1.7112,1.7112,1.7112,1.7112,1.7112,1.7112,1.7112,1.7112,1.7112,1.7112,1.7112,0.0,1.7112,1.7112,1.7112,1.7112,1.7112,1.7112,0.0,0.0,0.0,1.7112,1.7112,1.7112,1.7112,1.7112,1.7112,1.7112,1.7112,1.7112,1.7112,1.7112,1.7112,1.7112,1.7112,1.7112,1.7112,1.7112,1.7112,1.7112,1.7112,1.7455,2.0992,2.2449,2.3052,2.6673,2.8052,2.8221,0.2514,0.2538,0.2568,0.2597,0.2627,0.2657,0.2688,0.2692,0.2692,0.2692,0.2692,0.2861,0.3367,0.3367,0.3701,0.4374,0.4036,0.4206,0.5046,0.471,0.471,0.5216,0.5216,0.53,0.5384,0.5384,0.5384,0.5384,0.5384,0.5384,0.5384,0.5384,0.5384,0.5384,0.5384,0.5384,0.5384,0.5384,0.6385,0.8131,0.9462,1.138,1.3549,1.4878,1.5628,1.5966,1.5966,1.5966,1.5966,1.5966,1.5966,1.5966,1.5966,1.5966,1.5966,1.5966,1.5966,1.5966,1.5966,1.5966,1.5966,1.5966,1.6284,1.6576,1.6803,1.699,1.7112,1.7112,1.7112,1.7112,1.7112,1.7112,1.7112,1.7112,1.7112,1.7112,1.7112,1.7112,1.7112,0.0,1.7112,1.7112,1.7112,1.7112,1.7112,1.7112,0.0,1.7112,1.7112,1.7112,1.7112,1.7112,1.7112,1.7112,1.7112,1.7112,1.7112,1.7112,1.7112,1.7112,1.7112,1.7112,1.7112,1.7112,1.7112,1.7112,1.7112,1.7112,1.7112,1.7367,1.9613,2.1424,2.288,2.5203,2.6927,2.8221,0.2514,0.2527,0.2552,0.2594,0.2615,0.2641,0.2686,0.2692,0.2692,0.2692,0.2861,0.3197,0.3617,0.387,0.429,0.4962,0.4626,0.4626,0.5384,0.5132,0.5132,0.5384,0.5384,0.5384,0.5384,0.5384,0.5384,0.5384,0.5384,0.5384,0.5384,0.5384,0.5384,0.5384,0.5384,0.5384,0.5384,0.5384,0.6885,0.9295,1.0294,1.2293,1.4713,1.5628,1.5966,1.5966,1.5966,1.5966,1.5966,1.5966,1.5966,1.5966,1.5966,1.5966,1.5966,1.5966,1.5966,1.5966,1.5966,1.5966,1.5966,1.5966,1.6316,1.6609,1.6706,1.6925,1.7112,1.7112,1.7112,1.7112,1.7112,1.7112,1.7112,1.7112,1.7112,1.7112,1.7112,1.7112,1.7112,1.7112,1.7112,1.7112,1.7112,1.7112,1.7112,1.7112,1.7112,0.0,1.7112,1.7112,1.7112,1.7112,1.7112,1.7112,1.7112,1.7112,1.7112,1.7112,1.7112,1.7112,1.7112,1.7112,1.7112,1.7112,1.7112,1.7112,1.7112,1.7112,1.7112,1.7288,1.9186,2.0992,2.2794,2.4691,2.6588,2.8221,0.2514,0.2514,0.2533,0.2592,0.2601,0.2622,0.2683,0.2777,0.2777,0.2777,0.3197,0.3617,0.4036,0.4458,0.4878,0.5384,0.5046,0.4962,0.5384,0.5384,0.5384,0.5384,0.5384,0.5384,0.5384,0.5384,0.5384,0.5384,0.5384,0.5384,0.5384,0.5384,0.5384,0.5384,0.5384,0.5384,0.5384,0.5384,0.7471,1.071,1.071,1.279,1.5966,1.5966,1.5966,1.5966,1.5966,1.5966,1.5966,1.5966,1.5966,1.5966,1.5966,1.5966,1.5966,1.5966,1.5966,1.5966,1.5966,1.5966,1.5966,1.5966,1.6292,1.6544,1.6576,1.6836,1.708,1.7104,1.7112,1.7112,1.7112,1.7112,1.7112,1.7112,1.7112,1.7112,1.7112,1.7112,1.7112,1.7112,1.7112,1.7112,1.7112,1.7112,1.7112,1.7112,1.7112,1.7112,1.7112,1.7112,1.7112,1.7112,1.7112,1.7112,1.7112,1.7112,1.7112,1.7112,1.7112,1.7112,1.7112,1.7112,1.7112,1.7112,1.7112,1.7112,1.7112,1.7112,1.7112,1.7279,1.8837,2.0558,2.2449,2.4263,2.6151,2.7799,0.2514,0.2514,0.2533,0.2592,0.2601,0.2622,0.2683,0.3029,0.3283,0.3283,0.3617,0.412,0.4542,0.4626,0.4878,0.5384,0.53,0.53,0.5384,0.5384,0.5384,0.5384,0.5384,0.5384,0.5384,0.5384,0.5384,0.5384,0.5384,0.5384,0.5384,0.5384,0.5384,0.5384,0.5384,0.5384,0.5384,0.5384,0.7471,1.071,1.071,1.279,1.5966,1.5966,1.5966,1.5966,1.5966,1.5966,1.5966,1.5966,1.5966,1.5966,1.5966,1.5966,1.5966,1.5966,1.5966,1.5966,1.5966,1.5966,1.5966,1.5966,1.6194,1.6389,1.6544,1.6738,1.6846,1.708,1.7112,1.7112,1.7112,1.7112,1.7112,1.7112,1.7112,1.7112,1.7112,1.7112,1.7112,1.7112,1.7112,1.7112,1.7112,1.7112,1.7112,1.7112,1.7112,1.7112,1.7112,1.7112,1.7112,1.7112,1.7112,1.7112,1.7112,1.7112,1.7112,1.7112,1.7112,1.7112,1.7112,1.7112,1.7112,1.7112,1.7112,1.7112,1.7112,1.7112,1.7112,1.7112,1.7455,1.8663,2.0558,2.2363,2.4263,2.6066,0.2536,0.2538,0.2557,0.2616,0.2626,0.2641,0.2686,0.3113,0.3367,0.3367,0.3954,0.4458,0.471,0.4962,0.5132,0.5384,0.5384,0.5384,0.5384,0.5384,0.5384,0.5384,0.5384,0.5384,0.5384,0.5384,0.5384,0.5384,0.5384,0.5384,0.5384,0.5384,0.5384,0.5384,0.5384,0.5384,0.5468,0.6385,0.8412,1.0975,1.1897,1.3881,1.6332,1.6332,1.6332,1.6332,1.6332,1.6332,1.6332,1.6332,1.6332,1.6332,1.6332,1.6332,1.6332,1.6332,1.6194,1.5966,1.5966,1.5966,1.5966,1.5966,1.6178,1.6349,1.6535,1.6722,1.6901,1.7071,1.7112,1.7112,1.7112,1.7112,1.7112,1.7112,1.7112,1.7112,1.7112,1.7112,1.7112,1.7112,1.7112,1.7112,1.7112,1.7112,1.7112,1.7112,1.7112,1.7112,1.7112,1.7112,1.7112,1.7112,1.7112,1.7112,1.7112,1.7112,1.7112,1.7112,1.7112,1.7112,1.7112,1.7112,1.7112,1.7112,1.7112,1.7112,1.7112,1.7112,1.7112,1.7112,1.7112,1.8235,2.0134,2.1932,2.3824,2.5641,0.2563,0.257,0.2586,0.2638,0.2565,0.2657,0.2688,0.3197,0.3533,0.3451,0.4122,0.4626,0.4542,0.4962,0.5216,0.5216,0.53,0.5384,0.5384,0.5384,0.5384,0.5384,0.5384,0.5384,0.5384,0.5384,0.5384,0.5384,0.5384,0.5384,0.5384,0.5384,0.5384,0.5384,0.5384,0.5392,0.5572,0.7333,0.923,1.1193,1.2972,1.4832,1.6584,1.6584,1.6584,1.6584,1.6584,1.6584,1.6584,1.6584,1.6584,1.6584,1.6584,1.6584,1.6584,1.6584,1.6389,1.617,1.617,1.6137,1.6105,1.6105,1.6178,1.63,1.6527,1.669,1.6852,1.7063,1.7112,1.7112,1.7112,1.7112,1.7112,1.7112,1.7112,1.7112,1.7112,1.7112,1.7112,1.7112,1.7112,1.7112,1.7112,1.7112,1.7112,1.7112,1.7112,1.7112,1.7112,1.7112,1.7112,1.7112,1.7112,1.7112,1.7112,1.7112,1.7112,1.7112,1.7112,1.7112,1.7112,1.7112,1.7112,1.7112,1.7112,1.7112,1.7112,1.7112,1.7112,1.7112,1.7112,1.7972,1.9525,2.176,2.3481,2.5117,0.2593,0.2598,0.2609,0.2559,0.2565,0.2657,0.2688,0.3447,0.3784,0.3449,0.4122,0.4542,0.412,0.4458,0.4794,0.4794,0.5132,0.5384,0.5384,0.5384,0.5384,0.5384,0.5384,0.5384,0.5384,0.5384,0.5384,0.5384,0.5384,0.5384,0.5384,0.5384,0.5384,0.5384,0.5384,0.5417,0.5639,0.7503,0.9337,1.1235,1.312,1.4934,1.6584,1.6584,1.6584,1.6584,1.6584,1.6584,1.6584,1.6584,1.6584,1.6584,1.6584,1.6584,1.6584,1.6584,1.656,1.6544,1.6544,1.6414,1.6284,1.6284,1.6178,1.6154,1.6503,1.6592,1.6698,1.7039,1.7112,1.7112,1.7112,1.7112,1.7112,1.7112,1.7112,1.7112,1.7112,1.7112,1.7112,1.7112,1.7112,1.7112,1.7112,1.7112,1.7112,1.7112,1.7112,1.7112,1.7112,1.7112,1.7112,1.7112,1.7112,1.7112,1.7112,1.7112,1.7112,1.7112,1.7112,1.7112,1.7112,1.7112,1.7112,1.7112,1.7112,1.7112,1.7112,1.7112,1.7112,1.7112,1.7112,1.72,1.7718,2.1328,2.2708,2.3309,0.2624,0.263,0.2639,0.2669,0.2675,0.2679,0.2691,0.3197,0.3533,0.3451,0.387,0.4204,0.4036,0.412,0.4372,0.471,0.4878,0.5048,0.5384,0.5384,0.5384,0.5384,0.5384,0.5384,0.5384,0.5384,0.5384,0.5384,0.5384,0.5384,0.5384,0.5422,0.5442,0.5442,0.5477,0.5504,0.5785,0.8783,1.0472,1.153,1.4485,1.6199,1.6909,1.6909,1.6909,1.6909,1.6909,1.6909,1.6909,1.6909,1.6909,1.6909,1.6909,1.6909,1.6909,1.6909,1.6909,1.6909,1.6909,1.6698,1.6479,1.6479,1.643,1.6446,1.669,1.6747,1.682,1.7063,1.7112,1.7112,1.7112,1.7112,1.7112,1.7112,1.7112,1.7112,1.7112,1.7112,1.7112,1.7112,1.7112,1.7112,1.7112,1.7112,1.7112,1.7112,1.7112,1.7112,1.7112,1.7112,1.7112,1.7112,1.7112,1.7112,1.7112,1.7112,1.7112,1.7112,1.7112,1.7112,1.7112,1.7112,1.7112,1.7112,1.7112,1.7112,1.7112,1.7112,1.7112,1.7112,1.7112,1.7112,1.7543,2.1251,2.2622,2.3137,0.2656,0.2744,0.2835,0.2942,0.3029,0.3029,0.2945,0.3281,0.3449,0.3197,0.3533,0.3784,0.3616,0.37,0.3952,0.4456,0.4626,0.4878,0.5384,0.5384,0.5384,0.5384,0.5384,0.5384,0.5384,0.5384,0.5384,0.5384,0.5403,0.5414,0.5414,0.5474,0.5501,0.5504,0.5542,0.5917,0.6715,0.9831,1.1541,1.2529,1.5613,1.7006,1.7112,1.7112,1.7112,1.7112,1.7112,1.7112,1.7112,1.7112,1.7112,1.7112,1.7112,1.7112,1.7112,1.7112,1.7112,1.7112,1.7112,1.6933,1.673,1.6682,1.6625,1.6625,1.6812,1.6766,1.6901,1.7071,1.7112,1.7112,1.7112,1.7112,1.7112,1.7112,1.7112,1.7112,1.7112,1.7112,1.7112,1.7112,1.7112,1.7112,1.7112,1.7112,1.7112,1.7112,1.7112,1.7112,1.7112,1.7112,1.7112,1.7112,1.7112,1.7112,1.7112,1.7112,1.7112,1.7112,1.7112,1.7112,1.7112,1.7112,1.7112,1.7112,1.7112,1.7112,1.7112,1.7112,1.7112,1.7112,1.7112,1.7112,1.7543,2.1251,2.2622,2.3137,0.2687,0.3113,0.3367,0.3367,0.3701,0.3868,0.3449,0.3701,0.37,0.2777,0.3113,0.3197,0.2777,0.3113,0.3533,0.3952,0.4456,0.4878,0.5384,0.5384,0.5384,0.5387,0.5384,0.5384,0.5384,0.5384,0.5384,0.5387,0.5447,0.5477,0.5477,0.5534,0.5561,0.5561,0.5561,0.6721,0.8628,1.0462,1.246,1.4441,1.6313,1.7112,1.7112,1.7112,1.7112,1.7112,1.7112,1.7112,1.7112,1.7112,1.7112,1.7112,1.7112,1.7112,1.7112,1.7112,1.7112,1.7112,1.7112,1.7112,1.7071,1.6814,1.6722,1.6633,1.6725,1.6766,1.6814,1.708,1.7112,1.7112,1.7112,1.7112,1.7112,1.7112,1.7112,1.7112,1.7112,1.7112,1.7112,1.7112,1.7112,1.7112,1.7112,1.7112,1.7112,1.7112,1.7112,1.7112,1.7112,1.7112,1.7112,1.7112,1.7112,1.7112,1.7112,1.7112,1.7112,1.7112,1.7112,1.7112,1.7112,1.7112,1.7112,1.7112,1.7112,1.7112,1.7112,1.7112,1.7112,1.7112,1.7112,1.7112,1.7543,2.1251,2.2622,2.3137,0.2691,0.2777,0.2945,0.2945,0.3029,0.3029,0.2945,0.3029,0.3029,0.2692,0.2861,0.2861,0.2692,0.2861,0.3197,0.3952,0.412,0.4556,0.5444,0.5447,0.5466,0.5504,0.5428,0.5403,0.5447,0.5447,0.5469,0.5507,0.5526,0.5534,0.5537,0.5681,0.5712,0.5712,0.5668,0.6757,0.8723,1.0578,1.2543,1.4441,1.6313,1.7112,1.7112,1.7112,1.7112,1.7112,1.7112,1.7112,1.7112,1.7112,1.7112,1.7112,1.7112,1.7112,1.7112,1.7112,1.7112,1.7112,1.7112,1.7112,1.7096,1.7047,1.699,1.6966,1.7023,1.7031,1.7047,1.7096,1.7112,1.7112,1.7112,1.7112,1.7112,1.7112,1.7112,1.7112,1.7112,1.7112,1.7112,1.7112,1.7112,1.7112,1.7112,1.7112,1.7112,1.7112,1.7112,1.7112,1.7112,1.7112,1.7112,1.7112,1.7112,1.7112,1.7112,1.7112,1.7112,1.7112,1.7112,1.7112,1.7112,1.7112,1.7112,1.7112,1.7112,1.7112,1.7112,1.7112,1.7112,1.7112,1.7112,1.7112,1.7543,2.1251,2.2622,2.3137,0.2692,0.2861,0.2945,0.2945,0.3113,0.3197,0.3029,0.2945,0.2945,0.2692,0.2692,0.2692,0.2692,0.2861,0.3286,0.3976,0.4418,0.4869,0.5507,0.5507,0.5523,0.5559,0.5491,0.5472,0.5507,0.5507,0.5526,0.5559,0.5583,0.5681,0.5597,0.5657,0.5687,0.5687,0.5725,0.7163,0.974,1.0895,1.2933,1.5506,1.6665,1.7112,1.7112,1.7112,1.7112,1.7112,1.7112,1.7112,1.7112,1.7112,1.7112,1.7112,1.7112,1.7112,1.7112,1.7112,1.7112,1.7112,1.7112,1.7112,1.7112,1.7112,1.7112,1.7112,1.7112,1.7112,1.7112,1.7112,1.7112,1.7112,1.7112,1.7112,1.7112,1.7112,1.7112,1.7112,1.7112,1.7112,1.7112,1.7112,1.7112,1.7112,1.7112,1.7112,1.7112,1.7112,1.7112,1.7112,1.7112,1.7112,1.7112,1.7112,1.7112,1.7112,1.7112,1.7112,1.7112,1.7112,1.7112,1.7112,1.7112,1.7112,1.7112,1.7112,1.7112,1.7112,1.7112,1.7112,1.7112,1.7112,1.7112,1.7112,1.7455,2.0472,2.2019,2.3052,0.2692,0.3029,0.3367,0.3367,0.3617,0.3784,0.3365,0.3367,0.3197,0.2777,0.2692,0.2694,0.2781,0.3118,0.3639,0.4107,0.5011,0.5561,0.5567,0.5567,0.557,0.5575,0.5575,0.5575,0.5575,0.557,0.557,0.5575,0.5632,0.566,0.566,0.5714,0.5741,0.5741,0.5918,0.7967,1.1427,1.1605,1.3735,1.7112,1.7112,1.7112,1.7112,1.7112,1.7112,1.7112,1.7112,1.7112,1.7112,1.7112,1.7112,1.7112,1.7112,1.7112,1.7112,1.7112,1.7112,1.7112,1.7112,1.7112,1.7112,1.7112,1.7112,1.7112,1.7112,1.7112,1.7112,1.7112,1.7112,1.7112,1.7112,1.7112,1.7112,1.7112,1.7112,1.7112,1.7112,1.7112,1.7112,1.7112,1.7112,1.7112,1.7112,1.7112,1.7112,1.7112,1.7112,1.7112,1.7112,1.7112,1.7112,1.7112,1.7112,1.7112,1.7112,1.7112,1.7112,1.7112,1.7112,1.7112,1.7112,1.7112,1.7112,1.7112,1.7112,1.7112,1.7112,1.7112,1.7112,1.7112,1.7112,1.7112,1.7367,1.9351,2.1165,2.288,0.2692,0.2777,0.2861,0.2861,0.2945,0.2945,0.2861,0.2861,0.2777,0.2692,0.2692,0.2871,0.3323,0.3411,0.3853,0.4673,0.5293,0.5581,0.5715,0.5717,0.5651,0.57,0.57,0.57,0.57,0.5654,0.5654,0.57,0.5714,0.5722,0.5722,0.5736,0.5741,0.5741,0.7252,0.921,1.1516,1.3022,1.4977,1.7112,1.7112,1.7112,1.7112,1.7112,1.7112,1.7112,1.7112,1.7112,1.7112,1.7112,1.7112,1.7112,1.7112,1.7112,1.7112,1.7112,1.7112,1.7112,1.7112,1.7112,1.7112,1.7112,1.7112,1.7112,1.7112,1.7112,1.7112,1.7112,1.7112,1.7112,1.7112,1.7112,1.7112,1.7112,1.7112,1.7112,1.7112,1.7112,1.7112,1.7112,1.7112,1.7112,1.7112,1.7112,1.7112,1.7112,1.7112,1.7112,1.7112,1.7112,1.7112,1.7112,1.7112,1.7112,1.7112,1.7112,1.7112,1.7112,1.7112,1.7112,1.7112,1.7112,1.7112,1.7112,1.7112,1.7112,1.7112,1.7112,1.7112,1.7112,1.7112,1.7112,1.7543,2.0819,2.2277,2.3052,0.2692,0.2692,0.2692,0.2692,0.2692,0.2692,0.2692,0.2692,0.2698,0.2713,0.2714,0.281,0.3101,0.3535,0.4243,0.5163,0.5542,0.566,0.5692,0.5692,0.5709,0.5739,0.5741,0.5741,0.5741,0.5709,0.5709,0.5741,0.5741,0.5741,0.5741,0.5741,0.5741,0.5741,0.7699,0.9651,1.1516,1.3464,1.5418,1.7112,1.7112,1.7112,1.7112,1.7112,1.7112,1.7112,1.7112,1.7112,1.7112,1.7112,1.7112,1.7112,1.7112,1.7112,1.7112,1.7112,1.7112,1.7112,1.7112,1.7112,1.7112,1.7112,1.7112,1.7112,1.7112,1.7112,1.7112,1.7112,1.7112,1.7112,1.7112,1.7112,1.7112,1.7112,1.7112,1.7112,1.7112,1.7112,1.7112,1.7112,1.7112,1.7112,1.7112,1.7112,1.7112,1.7112,1.7112,1.7112,1.7112,1.7112,1.7112,1.7112,1.7112,1.7112,1.7112,1.7112,1.7112,1.7112,1.7112,1.7112,1.7112,1.7112,1.7112,1.7112,1.7112,1.7112,1.7112,1.7112,1.7112,1.7112,1.7112,1.7112,1.7455,2.0298,2.2449,2.4349,0.2692,0.2692,0.2692,0.2692,0.2697,0.2701,0.2701,0.2705,0.2717,0.2743,0.2746,0.2929,0.3049,0.3929,0.4823,0.5662,0.5711,0.5741,0.5741,0.5741,0.5741,0.5741,0.5741,0.5741,0.5741,0.5741,0.5741,0.5741,0.5741,0.5741,0.5741,0.5741,0.5741,0.5831,0.8052,0.9918,1.1516,1.3823,1.569,1.7112,1.7112,1.7112,1.7112,1.7112,1.7112,1.7112,1.7112,1.7112,1.7112,1.7112,1.7112,1.7112,1.7112,1.7112,1.7112,1.7112,1.7112,1.7112,1.7112,1.7112,1.7112,1.7112,1.7112,1.7112,1.7112,1.7112,1.7112,1.7112,1.7112,1.7112,1.7112,1.7112,1.7112,1.7112,1.7112,1.7112,1.7112,1.7112,1.7112,1.7112,1.7112,1.7112,1.7112,1.7112,1.7112,1.7112,1.7112,1.7112,1.7112,1.7112,1.7112,1.7112,1.7112,1.7112,1.7112,1.7112,1.7112,1.7112,1.7112,1.7112,1.7112,1.7112,1.7112,1.7112,1.7112,1.7112,1.7112,1.7112,1.7112,1.7112,1.7112,1.7112,1.7367,1.9525,2.2536,2.5641,0.2692,0.2692,0.2692,0.2692,0.2714,0.2732,0.2732,0.2754,0.2773,0.2777,0.3124,0.3573,0.405,0.4974,0.5541,0.5728,0.5736,0.5741,0.5741,0.5741,0.5741,0.5741,0.5741,0.5741,0.5741,0.5741,0.5741,0.5741,0.5741,0.5741,0.5741,0.5741,0.5741,0.5831,0.9384,1.1161,1.1605,1.5242,1.6841,1.7112,1.7112,1.7112,1.7112,1.7112,1.7112,1.7112,1.7112,1.7112,1.7112,1.7112,1.7112,1.7112,1.7112,1.7112,1.7112,1.7112,1.7112,1.7112,1.7112,1.7112,1.7112,1.7112,1.7112,1.7112,1.7112,1.7112,1.7112,1.7112,1.7112,1.7112,1.7112,1.7112,1.7112,1.7112,1.7112,1.7112,1.7112,1.7112,1.7112,1.7112,1.7112,1.7112,1.7112,1.7112,1.7112,1.7112,1.7112,1.7112,1.7112,1.7112,1.7112,1.7112,1.7112,1.7112,1.7112,1.7112,1.7112,1.7112,1.7112,1.7112,1.7112,1.7112,1.7112,1.7112,1.7112,1.7112,1.7112,1.7112,1.7112,1.7112,1.7112,1.7112,1.7543,2.0992,2.3567,2.5641,0.2692,0.2706,0.2718,0.2718,0.2743,0.2763,0.2763,0.2774,0.2789,0.2806,0.2984,0.3348,0.3828,0.474,0.538,0.5652,0.5741,0.5741,0.5741,0.5741,0.5741,0.5741,0.5741,0.5562,0.5291,0.5291,0.5291,0.5291,0.5562,0.5741,0.5741,0.5741,0.6276,0.7431,1.0184,1.1959,1.3198,1.5954,1.7112,1.7112,1.7112,1.7112,1.7112,1.7112,1.7112,1.7112,1.7112,1.7112,1.7112,1.7112,1.7112,1.7112,1.7112,1.7112,1.7112,1.7112,1.7112,1.7112,1.7112,1.7112,1.7112,1.7112,1.7112,1.7112,1.7112,1.7112,1.7112,1.7112,1.7112,1.7112,1.7112,1.7112,1.7112,1.7112,1.7112,1.7112,1.7112,1.7112,1.7112,1.7112,1.7112,1.7112,1.7112,1.7112,1.7112,1.7112,1.7112,1.7112,1.7112,1.7112,1.7112,1.7112,1.7112,1.7112,1.7112,1.7112,1.7112,1.7112,1.7112,1.7112,1.7112,1.7112,1.7112,1.7112,1.7112,1.7112,1.7112,1.7112,1.7112,1.7112,1.7112,1.8313,2.0385,2.2019,2.4434,2.7109]}]]